GFSMW_con_mucape_000.txt.gz
CAPE
636 750 839 1043 978 1057 1166 1452 1585 1771 1834 1631 1713 1816 1465 1415 1463 1365 1127 1063 919 933 913 718 649 385 358 245 329 310 294 203 218 151 99 29 16 10 2 42 162 0 2
472 533 580 757 608 710 1031 1308 1669 1877 1870 1783 1696 1595 1577 1556 1489 1457 1426 1226 941 998 865 493 279 341 307 136 99 126 141 210 250 134 7 9 35 59 3 16 12 0 0
216 256 287 315 595 582 867 1131 1558 1816 1806 1730 1612 1687 1603 1672 1587 1605 1228 1440 1174 811 536 373 300 213 13 17 13 19 80 178 233 218 124 1 1 0 0 4 0 0 0
128 145 188 257 401 498 681 754 1149 1522 1641 1689 1772 1764 1541 1531 1624 1530 1528 1725 1108 749 465 6 7 3 1 19 2 112 183 190 63 141 147 56 94 21 2 0 0 0 0
152 204 225 264 313 579 517 549 842 1130 1335 1432 1650 1910 1663 1514 1340 953 800 1498 1082 984 0 0 0 15 79 11 0 26 44 76 69 14 7 0 0 12 0 0 0 0 0
273 286 345 413 328 686 658 488 633 747 1004 1265 1522 1750 1669 1561 1514 796 375 1258 1378 74 0 0 0 42 26 0 0 0 0 0 28 78 22 1 0 0 0 0 0 0 0
356 495 457 641 565 658 783 664 690 813 1109 1334 1535 1694 1727 1665 1680 648 550 1172 684 0 0 0 0 5 0 0 0 0 0 0 9 43 12 2 0 0 0 0 0 1 0
416 539 642 616 804 689 840 745 885 941 1244 1525 1644 1747 1963 2019 2412 1542 281 566 14 0 0 0 0 0 0 0 0 0 0 0 10 46 28 0 0 0 0 0 0 0 0
369 541 641 738 928 841 886 805 1049 1132 1289 1557 1765 1949 2317 2329 2905 500 163 83 0 0 0 0 0 0 0 0 0 0 0 0 0 0 18 2 35 53 17 1 0 0 0
339 440 576 718 962 949 914 887 1086 1252 1328 1499 1659 1930 2324 2725 1925 16 51 12 0 0 0 0 0 0 0 0 0 0 0 0 0 0 0 28 57 82 51 30 5 7 0
188 407 631 781 953 974 914 998 1173 1370 1453 1437 1530 1626 2105 2384 278 0 0 0 0 0 0 0 0 0 0 0 0 0 0 0 0 32 49 42 52 62 72 67 34 22 7
119 260 579 808 910 912 909 1010 1223 1394 1507 1478 1546 1455 1694 1955 714 1 1 8 25 9 0 0 0 0 0 0 0 0 0 0 11 46 45 69 62 45 54 66 56 38 31
74 168 369 746 923 935 984 1074 1266 1345 1441 1458 1437 1493 1356 1616 993 36 11 29 53 0 0 0 0 3 0 0 0 0 0 0 3 31 46 56 56 27 14 0 13 44 51
52 146 249 431 641 776 838 1097 1291 1309 1302 1324 1381 1449 1338 1473 941 95 96 18 8 0 0 0 0 0 0 0 0 0 0 0 11 41 69 37 28 16 7 0 0 22 30
83 99 211 297 399 510 610 718 999 1207 1272 1249 1201 1335 1338 1288 972 268 62 61 50 46 31 1 0 0 0 0 0 0 8 22 71 80 51 21 18 38 40 32 40 0 20
123 156 167 180 266 327 413 538 845 981 1183 1190 1165 1142 1178 1160 553 54 268 189 379 274 133 68 8 9 4 12 0 30 44 89 93 78 25 0 4 8 10 31 68 100 122
177 179 193 167 124 137 261 438 751 939 1128 1189 1206 1183 1146 1095 821 216 5 281 522 290 124 100 39 39 93 79 42 54 82 82 64 28 6 10 0 17 9 0 8 54 93
169 187 134 89 54 97 213 349 642 915 1112 1181 1212 1226 1234 1104 496 234 8 355 105 21 48 95 102 84 171 184 122 159 99 60 75 52 27 11 10 13 1 0 13 14 23
77 100 175 189 141 187 263 441 633 893 1070 1158 1226 1207 1209 1131 841 232 13 162 304 80 104 186 191 147 173 210 240 90 164 65 37 54 29 6 6 6 0 0 0 0 0
136 151 285 273 351 461 661 753 836 893 1002 1082 1202 1418 1227 969 581 274 113 110 217 339 195 189 208 146 194 246 127 127 94 82 41 1 0 0 0 0 0 0 0 0 0
208 244 403 578 508 535 820 958 1123 1161 1073 1220 1620 1576 1220 1058 470 229 191 261 270 286 141 94 6 19 66 86 188 120 159 75 2 0 0 0 0 0 0 0 0 0 0
247 266 384 544 761 858 863 855 1042 963 1057 1387 1590 1275 1023 906 573 250 245 275 275 166 15 28 12 3 0 123 96 185 144 74 33 24 0 0 0 0 0 5 0 0 0
308 570 709 687 701 765 1028 1030 825 954 1264 1458 1315 988 910 732 357 171 47 90 53 39 31 59 81 114 142 115 99 126 81 40 22 0 0 0 0 0 1 1 0 0 0
337 568 712 816 951 995 983 1033 1247 1274 1426 974 780 707 571 518 346 211 85 32 51 1 10 54 93 140 95 82 90 51 13 0 0 0 0 0 0 0 3 0 3 0 0
522 610 685 787 972 1088 1159 1249 1363 1166 695 492 490 565 534 457 205 95 71 24 1 45 84 138 103 83 78 42 19 1 0 0 0 0 0 0 0 4 0 1 0 0 0
737 744 854 931 1110 1168 1154 1122 850 559 370 237 68 68 270 172 50 15 26 4 87 118 130 110 81 49 16 11 2 0 0 0 0 0 0 0 3 0 0 0 0 0 0

GFSMW_con_mucape_003.txt.gz
CAPE
1223 1438 1699 1766 1961 2086 2192 2318 2384 2643 2727 2309 2186 2312 1772 2416 2254 2277 2219 1898 2070 1758 2016 1917 1659 1484 1184 1062 1063 952 903 463 590 535 93 150 204 100 84 107 3 0 0
1235 1398 1509 1479 1663 1967 2097 2320 2541 2778 2780 2595 2735 2371 2376 2317 2153 2269 2329 2092 1919 1998 1974 1722 1373 1139 757 998 860 902 535 496 594 371 199 0 140 110 21 0 0 0 0
874 994 1124 1284 1417 1665 1967 2187 2764 3112 2881 2840 2705 2587 2474 2514 2400 2363 2335 2193 2135 2026 1756 1453 1098 1033 600 164 538 425 637 287 542 573 251 5 7 0 4 11 0 0 0
605 706 818 1009 1247 1404 1617 2174 2568 3050 2935 3027 2580 2694 2304 2131 2225 2594 2452 2374 2272 1661 1473 1351 720 762 311 468 319 291 599 700 223 329 398 266 208 3 0 0 0 0 0
461 573 690 776 958 1215 1344 1687 2519 2873 3357 3116 3161 2726 2627 2427 2558 2342 2041 2478 2104 1525 1004 643 547 576 435 464 187 612 471 398 172 127 217 115 42 54 0 0 0 0 0
454 511 585 613 760 988 1161 1459 2433 2975 2739 2782 2959 2931 2971 2858 2605 2186 1360 1378 1604 888 891 302 498 754 619 322 128 325 289 294 328 349 208 25 1 0 1 2 1 0 0
409 458 603 631 770 1043 1213 1417 2221 2609 2340 2426 2836 2827 2866 3143 3065 2753 1770 1247 1167 976 1037 301 444 543 567 166 115 205 207 215 189 480 104 104 35 34 35 39 18 4 0
329 422 661 944 941 1030 1218 1490 1988 2374 2168 2124 2798 3024 3084 2798 2837 2621 1760 1221 1134 833 310 308 373 550 177 17 60 28 9 135 157 400 278 120 120 107 115 99 63 26 9
542 618 659 809 1143 1274 1599 1795 2104 2331 2262 1997 2778 2810 3157 3051 2840 2452 2059 2234 1078 476 296 297 378 244 0 14 95 0 16 117 251 241 428 257 134 166 173 205 99 77 32
674 707 1003 1009 1211 1221 1511 1644 2005 2254 2350 1980 2324 2516 2801 2956 2901 2564 2534 2450 670 327 323 311 200 132 32 25 165 15 3 49 11 72 398 500 213 294 591 335 157 97 71
828 1030 1202 1069 1197 1270 1336 1721 1709 2110 2042 2124 2679 2869 2800 2720 2769 2329 2928 1763 385 438 338 337 189 169 147 139 204 251 37 5 100 372 449 509 595 279 283 334 286 143 113
997 953 1053 1079 1108 1348 1254 1446 1603 1646 2154 2500 2656 2452 2523 1649 1650 1978 2224 304 225 297 354 347 302 295 256 281 286 197 0 80 142 178 402 397 281 554 426 270 286 162 209
661 955 1038 1336 1327 1384 1798 1501 1807 1740 1875 2301 2124 2216 1957 1542 1933 1782 1603 60 166 84 176 288 393 350 330 449 521 354 112 242 299 302 391 424 526 515 231 263 140 94 289
743 884 1013 1709 1914 2062 2135 2083 1850 1868 1912 1949 2096 2309 1612 1338 1253 1634 1145 0 25 82 85 258 562 384 444 414 294 120 240 378 329 434 488 576 562 422 299 202 229 257 234
438 881 1005 1800 2009 2095 1870 1895 1751 2075 2215 2320 2133 1877 1403 952 1068 1308 749 12 2 11 0 34 338 368 294 187 233 308 444 691 687 652 858 708 612 179 116 71 196 220 187
335 700 913 1016 1255 1499 1464 1456 1678 1947 2114 2133 1970 1600 1204 1149 1039 1115 731 305 177 0 101 77 186 325 182 60 24 161 581 811 961 936 728 771 128 84 23 16 44 91 195
415 520 742 902 924 982 1131 1154 1387 1563 1785 1883 1732 1366 1013 1023 1034 1035 896 515 308 63 12 198 165 546 474 154 83 82 465 756 880 942 799 617 181 58 119 17 0 17 18
523 407 255 406 556 520 671 935 1284 1654 1791 1815 1632 1266 878 932 968 1012 940 512 334 52 329 381 535 491 626 255 150 176 402 496 734 609 534 417 323 180 48 57 38 79 132
404 480 344 350 474 392 639 974 1257 1582 1779 1792 1719 1118 913 1026 1024 1069 848 613 373 204 294 173 370 457 526 113 98 151 238 282 213 542 383 121 102 20 0 0 4 32 58
570 591 590 583 820 764 851 1213 1390 1573 1737 1748 1681 1154 1363 1252 1067 1062 821 748 294 111 105 229 456 231 513 101 102 106 84 160 115 339 77 42 0 0 0 0 0 29 52
707 919 964 1004 1125 1349 1392 1602 1658 1770 1785 1688 1316 1491 1397 1104 961 894 646 337 300 211 478 552 693 419 499 350 71 21 110 196 215 223 119 5 0 0 0 0 1 1 0
945 1230 1482 1585 1358 1514 1839 1881 1877 1670 1394 1421 1434 1394 1228 1060 938 826 587 375 450 597 541 600 613 174 320 5 13 32 99 154 243 338 63 6 0 0 0 0 0 0 0
1401 1372 1379 1500 1381 1465 1596 1506 1116 843 1018 1055 1402 1238 967 836 834 773 656 328 395 386 431 313 255 212 208 60 62 160 113 98 59 26 0 0 0 0 0 0 0 0 0
1388 1627 1778 1660 1282 969 798 932 844 1090 1008 1137 1200 963 1077 833 705 618 331 181 183 74 39 122 246 486 183 72 96 6 19 14 4 0 0 0 0 0 0 0 0 0 0
1338 1550 1818 1833 1457 1079 1052 995 1074 1051 1099 1023 1059 967 962 642 520 283 62 40 71 31 180 189 406 607 363 94 31 20 0 0 0 0 0 0 0 0 0 0 0 0 0
1606 1702 1692 1261 941 1023 1016 1065 1060 1121 1161 1052 918 720 397 175 159 103 13 1 3 11 61 146 166 60 58 16 12 14 5 0 0 0 0 0 0 0 0 0 0 0 0

GFSMW_con_mucape_006.txt.gz
CAPE
839 1084 1409 1533 1522 1819 2213 2472 2415 2587 3167 2479 1687 1728 1514 1662 1721 1740 2283 2176 2038 1945 2011 1554 1673 1680 1515 976 609 298 143 10 67 12 20 69 122 64 52 39 0 0 4
831 1206 1479 1471 1475 1873 2291 2614 2740 2788 3076 2124 2281 1830 1827 1556 1887 1924 2160 2193 2205 2306 1934 1929 1728 1531 371 577 216 158 22 16 44 63 18 14 76 66 31 0 0 0 0
957 1074 1240 1398 1451 1741 2340 2648 2950 3077 3192 2743 2298 2442 2310 2605 2056 2194 2421 2609 2533 2436 2352 2136 1196 988 160 2 159 162 33 15 229 264 33 11 12 6 38 29 0 0 0
1041 1077 1095 1279 1384 1606 2034 2674 3053 3327 3241 3333 2960 3234 2219 1651 1266 1698 1361 2005 2482 2299 2176 1775 1094 183 0 59 157 32 85 203 23 28 24 117 178 21 17 36 13 0 0
770 987 1072 1050 1322 1481 1797 2317 3078 3616 3597 3319 3846 3013 2858 1663 1334 1427 1970 2351 2144 2242 1445 1695 531 176 88 308 170 87 164 44 23 16 31 48 16 8 6 8 18 20 20
309 653 832 927 1149 1342 1604 1929 2864 3797 3653 3536 3502 3459 2957 2582 1473 1968 1608 1077 1068 1574 1646 1629 687 192 90 301 214 60 71 60 66 62 105 21 18 21 11 8 10 16 13
324 442 695 892 1130 1324 1514 1841 2619 3447 3429 3471 3343 3419 3368 3086 2771 2497 1696 1242 652 741 1316 1793 869 296 432 260 108 57 6 54 42 107 36 38 37 41 37 32 28 32 44
341 408 602 819 1158 1281 1548 1815 2489 3296 3270 3245 3590 4055 3890 3180 2890 2737 1625 965 608 365 565 1715 732 359 284 263 32 0 8 26 33 35 117 39 43 37 47 43 62 49 48
594 354 598 795 1066 1328 1816 2425 3132 3002 3029 2976 3411 3706 4051 3564 2995 2780 2548 1487 1270 361 1054 1165 699 196 326 82 33 0 10 8 12 12 38 119 34 39 58 77 95 76 36
670 496 571 770 1013 1280 1567 1957 2311 2967 2788 2771 2934 3055 3240 3448 3241 3103 3211 2468 1799 1473 945 848 365 254 190 61 96 9 7 6 0 0 4 65 33 69 82 92 94 73 41
806 787 658 709 1060 1152 1365 1789 2156 2444 2701 2706 3320 3116 2923 3007 3396 3342 3438 3033 2585 1627 1121 881 401 302 225 148 188 129 0 1 2 0 62 211 420 193 74 72 53 64 80
745 962 931 971 1035 1302 1255 1444 1769 2170 2532 3125 3354 2907 2894 2988 3197 3882 3274 2691 2794 1400 1129 751 443 672 218 209 303 189 7 11 0 32 165 324 245 358 429 188 204 167 179
790 1107 1126 1309 1374 1376 1721 1559 1850 2019 2190 2602 2756 2825 2825 2997 3226 3346 2877 2917 1749 904 468 433 674 713 561 292 345 386 321 116 32 108 245 311 332 401 207 235 102 113 109
916 1228 1256 1570 1661 2055 2732 2687 1972 2073 2235 2331 2709 3233 2999 2822 2979 2890 1830 1332 815 401 117 286 332 173 447 640 622 349 427 205 70 220 324 492 506 406 384 294 317 323 212
946 1328 1502 2240 2758 2630 2686 2566 2382 2373 2379 2567 2653 3001 3146 3073 2775 2415 1479 1260 446 382 0 93 72 135 490 198 570 374 231 248 302 371 478 622 739 347 320 173 475 331 197
1052 1418 1698 1936 2359 2377 2566 2647 2642 2501 2637 2798 2872 2983 3274 3069 2810 2241 1201 1208 838 537 337 179 107 12 147 0 0 122 309 385 551 710 892 1004 873 538 203 60 12 51 119
1117 1314 1679 1863 2291 2389 2668 2647 2643 2609 2701 2921 2963 3095 3183 2849 2361 1728 1361 1266 1127 871 556 387 261 171 399 30 5 33 172 389 667 978 987 794 417 341 570 223 70 15 2
1146 1283 1410 1773 1965 1907 2039 2160 2339 2546 2684 2899 2915 2959 2817 2548 2163 1985 1343 1038 1115 1122 888 503 337 270 409 296 198 60 420 835 1084 966 770 631 501 537 500 465 256 173 186
1363 1377 1339 1576 1802 1538 1781 1916 2062 2289 2463 2655 2714 2644 2413 2201 1694 1541 1475 1393 1102 1013 853 749 643 608 716 488 330 211 585 852 992 703 545 430 662 249 112 64 112 157 145
1029 1181 1094 1365 1348 1319 1474 1778 1914 2244 2473 2615 2652 2549 2247 2207 1897 1691 1709 1467 1184 866 677 755 734 596 1297 579 400 167 670 1016 573 276 437 211 117 59 55 4 52 63 89
1176 1267 1210 1127 1351 1325 1546 1714 1903 2145 2341 2554 2650 2370 2147 2211 2352 1967 1726 1517 1079 987 1020 838 863 1043 469 926 354 70 591 299 376 393 975 388 56 32 9 0 0 22 0
976 910 1408 1750 1743 1782 2053 2280 2385 2544 2670 2714 2558 2084 2028 1777 1869 1799 1326 1048 1137 1202 990 1464 1482 1214 1365 682 618 145 91 108 497 1177 386 109 69 4 0 0 0 0 0
864 1007 1544 1943 2141 2347 2390 2625 3092 2726 2676 2128 2074 1874 1913 1444 1222 1281 1139 906 1178 1041 1078 1299 1180 1804 1067 204 102 18 7 62 527 393 110 29 0 0 0 0 0 0 0
1213 1245 1447 1878 2344 2389 2450 2750 2147 2234 2377 2121 2087 1644 1388 1497 1260 1115 1131 1199 1155 1033 1687 1391 801 539 776 292 93 71 66 37 29 22 0 0 0 0 0 0 0 1 4
1347 1280 1470 2065 2282 2262 2258 2062 1973 1846 1834 1726 1733 1617 1591 1144 1314 1158 976 965 628 386 547 457 273 214 1157 586 282 118 170 149 35 0 0 0 5 5 13 17 9 4 0
1889 1978 2016 2291 2359 2322 2236 2175 1815 1985 1854 1616 1384 1333 1402 1430 1328 740 480 235 130 16 6 40 226 160 278 143 45 38 39 7 0 0 0 1 3 3 7 8 2 0 0

GFSMW_con_mucape_009.txt.gz
CAPE
631 767 1022 1068 1050 1283 1644 2497 2688 3818 2727 1884 2624 2011 1556 1838 1463 1251 3169 2586 2278 2681 1964 2073 2139 1799 2145 1729 441 167 115 16 82 0 61 48 69 58 45 19 0 0 1
370 762 1076 1078 1089 1415 1985 3197 3447 4157 3580 2491 2811 2493 1768 1408 1069 1412 2504 2144 2821 2493 2448 2670 1567 1599 831 495 191 94 15 16 114 35 13 25 207 420 35 3 0 0 0
142 634 915 1113 1208 1505 2277 3219 4163 4317 4152 3641 3483 3089 3014 2196 2296 1781 2301 2194 2408 2183 2470 2213 2187 1462 503 0 266 134 29 7 61 205 23 21 59 139 119 37 2 0 0
235 400 923 1230 1180 1585 1900 3328 4159 4419 4279 4192 3078 3543 2153 1554 847 1099 1027 1884 2719 2164 2247 2300 1169 924 55 542 129 27 88 96 20 30 9 32 44 5 29 98 30 0 2
351 360 750 1082 1162 1354 1641 2768 4273 4552 4515 4302 3799 2562 2637 1340 1206 774 2379 2257 3333 1595 1393 1269 963 348 0 189 320 39 168 205 6 5 15 368 7 6 0 6 31 44 45
370 623 572 907 1067 1215 1526 2534 4302 4700 4650 4583 3883 4090 4059 2792 1404 1442 1486 1620 1409 1611 1425 955 1003 358 34 235 247 168 101 68 159 73 110 23 12 25 24 13 21 25 30
391 491 810 890 1402 1872 2173 2671 4189 4734 4653 4350 4329 4389 4408 4387 3721 2736 1844 2082 678 949 2587 1791 1420 653 475 356 254 218 196 75 39 86 50 182 37 26 21 23 23 36 57
662 289 577 1160 1884 1773 2556 2801 3707 4612 4710 4404 4611 4629 4634 2667 2278 2864 2057 1178 831 919 2825 1735 1309 810 342 410 335 51 13 191 46 12 434 11 48 56 31 38 106 109 65
588 514 373 630 1365 1633 2466 2883 3740 4310 4436 3615 4760 4763 4635 4468 2722 3297 3714 1995 2157 904 880 1505 1203 898 231 401 205 34 337 63 73 118 507 138 17 17 22 47 418 274 82
473 628 459 528 1037 1137 1800 2693 3396 4113 3847 4038 4279 4181 4383 4664 4472 4732 4276 3271 2594 2445 2066 1888 1389 817 759 878 538 444 377 215 41 4 317 512 33 32 32 124 72 53 38
326 684 604 553 733 872 1417 2009 2645 3579 3838 3938 3937 4138 3896 4054 4551 4433 4247 4223 3343 3271 2343 2432 1923 1007 813 759 941 500 174 413 621 521 173 380 688 103 19 26 41 17 57
197 582 724 636 740 1110 1054 1299 1635 1915 2942 3573 4228 4282 4308 4219 4103 4569 4569 4281 3780 3527 2689 2351 1862 1081 588 202 871 548 365 128 175 209 644 337 199 1205 1485 168 1236 582 316
96 480 703 862 1022 999 1360 982 1533 1299 1777 3082 3239 3972 3920 4309 4229 4576 4450 4455 4345 3692 2478 2362 2035 1102 1005 1051 1098 1050 579 324 392 338 753 572 1129 1280 602 1007 474 278 408
424 448 887 1362 1594 1790 1988 1748 1525 1133 1526 2113 2428 3565 4082 4124 4084 4527 4473 4552 4152 3932 2687 2284 1722 1313 1026 1019 939 978 936 1151 962 861 824 913 1013 1145 1285 1029 1444 1008 565
626 923 1210 2428 2792 2693 2774 2574 2070 2250 1988 2876 2907 3585 4381 4294 4316 4285 4631 4406 4157 3669 2501 2123 1427 1209 599 389 1089 668 490 933 842 649 566 891 1009 669 733 838 808 1253 465
49 1021 1389 1749 2932 3147 3510 3239 3038 3053 2867 3675 3580 4106 4720 4588 4581 4622 4695 4222 3631 3065 2265 1224 721 400 146 118 156 489 192 1133 1130 920 1275 1351 708 449 207 227 181 144 478
87 857 1352 1818 2549 2382 3453 3589 3770 3369 3641 4179 4500 4617 4993 4914 4916 4580 4139 3554 2716 2492 1810 986 615 486 595 440 328 202 273 738 1117 1487 1178 1086 793 344 437 464 250 175 88
211 435 1160 1896 2826 2354 2437 3151 3215 4225 4449 4621 4545 4804 4955 4924 4791 4212 3573 2786 2433 2257 1519 1049 925 823 733 476 294 217 294 791 907 1405 1710 1808 1554 1036 1019 814 418 556 949
175 624 1402 1910 3405 2974 3589 3800 3319 3849 3811 3845 4229 4402 4258 4152 3910 3305 3020 2480 2170 1978 1059 1167 973 949 1111 500 357 220 642 831 1511 1645 1642 1311 1373 682 294 274 192 214 361
156 1158 1656 2153 2699 3267 2756 3159 2927 3190 3384 3607 3637 4029 4083 3732 3242 3071 2962 2519 2472 1851 1196 1000 1076 1133 1316 624 315 280 438 778 1261 1428 1770 689 253 199 155 83 103 229 339
1345 1880 2111 2970 3269 3167 2584 3278 3055 2813 2740 2939 3027 3381 3270 3388 3170 2751 2881 2527 2297 1782 1440 1053 1435 1622 1508 1188 649 668 565 877 959 1224 989 768 285 82 50 34 40 93 20
1637 1759 2364 2710 2618 2911 3088 3299 3451 3609 3832 3647 3344 3322 3088 2798 2659 2586 2516 2258 1997 1630 1561 1840 1832 1423 1681 698 652 455 420 432 691 1132 984 963 458 113 49 0 0 0 0
1830 1731 1727 2590 2431 3105 3286 3675 4382 4112 3879 3706 3494 3119 2731 2481 2416 2725 2134 1464 1389 1184 1427 1098 1689 1736 1875 992 584 540 309 125 135 339 204 298 120 10 0 0 0 0 0
1696 1531 1751 2361 2769 3159 2903 3590 3411 3365 3356 2908 2548 2397 2642 2096 1676 1639 1271 1069 1246 1206 1523 1493 1509 1497 1234 997 221 36 6 4 33 48 175 11 0 0 0 0 0 0 2
1832 1960 1903 2183 2420 2677 2909 2583 2885 3062 2758 2934 2574 2465 1940 1608 1218 1050 1125 1137 1100 888 986 1202 1304 784 347 502 148 37 30 231 127 103 88 37 47 48 65 55 67 40 36
1541 2079 1920 2268 2558 2644 2649 2616 2567 2692 2441 2324 2078 1756 1523 1276 1142 1010 955 724 580 438 335 70 106 97 65 215 239 122 92 74 67 14 28 38 19 45 42 106 149 50 10

GFSMW_con_mucape_012.txt.gz
CAPE
439 712 794 828 942 1558 2302 2371 2519 3530 3639 3353 2316 2423 2645 2271 2184 2365 3042 2876 3110 3232 3021 3013 2431 2316 2053 882 962 1057 598 807 536 367 198 472 374 443 347 0 0 1 19
287 692 961 857 977 1612 1984 2710 2785 3784 3468 3258 2963 2420 2373 2426 1770 2342 2971 3328 3216 3685 2642 2717 2936 2207 2093 1783 1108 625 663 517 912 261 334 121 269 173 11 10 0 0 2
73 684 955 938 1189 1548 2269 2792 3190 3456 3271 3333 2869 3070 2732 3246 2748 2724 3277 3083 3397 2827 1899 2737 2535 2539 1312 1300 1307 966 671 339 960 370 400 348 135 357 225 110 0 0 0
107 486 927 1229 1233 1530 2250 2864 3264 3418 3641 3190 2980 2793 2161 2430 2292 2223 2291 2943 3128 3084 3279 3073 2881 2248 1263 1846 1239 847 386 1004 463 597 225 233 103 157 218 282 70 47 0
121 188 816 1161 1216 1591 2130 2650 3537 3631 3475 3455 3024 2944 2776 2057 2330 2030 3380 3040 3229 2962 2743 3084 2585 1758 777 1837 927 858 583 824 701 307 677 732 532 246 26 59 85 87 71
326 346 757 1087 1322 1517 2170 2228 3724 3822 3719 3953 3252 3668 2594 2308 2335 2335 2919 2773 2789 2570 2874 2266 2137 1686 911 1487 1082 938 725 496 862 608 785 555 294 71 236 128 55 51 101
516 540 715 1154 1424 1596 1967 2461 3591 3823 3847 4049 3712 3302 3558 2854 3314 4121 2904 2443 1945 2161 2603 2285 1879 1500 1250 1769 1304 1429 1062 728 554 1010 493 233 165 282 260 73 77 57 107
579 656 769 1066 1559 1545 2029 2455 3319 3730 4058 3701 4126 3742 3529 3528 3173 3250 2976 2743 2081 1701 1972 1854 1707 1843 1138 1161 1308 1068 450 748 636 234 622 509 413 317 88 169 205 44 56
716 548 1000 989 1600 1598 1952 2390 3482 3855 4118 4085 4152 4133 3861 3674 3372 3066 2999 3253 2385 2829 1762 1720 2108 1474 1266 1279 1496 440 486 820 1036 924 670 457 174 218 277 422 199 172 58
816 812 680 1206 1500 1735 1903 2471 3005 3860 4202 4173 4109 4062 4133 3678 3188 3223 3425 2469 2968 2328 2327 2116 1883 1536 1180 864 1108 395 910 572 635 501 686 598 360 417 387 128 140 228 125
264 736 790 838 1441 1833 1904 2306 2622 3652 4104 4117 4060 4067 4025 3984 3467 3889 3287 3529 2771 2495 2463 2168 1822 1597 1127 1119 914 601 388 569 541 477 604 507 820 487 336 669 420 178 160
173 444 963 801 1108 1478 1700 2162 2602 3178 3748 3899 3952 3977 4049 4016 3976 3434 3886 3328 3862 3017 2365 2265 2000 1646 752 1123 609 371 213 728 655 627 628 477 370 1010 934 915 629 677 827
484 549 719 920 991 1140 1517 1961 2337 2712 3470 3637 3665 3773 3813 3970 3893 4037 3448 4161 3578 3099 2320 2370 2038 1742 772 983 651 478 570 603 241 444 564 404 742 1215 979 924 770 560 574
872 1003 914 1269 1094 1232 1513 1770 2105 2324 2859 3254 3363 3516 3651 3748 3658 3868 4068 3745 3846 3278 3063 2362 2099 1875 928 757 552 737 820 723 437 831 736 676 651 1145 1156 927 1179 1055 942
1038 1178 1478 1963 1615 1734 1696 1632 1766 1843 2013 2768 3137 3447 3815 3728 3800 3767 4122 4015 3951 3870 3494 2930 2296 2041 1031 710 890 897 846 897 649 1245 806 839 1181 886 1058 1214 1011 1149 730
366 1322 1700 3064 3160 2180 1945 1717 1679 1706 1895 2238 2663 3077 3585 3951 3777 3976 3921 4231 4165 4220 3741 3141 2232 1909 1016 480 396 732 832 995 686 1001 1194 932 716 453 425 218 163 624 596
297 1413 1927 2156 2871 2881 2422 1949 1805 1977 1916 2565 2726 2918 3542 3947 4053 3976 4032 4279 4297 4194 3698 3328 2319 1834 1074 424 244 295 695 459 644 1384 1191 1067 545 964 1197 413 168 210 173
219 336 852 2102 2631 2877 2626 2659 2363 2573 2495 3667 3264 3485 4112 4296 4220 4221 4249 4432 4360 3985 3478 2717 2576 1892 1324 556 344 344 365 390 702 980 1305 1078 837 1165 1157 1065 1007 477 265
780 464 86 1889 2696 2942 2917 3407 3012 2748 3794 3365 4630 4128 5033 4793 4762 4742 4681 4495 3799 3069 3033 2637 2170 1547 1107 777 778 420 310 278 597 932 844 1033 1278 1147 820 690 722 311 604
122 549 331 2303 3358 3354 3200 3366 3692 3440 3233 4295 4442 5008 5021 4950 4888 4790 4364 3421 3431 3192 2731 1723 2080 1453 905 836 592 620 488 304 766 1099 981 577 803 842 731 365 367 370 390
382 1574 3051 2911 3519 3615 3516 3660 3819 3989 4020 4533 4546 4828 4917 4957 4833 4538 3296 3039 3335 2622 1701 1985 1573 923 747 1303 855 676 658 901 1025 925 891 1029 689 599 303 115 301 204 111
918 3037 3569 4082 4067 3948 4029 4174 4245 4439 4556 4489 4465 4626 4686 3833 3788 3384 2730 2749 2373 1953 1661 1647 1148 1344 1610 769 798 679 571 606 696 1171 906 701 707 528 419 56 44 6 0
2930 2691 3753 4123 4124 4552 4039 4149 4397 4092 4013 4029 4257 4217 3890 3473 3131 2771 2701 2439 2267 1829 1520 1664 1611 1929 1880 1193 715 643 479 406 406 508 433 210 87 220 139 41 0 0 0
3062 3123 3084 3414 3680 3859 4085 4327 4345 4222 4134 4104 3715 3270 2641 2544 2577 2375 2213 1847 1687 1499 1624 1814 2157 1805 1710 884 531 464 395 252 90 34 26 34 37 19 0 0 0 0 1
2821 3006 3139 3594 3959 4403 4034 4060 4243 4026 3253 2891 2647 2313 1882 2150 2111 2017 1482 1404 1078 1062 1901 1964 1693 1286 1174 1013 405 93 8 16 8 5 42 22 15 0 2 13 14 12 21
2497 2641 3122 3432 3445 3496 3587 3788 3882 3263 3053 2608 2247 1834 1952 2124 1700 1356 947 930 993 856 638 670 796 638 249 76 1 0 22 51 74 93 522 365 344 258 323 54 116 42 38

GFSMW_con_mucape_015.txt.gz
CAPE
175 424 410 458 685 1209 1073 1052 1461 1340 1171 1709 1367 1373 1556 1673 1112 1045 1066 1522 1386 1507 1496 1607 1351 1697 1183 641 483 139 0 0 0 0 9 16 32 9 15 11 10 4 2
92 311 382 384 674 1128 986 894 953 2284 1592 1518 1362 1390 1638 1608 1104 897 1640 1597 1481 1786 1528 1278 1311 1428 1192 595 140 4 0 0 30 0 0 24 25 39 14 7 3 7 0
102 222 264 370 404 832 1166 1129 913 2304 2032 1943 1395 1378 1623 1834 1870 1451 2207 1932 1944 1826 1189 1508 1370 1119 869 486 192 0 0 0 64 0 0 14 12 14 21 24 5 0 0
100 174 289 373 358 870 1322 1250 1403 2124 1976 1942 1576 1322 1109 1108 1331 1533 1518 2100 2178 1844 1306 1500 1444 1065 886 522 23 45 0 104 0 2 0 0 9 15 39 40 9 10 0
52 128 415 353 476 776 1040 1722 1577 1728 1961 2013 1498 1413 1308 1039 1284 1691 1613 2080 2204 1782 1717 1636 1545 939 372 266 118 29 13 91 115 32 60 4 0 5 1 30 34 43 19
50 125 308 449 437 890 1388 1825 1965 1914 2306 1720 1977 1689 1680 1601 1359 1070 1829 1951 1833 1570 1964 1613 1297 764 42 138 77 82 79 84 38 0 3 0 0 0 0 1 0 13 22
99 110 253 560 547 950 1354 1885 2040 2083 2381 2009 1652 2193 1990 1608 1303 1360 1899 1867 1679 1716 1954 1519 1105 943 28 190 117 113 82 84 23 67 0 15 0 0 0 0 0 0 11
124 151 239 442 714 809 1348 1959 2196 2053 2374 2499 2184 1591 2340 1719 1260 1416 2061 1680 1606 1506 1383 1073 853 667 43 601 276 213 94 99 22 54 9 0 0 0 0 0 0 0 0
63 243 149 377 700 781 1532 1648 2585 2421 2575 2602 2658 2236 1898 2269 2046 1963 2044 1814 1555 1669 1432 907 675 511 341 74 401 280 68 226 98 0 0 0 0 0 0 0 0 0 0
172 224 182 383 696 830 1344 1578 2519 2616 2718 2314 2911 2728 2354 2033 2053 2477 2092 2099 1443 1561 1240 1124 773 742 509 196 469 201 176 28 157 107 51 0 2 8 2 4 1 0 0
92 189 198 432 825 955 1300 1637 2171 2697 2828 2861 2612 2985 2767 2549 2101 2476 2538 1709 1853 1233 1167 1095 1062 710 530 371 445 249 107 153 19 58 0 98 6 19 2 51 1 0 2
62 225 327 392 980 1108 1130 1583 2578 2696 2917 3075 2941 2975 3015 2990 2618 2267 2293 2204 1700 1719 1448 1081 1271 1100 685 369 419 317 161 31 195 18 10 1 18 38 11 115 75 181 98
325 500 420 680 1112 1193 1138 1578 2215 2976 3088 3269 3230 3080 2928 3178 3068 2580 2383 2611 2345 1859 1616 1499 1155 1090 849 526 423 327 176 137 68 162 30 17 1 3 82 84 110 175 88
10 351 552 759 1005 1324 1283 1406 1916 2791 3191 3418 3326 3176 3019 2990 3085 3042 2393 2594 2994 2541 1945 1514 1327 1170 964 730 485 406 303 98 224 236 269 198 10 13 336 236 264 174 241
65 303 670 561 988 1342 1399 1460 1761 2007 2965 3191 3285 3087 3075 3084 3147 3072 3158 2641 2671 3075 2678 2309 1908 1561 1237 947 762 534 317 239 331 280 237 107 111 142 207 311 184 337 339
530 723 790 686 746 1035 1286 1502 1664 1974 2327 2939 3061 2990 2960 3067 3125 3226 3186 3366 3046 2947 2996 2653 2287 1951 1681 1535 1313 1003 469 504 517 337 509 363 313 436 581 483 415 373 364
416 557 739 817 738 852 1050 1337 1664 1773 2084 2498 2853 2881 2803 3023 3066 3174 3145 3371 3483 3325 3399 3222 2934 2422 2210 1891 1620 1470 733 529 510 508 517 657 410 229 258 238 370 397 234
90 559 805 2051 1140 1140 1043 1311 1486 1802 1925 2051 2598 2705 2821 2811 3153 3178 3297 3218 3589 3499 3549 3400 3257 2920 2852 2579 2188 1733 1148 563 523 462 586 525 491 289 641 624 640 434 229
41 0 762 1082 2380 1558 1296 1228 1312 1616 1734 1773 1967 2427 2580 2925 3109 3347 3298 3394 3526 3664 3500 3312 3009 3010 2956 2385 1979 1408 886 583 404 226 414 560 463 452 493 443 476 418 452
0 0 0 652 1561 2334 1880 1510 1337 1474 1461 1466 1995 2215 2387 2894 3346 3423 3429 3670 3698 3570 3367 3418 3232 2869 2156 1525 1098 691 505 315 355 345 248 345 418 480 353 212 219 185 158
24 0 211 1332 1661 2226 2327 2098 1759 1512 1996 1467 3575 2811 3391 3826 3703 3890 3920 3815 3238 3314 3206 3150 2802 2057 1472 1182 667 413 653 714 578 371 340 266 298 442 366 314 246 191 205
1853 302 1488 1616 2296 2433 2709 2760 2329 2466 2825 3769 4114 4422 4456 4349 4281 4149 3614 3139 3142 2746 2789 2115 1455 1272 782 600 611 752 799 840 532 326 376 381 515 266 384 430 102 69 27
3312 3467 3269 3436 3553 3100 3127 3477 3877 3773 3769 3939 4100 4245 4350 4325 4241 3785 2807 2818 2628 1835 1677 1521 1327 869 925 816 754 769 702 656 514 505 354 338 311 318 293 207 60 2 0
2994 3112 3350 3569 3583 3653 3690 3742 3677 3680 3681 3712 3748 3726 3668 3622 3181 2869 2662 2243 1715 1529 1336 1321 979 1030 760 705 764 662 610 628 382 415 323 117 23 38 50 25 0 0 0
2719 2793 3118 3326 3380 3439 3407 3363 3429 3458 3475 3401 3321 3298 3172 2991 2375 1833 1758 1695 1446 1163 1073 1162 1127 885 848 886 627 194 267 481 327 173 34 23 9 0 0 0 1 11 7
2489 3198 3275 3353 3372 3352 3354 3335 3153 3145 2929 2767 2707 2702 2483 2112 1816 1795 1646 1390 1242 913 1024 1271 796 903 890 675 125 0 0 0 0 0 22 33 7 0 49 68 34 6 13

GFSMW_con_mucape_018.txt.gz
CAPE
609 546 488 341 505 674 822 994 863 819 861 1004 1426 999 668 792 992 1075 884 1485 1479 1458 941 888 1290 1193 1045 620 401 86 0 0 0 0 0 20 17 17 17 18 567 236 535
382 471 451 451 485 645 949 1001 868 727 753 1006 1037 949 726 852 970 1092 906 884 1020 1233 1007 1051 1153 1184 1099 641 442 9 0 0 0 0 0 3 19 2 19 22 41 197 235
315 338 381 428 457 742 849 920 938 833 925 1016 944 947 892 1309 1416 1355 957 1067 1034 1145 1248 1357 931 942 1124 889 280 17 0 0 30 0 0 0 0 23 15 12 11 4 6
129 187 354 300 445 608 776 744 1124 1088 1065 1123 1006 1004 777 1205 1402 1468 1227 1529 1304 1219 1402 903 1012 803 804 629 448 0 1 3 4 0 0 0 0 1 0 5 0 0 0
69 40 212 305 284 545 621 683 866 1450 1357 1244 1116 1008 873 1043 1064 1115 1282 1577 1594 1407 1323 1019 1001 857 741 600 207 29 3 33 0 0 1 0 0 0 0 0 0 0 0
69 6 105 194 256 369 692 637 562 1582 1642 1473 1281 1122 1016 898 722 759 1210 1428 1712 1671 1311 1172 1218 886 662 257 23 1 0 57 69 6 37 0 0 0 0 0 0 0 0
72 10 30 128 164 254 645 846 768 796 1598 1606 1496 1398 1203 1091 837 607 876 1317 1745 1690 1424 1283 1324 958 704 366 47 24 17 1 27 0 0 0 0 0 0 0 0 0 0
101 43 29 142 139 270 689 1148 1007 897 1385 1572 1495 1403 1306 1113 959 801 851 1354 1427 1514 1320 1349 1146 990 730 517 56 43 25 26 2 2 6 0 0 0 0 0 0 0 0
117 12 11 97 207 274 789 1097 1315 1163 1468 1461 1465 1520 1414 1199 1144 1253 1414 1582 1471 1342 1287 1326 1381 1184 854 364 132 130 59 74 28 0 5 0 0 0 0 0 0 0 0
103 14 15 135 298 270 785 1148 1492 1411 1610 1758 1510 1421 1571 1654 1472 1512 1291 1513 1611 1477 1208 1431 1561 1041 729 428 284 165 164 78 80 21 0 0 0 0 0 0 0 0 0
187 94 103 143 242 395 798 1326 1531 1486 1712 1944 1875 1728 1443 1364 1826 1798 1599 1530 1632 1538 1349 1281 1196 912 679 575 507 282 182 129 9 51 24 0 0 0 1 3 7 9 7
259 156 153 212 183 563 829 1270 1794 1682 1745 2007 2061 2047 1984 1741 1552 1643 1893 1976 1899 1554 1410 1454 1339 951 797 700 597 391 200 141 18 0 65 23 0 16 9 9 13 11 13
253 70 70 129 341 589 747 1288 1689 2002 2010 2111 2126 2397 2297 2196 2016 1737 1664 1883 2043 1746 1491 1485 1219 1108 960 822 700 484 310 171 99 44 4 0 0 3 43 17 17 49 81
127 70 81 176 377 667 777 1268 1464 2165 2237 2363 2239 2317 2544 2414 2356 2180 1933 1845 1894 2139 1694 1549 1502 1445 1289 1180 1067 915 768 525 242 13 77 35 1 12 5 52 14 70 118
45 46 15 203 427 812 882 1177 1567 1963 2309 2442 2596 2449 2553 2640 2590 2523 2271 2019 2012 1990 2038 1646 1591 1525 1403 1363 1302 1205 1037 739 595 352 107 126 99 58 54 27 42 157 164
86 4 77 277 345 822 1001 1095 1437 2207 2380 2614 2666 2770 2709 2648 2656 2783 2720 2453 2177 2426 2359 2158 1921 1779 1740 1739 1691 1642 1415 1117 1006 656 273 145 200 233 238 18 32 130 250
7 2 217 299 491 845 1044 1105 1507 2044 2606 2683 2879 2919 2879 2809 2744 2725 2813 2910 2772 2539 2668 2884 3031 2868 2612 2407 2188 1916 1778 1525 1389 1241 424 231 297 335 331 226 265 451 300
9 164 354 461 680 873 1108 1199 1404 1820 2533 2698 2852 3045 2925 2864 2822 2857 2903 2893 3008 2965 2823 2640 2797 2933 2850 2505 2659 2294 2478 2463 1792 1470 572 332 417 504 466 336 213 260 118
0 6 602 506 604 857 1139 1242 1376 1765 1975 2500 2686 2896 2872 2764 2844 2822 2927 2958 3053 3136 3143 3200 3163 2974 2624 2476 3038 2840 2637 2001 1589 1028 444 537 536 514 318 281 305 203 222
0 37 256 1085 800 829 861 1114 1326 1596 1861 2062 2461 2717 2749 2702 2767 2875 2892 2959 3038 3118 3228 3346 3391 3081 2614 2729 2899 2801 1974 1300 662 397 537 453 279 336 270 354 318 136 49
0 0 0 581 1517 978 794 871 1072 1346 1652 1942 2042 2426 2654 2668 2674 2902 2956 3075 3070 3197 3232 3330 3397 2918 3161 3367 2331 1468 976 652 282 277 467 428 399 350 280 283 158 81 131
374 0 0 0 238 1482 1234 1037 977 1098 1432 1630 1787 1898 2391 2474 2680 2998 3087 3127 3177 3225 3115 2721 2740 3126 2641 1876 1007 760 380 317 521 967 569 301 221 234 157 197 172 155 139
1947 2052 239 0 37 961 1465 1257 1209 1163 1313 1432 1687 1857 2087 2588 2987 3037 3118 3184 3209 2905 2476 2282 2315 2021 1359 773 544 525 553 616 789 861 580 290 257 145 85 147 195 58 24
2896 2986 2814 2461 2418 1908 1850 1549 1514 1931 1995 2236 3191 3216 2965 2918 3013 3035 2992 3098 2980 2647 2415 2147 1299 991 793 696 662 616 672 697 691 593 429 332 119 21 12 50 19 10 0
2754 3107 3301 3204 3040 3118 3076 3001 2524 3235 3165 2996 2832 2959 2928 3067 3110 3143 3109 2467 2281 2068 1745 1180 937 899 765 731 688 634 539 492 555 553 326 127 25 6 6 0 0 0 0
1583 1916 1994 2461 2352 2838 3110 3245 2963 2725 2954 3157 2857 2695 3255 3158 3074 2359 1370 1272 1173 1268 970 848 876 877 787 691 595 184 24 186 347 254 84 0 0 0 0 0 0 0 4

GFSMW_con_mucape_024.txt.gz
CAPE
231 207 213 252 259 291 400 472 565 607 582 394 398 441 469 791 1003 678 427 580 674 872 883 896 835 690 603 764 664 455 93 0 0 0 0 5 12 38 17 160 375 667 676
345 277 326 205 188 271 352 447 491 576 625 450 467 550 586 775 848 524 680 737 734 830 875 932 841 741 640 832 592 317 105 0 0 0 0 0 0 12 12 153 159 216 357
455 378 371 349 223 139 294 375 469 521 603 524 492 634 688 625 591 765 683 683 785 895 850 823 910 785 851 925 687 365 116 0 0 0 0 0 0 0 2 17 37 58 70
491 393 371 370 395 250 182 299 359 454 527 565 472 534 574 533 526 772 683 733 731 852 879 999 1036 773 949 867 675 588 194 0 0 0 0 0 0 0 0 0 33 20 24
511 489 398 335 371 449 289 236 306 383 410 523 513 461 556 593 560 594 503 468 717 682 1021 1160 1090 886 945 767 565 658 335 0 0 0 0 0 0 0 0 0 0 0 0
438 464 427 353 315 450 474 343 303 339 389 438 522 398 400 407 465 456 464 424 638 774 789 771 829 908 1004 549 676 771 311 0 0 0 0 0 0 0 0 0 0 0 0
411 354 351 280 304 405 439 413 361 392 408 421 435 448 354 386 329 359 494 555 802 1019 936 899 971 1005 1099 766 578 407 158 0 0 0 0 0 0 0 0 0 0 0 0
269 353 346 262 182 278 375 365 383 411 442 425 404 425 449 404 478 486 444 555 807 1056 1140 1235 1222 1093 1173 936 727 304 90 0 0 0 0 0 0 0 0 0 0 0 0
1 98 223 282 145 135 199 315 411 433 474 490 460 415 495 449 534 639 614 567 684 910 971 1088 1250 1182 1261 1073 836 434 344 7 1 0 0 0 0 0 0 0 0 0 0
0 1 9 63 100 90 133 251 388 406 487 565 550 529 526 518 524 664 784 719 674 820 936 1077 1293 1311 1375 1209 1061 708 603 120 14 9 0 0 0 0 0 0 0 0 0
0 0 1 6 14 32 69 201 359 421 440 745 753 759 712 637 608 663 775 825 776 804 877 1027 1223 1266 1390 1344 1225 894 800 354 12 11 0 0 0 0 0 0 0 0 0
0 0 0 2 11 13 17 74 335 395 420 851 969 963 895 792 730 703 748 816 857 933 959 889 1130 1117 1263 1458 1222 1051 1005 611 256 148 0 0 0 0 0 0 0 1 0
0 2 0 0 0 4 25 35 212 456 438 504 1019 1036 986 901 844 796 781 840 941 1006 987 841 1090 1249 1363 1403 1274 1099 1216 926 591 567 445 155 34 4 6 0 0 0 1
0 0 0 0 0 0 57 62 159 384 560 557 794 1014 1059 1016 1026 962 940 896 979 1030 1072 1085 1361 1474 1522 1464 1402 1202 1403 1229 870 792 737 619 430 230 93 18 0 0 11
0 0 0 1 18 0 62 145 214 395 658 722 761 994 1055 1089 1138 1216 1174 1107 1043 1084 1151 1006 1162 1324 1325 1458 1494 1354 1432 1348 1160 1004 976 1017 795 414 364 65 8 0 2
0 0 0 14 131 101 181 272 348 611 778 922 940 1066 1204 1183 1151 1135 1281 1309 1306 1275 1245 1262 1098 1375 1431 1305 1427 1634 1653 1489 1518 1545 1474 1359 1207 886 516 149 51 0 9
0 0 0 25 141 249 310 414 476 735 933 1089 1177 1296 1399 1442 1418 1366 1244 1225 1238 1345 1397 1410 1335 1281 1496 1616 1559 1583 1672 1672 1656 1678 1660 1688 1432 1098 869 551 375 32 81
0 0 0 0 56 325 401 447 442 843 1140 1217 1270 1475 1603 1666 1663 1675 1573 1458 1363 1296 1339 1405 1478 1382 1368 1477 1575 1647 1777 1832 1786 1753 2011 1924 1564 1457 1234 1015 422 29 107
0 0 0 0 0 98 416 485 467 856 1194 1436 1420 1548 1739 1808 1838 1881 1877 1839 1723 1546 1516 1495 1569 1616 1529 1499 1518 1566 1950 2041 1971 2407 2600 2257 1889 1468 1154 796 257 36 118
0 0 0 0 0 0 17 297 542 862 1087 1584 1702 1759 1847 1829 1926 2035 2090 2060 2004 1841 1730 1656 1723 1816 1823 1672 1710 1744 1973 2087 2431 2843 2841 2291 1682 1200 650 353 296 327 283
0 0 0 0 0 0 42 344 478 783 1118 1409 1793 1968 2067 2052 1964 2090 2276 2324 2350 2164 1870 1825 1813 1972 2036 1915 1868 2049 2267 2501 2784 2592 2571 1911 1455 687 371 363 282 179 78
1891 939 0 0 0 170 128 436 637 814 1030 1435 1775 1982 2202 2320 2323 2207 2286 2285 2439 2415 2140 1937 2372 2044 2223 2251 2180 2412 2643 2787 2682 2682 1887 1506 579 186 66 42 57 42 60
1949 1686 1507 1625 1538 570 378 636 850 864 922 1202 1773 2148 2258 2445 2433 2469 2405 2407 2425 2434 2301 2259 3117 2967 2493 2303 2504 2734 2660 2537 2603 2087 1162 267 80 78 74 47 17 1 2
812 771 845 1384 1578 1708 2107 1853 1715 1519 892 1024 1398 1839 2339 2479 2614 2471 2483 2479 2477 2306 2452 2229 2702 2900 2480 2298 2694 2568 2068 1790 1669 719 204 274 311 172 28 12 0 0 6
655 628 597 585 499 417 405 395 844 1827 2469 1644 1030 1472 2023 2380 2574 2500 2379 2356 2470 2555 2551 2421 2368 2213 1635 1630 1806 1147 1191 1349 475 232 308 383 369 36 0 0 0 0 1
328 385 395 236 58 16 20 38 89 228 2015 2566 2005 1520 1762 2168 2388 2394 2290 2490 2620 2601 2539 2306 1736 843 31 209 182 298 419 337 211 359 423 314 116 0 0 0 0 0 0

GFSMW_con_mucape_027.txt.gz
CAPE
507 483 448 547 603 732 905 1072 1147 1311 1066 929 787 622 477 432 730 1104 1300 1413 1656 1861 2150 1877 2135 1875 1654 1736 1685 1038 612 54 33 0 68 34 59 47 101 697 500 1068 1026
645 591 559 583 656 780 1029 1389 1454 1647 1471 1132 1178 720 766 513 1189 1649 1767 1705 1753 2013 2117 2140 2056 1910 1582 1815 1611 997 240 38 55 24 53 13 44 17 8 500 395 752 310
779 680 581 537 685 861 1179 1525 1911 2078 1805 1724 1197 1042 1061 1248 1441 1636 1668 1690 1958 2121 2221 2222 2043 2031 1900 1716 1724 937 419 54 161 60 52 16 1 62 0 221 266 450 174
835 772 690 604 594 1097 1041 1616 1766 2097 1674 2058 1614 1813 1117 873 1117 1501 1642 1768 1932 2070 2164 2262 2025 2113 1846 1948 1705 819 420 131 95 40 4 66 232 0 0 0 130 118 85
894 858 804 863 763 751 795 1268 1882 2052 2095 2178 2041 1704 1791 1213 1294 1335 1993 2708 2193 2038 2042 2238 2176 2213 2044 2015 1560 782 503 240 39 80 1 0 0 0 0 2 0 30 22
906 939 896 897 793 679 549 901 1704 1891 2065 1992 2069 2302 2307 1903 1381 1459 1402 1409 1546 1645 1996 2186 2444 2461 2142 2130 1782 1103 752 376 134 174 119 3 0 0 0 1 0 0 0
938 974 976 918 1141 1140 1085 984 1549 1744 1913 1910 1970 2104 2208 2382 2282 2071 1503 1724 1379 1418 1952 2154 2257 2151 2176 2004 1688 1290 780 550 282 393 199 169 37 0 0 0 0 0 0
778 954 1269 1381 1372 1245 1242 1157 1383 1628 1785 1766 1920 2054 2170 1763 1861 1921 1440 1398 1357 1481 2016 2238 2257 2198 2063 1778 1395 1197 829 416 453 421 216 193 183 69 0 0 0 0 0
721 754 1100 1336 1313 1393 1234 1334 1452 1656 1707 1666 1762 1827 1956 1950 1825 2033 2140 1468 2137 1486 1925 2290 2386 2372 2083 1796 1374 938 725 364 422 365 314 152 142 121 16 0 0 0 0
411 667 989 1110 1162 1051 1311 1254 1439 1659 1761 1754 1716 1622 1736 1863 1908 2007 2010 2020 2149 2156 1951 2323 2423 2396 2146 1848 1574 1237 783 535 341 220 322 275 117 94 91 43 11 0 4
55 190 736 1142 1200 842 1068 1191 1422 1687 1821 1827 1812 1766 1727 1754 1900 1921 2001 2089 2255 2320 2319 2321 2303 2305 2183 1860 1684 1540 1022 712 688 340 360 367 316 94 67 39 18 13 0
98 101 170 431 660 1135 986 1194 1325 1550 1746 1832 1931 1888 1912 1872 1832 1903 1973 2081 2215 2194 2522 2465 2357 2231 2190 2003 1736 1659 1203 949 851 639 434 387 131 217 148 44 131 41 16
27 132 92 376 672 948 1087 1018 1125 1161 1282 1793 1866 2006 2031 1928 1910 1941 2036 2141 2196 2253 2047 2418 2577 2267 2091 2076 1825 1814 1641 1154 1076 829 602 512 393 214 40 72 15 13 112
60 185 132 653 652 806 1030 1103 1158 1108 1268 1489 1806 2050 2105 2066 2012 2052 2140 2157 2279 2267 2364 2514 2665 2430 2082 2043 1831 1792 1822 1538 1269 1032 773 636 573 496 370 184 223 168 146
0 1 134 726 991 1021 1132 1063 1137 1405 1441 1713 1769 2090 2239 2292 2302 2222 2225 2262 2374 2269 2396 2489 2587 2460 2049 1777 1922 1827 1838 1725 1523 1324 1093 872 797 784 789 652 447 619 359
0 0 353 424 633 1040 1128 1108 1207 1331 1613 1786 1720 1991 2390 2452 2398 2374 2354 2386 2385 2354 2488 2532 2589 2592 2054 1457 1260 1567 1905 1787 1989 1824 1427 1207 1144 1151 1051 919 550 607 693
0 0 196 461 658 652 1105 1047 1203 1204 1619 1861 1931 2051 2299 2461 2474 2435 2483 2427 2474 2417 2484 2466 2545 2610 2617 1317 1196 1175 2062 1881 2138 2043 1877 1511 1510 1532 1448 1156 808 496 184
0 0 0 15 861 381 319 984 1226 1558 1723 1931 2138 2110 2112 2367 2458 2548 2539 2594 2571 2560 2567 2531 2539 2594 2555 1428 1115 1210 1862 2260 2243 2076 1907 1683 1637 1630 1715 1272 1104 802 595
0 0 0 0 606 738 883 1181 1389 1701 1909 2010 2208 2260 2182 2413 2536 2513 2543 2551 2623 2711 2733 2683 2713 2641 2711 1487 1303 1175 1571 2205 2247 2136 1875 1669 1705 1630 1596 1345 1212 1026 941
0 0 0 0 1 496 389 991 1216 1632 2025 2154 2263 2308 2554 2591 2656 2715 2746 2690 2633 2676 2645 2802 2802 2273 2777 1634 1373 1338 1926 2186 1967 2069 1804 1831 1833 2306 2159 1630 1264 1107 856
0 0 0 0 29 46 315 1289 1452 1793 2012 1858 2055 2617 2852 2908 2785 2529 2857 3106 2989 2901 2893 2855 2831 2783 2311 2517 1475 1514 2086 2172 2000 1910 1436 1890 1985 2549 2258 1489 1281 1052 988
1398 0 0 38 555 680 750 1564 2182 1998 2107 2249 2682 3203 3207 2873 2661 3042 2753 3285 2884 3136 3300 3133 2612 2594 2888 1806 1730 1632 1704 1663 2043 1389 1479 1841 2522 2541 1927 1414 752 552 210
1809 1205 967 1232 1185 1337 1528 1788 1786 1796 2120 2588 3149 3340 3403 3381 3384 3446 3417 2740 2419 2513 2796 2429 2584 2454 2071 2164 1757 1894 1908 1927 1683 1655 1778 2348 2461 2369 1501 747 304 135 201
1373 1128 1198 1408 1569 1506 1797 2035 2386 2404 2247 2781 3019 3282 3555 3636 3720 3382 3267 3028 2507 2344 2094 2338 2443 2186 2143 1919 2137 1820 2048 1967 1800 2100 2031 2128 1866 1253 403 144 125 194 226
438 369 376 425 360 464 388 229 355 2150 3073 2368 2333 2714 2910 2988 3598 3652 3461 3060 2779 2748 2752 2975 2425 2378 2102 1996 1970 2130 1825 1879 1563 1652 1510 1318 762 187 125 124 85 82 0
269 242 223 255 226 295 329 267 266 197 1056 1793 2111 2014 2155 2563 3125 3325 2747 2711 2606 2481 2322 2528 2470 2297 1965 1750 1475 1984 1096 228 3 198 499 310 124 153 179 30 0 0 0

GFSMW_con_mucape_030.txt.gz
CAPE
843 701 744 787 898 1066 1250 1373 1430 1829 1695 1602 1374 1048 590 379 287 425 782 1310 1939 2271 2720 2203 1964 2158 1633 1536 1387 1247 1089 226 131 3 27 46 51 54 51 54 53 56 57
927 792 765 797 797 1025 1221 1603 1602 2092 2039 1629 1728 901 585 321 342 552 1237 1932 2149 2544 2654 2738 2092 2072 1721 1985 1903 1449 627 228 2 22 38 43 38 31 47 46 36 23 24
986 920 740 741 747 958 1247 1705 2099 2336 2204 2216 1600 1204 755 618 629 932 1737 2324 2504 2523 2890 2515 1792 2301 2338 1833 2165 1792 1161 139 21 156 118 18 30 30 18 122 44 34 27
1180 1084 863 843 806 1015 1247 1675 2372 2408 2480 2375 2170 2674 992 657 662 1134 1525 1788 2292 2420 2524 2570 2486 2862 2091 2012 2639 1821 1242 1153 12 54 4 253 546 26 39 12 36 19 27
1190 1252 1072 891 942 1011 1183 1499 2473 3190 3191 2974 2882 2084 2123 930 704 852 2667 3344 2636 2425 2170 2592 2836 2852 2643 2336 2610 2033 1887 1062 54 1 0 16 0 58 14 46 34 74 27
1140 1253 1312 1090 968 1056 1245 1418 2832 3255 3271 2926 2526 3228 3362 2578 1229 1722 1467 1510 1655 2036 2375 2400 2881 2912 2707 2640 2716 2470 1931 1611 515 16 80 0 0 0 5 5 18 36 88
1048 1215 1403 1415 1184 1100 1284 1417 2426 2974 3100 2486 2805 2781 3148 3312 3135 2721 1892 2260 1339 1204 2735 2650 2779 2667 3118 2732 2771 2779 2041 1975 1208 566 92 61 25 0 0 0 1 4 13
1061 1169 1379 1540 1583 1398 1737 1678 2429 2929 2697 2554 3586 3695 3809 2356 2419 2813 1913 1764 1455 1621 1759 2305 2509 2660 2674 2881 2769 2649 2256 1739 1551 876 494 58 104 98 16 0 0 1 0
1048 1242 1312 1481 1693 1870 2404 2520 2899 3420 2990 2477 3596 3910 3667 3487 2300 3333 3196 2102 2851 1737 1832 1992 2521 2496 2683 2794 2892 2525 2378 1488 1526 851 830 307 46 134 65 37 1 0 1
955 1171 1318 1392 1595 1765 1888 2321 2876 3152 3256 2791 3018 2962 3316 3751 3570 3724 3772 3336 2836 2787 2282 2181 2333 2466 2710 3006 3067 2545 2394 2051 1370 771 540 754 68 108 115 59 14 2 0
718 903 1044 1208 1416 1649 1873 1995 2274 2835 2903 3003 3244 3171 2857 3023 3321 3482 3680 3756 3082 3571 3013 3072 2550 2399 2801 3062 3194 3077 2413 2358 1929 1362 729 873 738 94 48 86 84 63 36
76 187 545 875 1152 1478 1677 1941 1960 2028 2464 2874 3360 3408 3443 3308 3041 3425 3498 3710 3723 3456 3790 3340 3251 2792 2659 2986 3010 3008 2399 2489 2232 1981 1515 889 588 783 359 132 998 368 203
14 108 142 342 884 1244 1556 1519 1839 1785 1885 2743 2496 2723 3006 2878 3407 3640 3522 3691 3779 3844 2722 3498 3946 3357 3026 3288 3016 2919 2978 2625 2557 2289 2047 1490 765 852 485 389 235 116 146
0 0 37 190 517 1166 2163 2340 1487 1622 1655 1942 2199 2981 3397 3367 3377 3631 3635 3695 3824 3900 3854 3700 4175 3794 3190 2984 2699 2720 2940 2997 2637 2590 2331 1922 1416 1005 931 545 523 319 164
0 0 362 530 1037 1337 2004 2512 1820 2011 1880 2602 2324 3051 3466 3647 3655 3701 3699 3705 3909 3798 3987 3954 4050 4097 3123 2551 3566 3408 3076 3428 2937 2739 2589 2282 1720 909 936 865 981 1382 621
0 0 0 199 714 1254 1624 1883 2635 2182 2057 2834 2840 3120 3641 3886 3808 3817 3804 3933 3892 3910 3974 3903 4053 4080 3067 1998 1807 2615 3219 3733 3771 3240 2791 2536 1406 1057 842 888 942 894 1274
0 0 0 17 594 1028 1367 1491 2454 2020 2485 2880 3204 3382 3754 3895 3949 3989 4034 3969 3915 3973 4032 3987 4011 4151 4043 2025 1711 1660 2947 3607 3635 3449 3220 2739 2310 1511 1471 1172 1195 1066 939
0 0 0 0 82 437 123 1124 1361 2672 2860 3123 3304 3555 3732 3928 4155 4188 4113 4086 4041 3974 4092 4037 4095 4145 4075 2592 1824 1523 2767 3683 3765 3584 3556 3885 3506 2435 1812 1709 1510 1386 1308
0 0 0 0 0 0 155 359 1326 1876 2600 3156 3389 3557 3670 3410 3551 4120 4098 4067 3845 3665 3693 3554 4120 4375 4226 2707 2318 1735 2572 2936 3985 3671 3512 3594 3550 2621 1740 1878 1923 1715 1453
0 0 0 0 0 127 224 622 1151 1554 2588 3008 3277 3476 3786 3781 3705 4092 4230 4088 3938 3556 3107 3511 3910 3417 4265 3137 2410 2069 2261 2849 2715 3804 3971 2227 2889 2390 1844 1580 1815 2004 1783
0 0 0 0 37 419 644 1056 1290 1677 2423 2349 2415 3367 3875 4040 4038 4341 4302 4240 4067 3624 4045 3715 3696 4075 3877 3799 2662 2107 2631 2757 2788 2551 2831 2827 1994 1876 1690 1586 1680 1867 1884
669 1172 332 0 16 640 630 1193 2941 2489 2985 3083 3084 3874 3994 3208 3073 4433 4496 4176 4167 4127 3978 3379 3552 3703 4106 2781 2716 2474 1923 2176 3010 2968 2454 2672 1869 1358 1310 1567 1720 1451 1236
1275 1690 13 243 1386 1904 1567 1639 2737 2643 2702 2999 3669 3715 3817 3855 4197 4487 4536 3738 4238 3371 3369 2907 3468 3176 3682 3713 2520 2373 2193 1771 2005 2522 2339 1830 1433 1130 1415 1629 1819 1361 1072
2440 2084 1387 1305 1988 2517 2625 2869 2875 2719 2767 2875 3131 3239 3500 3483 3475 3295 3545 3284 3098 3598 3207 3560 3712 3414 3448 3475 3140 2240 2006 1888 1499 1707 1763 1467 1176 1233 1729 1845 1406 1100 719
1290 1451 1791 1899 1864 1976 2011 2185 2719 3430 2926 3120 3231 3353 3301 3469 3626 3853 3376 3266 3635 3205 3428 3503 3170 3090 3100 3306 2848 2103 1942 1833 1623 1505 1575 1018 1265 1342 1181 1007 924 410 549
1002 976 963 1041 1162 1093 1147 1228 1225 1326 1848 2398 2539 2400 2498 2802 3219 3300 3737 2780 2939 2953 2857 2805 2427 2201 2342 2585 2486 2134 1874 1739 1725 1580 919 866 431 452 554 528 200 320 221

GFSMW_con_mucape_033.txt.gz
CAPE
661 649 711 624 576 658 886 1868 1960 2830 2158 1653 1410 1267 818 890 350 288 909 1117 1398 2003 2487 2324 2759 1864 2488 1684 1351 1306 914 688 25 11 27 42 26 32 41 54 54 47 62
890 618 669 542 553 993 1745 2552 2813 3513 2966 1970 2285 1523 1531 418 251 205 1481 1190 1616 2150 2557 2953 2358 2226 1648 1886 1936 1420 1253 37 0 182 39 38 30 37 45 34 22 31 20
1117 850 654 590 589 1158 2049 2590 3218 3524 3159 2930 2569 2345 1649 1281 389 457 629 1455 1989 2232 3457 2545 2250 2464 2560 3146 2250 1603 1042 265 0 413 273 191 99 18 1 17 36 5 15
1153 1109 686 648 617 1045 1520 2755 3397 3571 3383 3477 2262 2604 1175 625 406 653 533 1423 2762 2280 2473 2477 2032 2848 2162 2768 2244 1784 1605 1262 60 0 21 602 652 452 124 45 24 20 14
1154 1176 1009 678 643 851 1107 1975 3512 3768 3534 3464 3256 2158 2075 640 470 484 1862 2456 3676 2594 2041 3206 2890 3157 2774 3384 2420 2358 2162 1094 529 0 0 0 0 0 118 181 263 20 21
1039 1241 1240 911 632 677 931 1967 3500 4094 4069 4080 3645 4043 2723 2229 815 907 977 1214 1381 2328 3464 2722 3743 3848 3516 2553 2756 2856 2406 2096 898 194 49 23 41 65 44 17 442 272 307
814 1186 1330 1186 1092 1134 1431 1991 3283 4039 4171 4198 3790 3676 4049 3743 4044 3087 1079 1563 1146 1012 2948 3754 3646 2877 3868 3103 3534 3892 2783 2338 1810 1326 122 47 64 12 0 0 2 2 29
812 1119 1329 1454 1609 1639 2075 2248 3171 4022 4154 3999 4109 4011 4292 2773 2367 2769 1536 1275 1167 1141 2760 3858 3465 3433 3530 3310 4009 3024 2711 2842 1998 1412 1375 187 114 102 82 35 0 20 1
623 931 1279 1489 1998 1884 2412 2567 3137 3788 4039 3666 4080 4260 4188 4034 3007 3303 3564 2521 2690 1331 2928 3542 3601 3579 3578 3862 4082 2681 3537 3026 2374 2098 1701 704 49 104 89 31 0 0 19
410 867 1173 1416 2002 1792 2254 2678 3004 3598 3841 3477 3820 3960 4210 4301 4018 4118 4237 3249 3415 3617 3627 3149 3271 3471 3765 3927 4317 3227 3633 3546 1986 1008 2194 1899 128 154 94 43 21 0 0
173 722 1153 1344 1673 1773 1806 2386 2836 3499 3829 3763 3768 3859 4000 4060 4269 3952 4196 4174 4186 4402 3761 4087 3664 3708 3792 3985 4382 3978 3703 3624 3309 2489 2464 2153 2223 113 56 74 52 43 41
80 657 1153 1137 1320 1684 1809 2082 2503 2528 3662 3785 3880 3864 4021 4010 4049 4225 4028 4308 4407 4201 4405 4284 4201 3972 3808 3980 4255 3998 2588 3707 3201 2626 2695 1960 832 2090 1797 228 1555 451 737
130 686 893 1037 1181 1437 2155 1996 2512 2119 2266 3248 3444 3958 3963 4052 3973 4144 4210 4172 4353 4402 4196 4284 4471 4324 3948 4019 4410 4289 3990 3784 3670 3464 3331 2717 2201 2260 733 845 426 243 496
20 211 330 498 1134 1601 2564 2854 2368 2258 2288 2501 2859 3481 4052 3975 4042 4122 4333 4276 4383 4392 4329 4275 4403 4410 4297 4028 4109 4185 4195 3988 3799 3715 3664 3426 2811 2199 2333 1666 1605 1161 643
0 1 89 432 933 2052 2882 3096 2400 2841 2548 3151 3153 3456 3998 4198 4253 4212 4289 4333 4384 4357 4407 4369 4378 4566 4398 3585 4064 3864 3998 4138 4172 3966 3914 3728 3025 1897 1923 1369 1582 1470 851
0 0 0 89 552 1404 2615 2828 3201 2798 2824 3479 3342 3729 4127 4351 4424 4436 4380 4538 4434 4476 4467 4464 4380 4376 4091 2830 2490 3152 3961 4130 4318 4211 4130 3848 2418 1759 1330 931 1107 1461 2066
0 0 0 0 259 633 1582 2022 3294 3226 2934 3378 3782 3815 4188 4393 4522 4572 4605 4527 4524 4534 4520 4471 4529 4479 4476 3022 2303 2177 3789 4117 4033 4326 4294 3920 2713 2394 2196 1293 868 734 847
0 0 0 0 34 19 291 1415 1558 3813 3697 3634 3690 3998 4125 4356 4573 4683 4633 4650 4632 4592 4594 4599 4656 4632 4514 3521 2679 2114 2993 3735 3929 4072 4258 4310 3464 3477 2976 2725 1515 1348 1150
0 0 0 0 134 0 42 473 1643 2824 3744 3908 3861 3820 4196 4345 4526 4574 4610 4644 4610 4605 4555 4610 4724 4717 4575 3588 3226 2565 2671 3202 3552 3735 4154 4213 4284 3424 2221 3123 2985 2137 1674
0 0 0 0 0 62 0 0 256 1698 3625 3658 4076 4156 4444 4475 4533 4624 4762 4739 4690 4567 4299 4481 4632 4293 4683 3958 3354 2960 2907 3106 3276 3593 4079 3077 3645 3523 2837 2807 3163 2677 2091
514 249 157 74 165 113 67 1358 1224 1405 2704 3329 3999 4390 4465 4647 4572 4655 4783 4828 4759 4430 4637 4525 4569 4636 4349 4524 3538 3139 3310 3152 3156 3255 3414 3749 2729 3130 2925 2568 2840 2816 2730
787 400 397 1021 1174 431 783 2740 2973 3085 3777 3761 3970 4324 4548 4132 4067 4692 4833 4969 4842 4750 4747 4703 4633 4553 4659 3643 3679 3352 2942 2911 3186 3267 3224 3401 2834 2342 2617 2648 2391 2128 1984
805 37 310 1619 533 772 1067 2719 3751 4441 4389 4491 4638 4619 4694 4696 4536 4840 4910 4502 4794 4311 4404 4248 4507 4468 4468 4562 3508 3166 3171 2784 2584 3193 2991 2555 2456 2235 2040 2232 2238 1842 1463
1444 1962 2000 1703 1040 2063 2545 2454 3448 3665 4170 4740 4844 4808 4894 4783 4610 3660 4007 3845 3696 4024 3973 3905 4110 4014 4122 3995 4485 3424 3157 2959 2695 2385 2377 2202 2139 2014 1990 1921 1803 1596 1341
2257 2041 2451 2558 2752 3134 3421 3449 3497 3231 3255 3426 3393 3615 3433 3852 4495 4385 3289 3606 3966 3276 3589 3737 3600 3662 3766 3620 3543 3861 3695 2936 2732 2645 2246 1779 1845 1878 1824 1623 1099 919 869
1703 1839 1902 2007 1914 1867 1891 1991 2011 3338 3800 3592 3550 3338 3171 3324 3525 3581 4000 3149 2901 2954 2836 2767 2720 3028 2959 2823 2834 2981 2850 2919 2761 2199 2251 1846 1600 1783 1698 1445 690 559 475

GFSMW_con_mucape_036.txt.gz
CAPE
781 981 835 783 911 1287 1636 1499 1859 2435 1938 1705 1685 1749 1244 1592 1701 1840 2216 2906 2769 2991 3644 2161 1141 2410 2550 2692 2530 2014 1330 891 276 681 296 252 46 50 39 66 51 199 211
652 947 888 767 772 1097 1547 1703 1810 2429 2297 1925 1898 1706 1990 1461 1311 1393 2457 2532 2448 3187 3365 2908 2527 2614 1149 2680 2188 2155 1666 1113 328 867 189 178 207 43 41 118 44 117 37
732 868 897 787 723 1204 1517 1758 1943 2739 2631 2292 2534 2835 2739 2771 1581 1150 1650 1897 2528 2958 3077 2890 2845 2636 2619 2227 2270 2434 2551 1069 271 1385 1215 138 30 255 139 59 18 62 7
1045 827 964 898 782 1092 1373 1947 2185 2498 2782 2774 2229 2557 1499 1188 1152 1089 1279 1614 2079 2820 2861 2891 3504 3389 2579 2717 2893 3121 2718 1987 320 260 567 1142 1105 369 18 305 110 189 13
1079 1044 860 909 805 1029 1637 2049 2436 2614 2915 2258 2983 2265 2039 1404 1099 1519 1917 2305 2635 3006 3050 3031 3322 3690 3350 2962 2500 3222 2920 2675 1846 507 387 747 990 819 916 199 253 183 177
1127 1393 1056 993 862 1081 1785 2124 2741 2717 3026 2931 2407 3322 2186 2018 1176 1183 1735 2144 2801 2708 3467 3234 3162 3598 3343 3478 2953 3417 3512 3115 2751 1686 1046 499 329 569 520 654 326 343 502
1107 1499 1408 1126 982 1149 1587 1938 2957 2912 2852 3025 2472 2288 3456 2133 2829 2925 1071 1518 1638 2388 2802 3464 3419 3040 3172 3412 3647 3457 3754 3250 2900 2126 1641 1232 1240 904 769 364 448 386 334
791 1417 1630 1382 1159 1144 1452 1786 2778 2930 3018 2964 3079 2446 3268 2685 1733 3106 1533 1198 1643 1714 2952 2781 3180 3075 2954 3206 3919 3747 3302 3148 2792 2949 1914 1322 1352 952 693 576 878 319 310
541 1258 1650 1638 1385 1177 1438 1725 2405 2944 3179 2854 3391 3291 2441 3351 2558 2353 2794 2568 1997 2227 3502 2905 3130 2856 3265 3519 3810 2997 3453 3547 2871 2497 2505 1738 1112 1104 920 852 607 670 534
488 1099 1527 1832 1648 1366 1431 1651 2315 2792 3214 3325 3138 3296 2841 3051 3165 2680 2955 2248 2984 2420 3742 3135 3026 3194 3068 3677 3509 3338 3479 3261 2893 2218 1978 1807 678 652 1091 757 781 577 474
479 903 1572 1742 2009 1682 1658 1679 1931 2804 3220 3281 3249 3218 3330 2828 2931 3051 3115 3763 2763 4141 2962 3801 3214 3270 3295 3313 3603 3117 3012 3577 3044 2101 2192 1728 1389 1471 1024 774 807 903 714
678 830 1351 1683 2024 2091 1892 1960 2046 2469 3060 3534 3438 3144 3238 3512 3341 2906 3175 3483 4098 3182 4257 3687 3381 3411 3162 3294 3285 3316 2545 3323 3051 2514 1982 2011 1418 1654 1782 1770 890 744 1084
375 762 1238 1549 1964 2135 2174 2186 2189 2190 2971 3458 3411 3312 3204 3240 3475 3540 3052 3281 3422 3838 3286 3993 3906 3245 3180 3159 3273 3259 3226 2335 3197 3009 2522 2147 1706 1556 930 1165 1057 988 1143
486 831 1203 1556 1839 2127 2398 2398 2370 2383 2495 3178 3450 3287 3365 3370 3410 3546 3685 3265 3292 3454 3668 3533 3472 3818 3317 3249 3170 3286 3559 3216 2899 3257 3000 2712 2161 1534 1589 1231 917 1138 1079
708 1207 1324 1836 1941 2282 2506 2597 2530 2566 2528 2680 3203 3359 3372 3509 3516 3619 3684 3838 3592 3421 3551 3630 3611 3506 3697 3348 3228 3249 3515 3493 3051 2970 3348 3043 2723 2105 1607 1387 1531 786 972
103 188 537 695 1520 2498 2951 2569 2672 2821 2764 2758 2929 3185 3459 3485 3835 3680 3775 3856 3946 3837 3782 3820 3703 3687 3585 3355 3084 2974 3320 3556 3367 3272 3215 3204 2827 2612 2026 1577 1100 1302 734
0 6 100 327 1008 1472 3277 3287 3024 3098 3270 2998 3261 3311 3404 3565 3737 3989 3889 3846 4036 4051 4029 4011 3966 3710 3695 3437 3243 2857 3129 3227 3283 3241 3261 3317 3020 2698 2456 2089 1697 1007 1014
0 128 0 56 1038 393 475 2111 3412 3495 3310 3880 3601 3805 3862 3686 3922 4064 4098 4124 4050 4163 4119 4174 4101 4021 3863 3510 3364 3035 2650 3087 3145 3203 3198 3254 3169 2931 2688 2297 1987 1660 1026
29 59 0 2 1426 842 974 1605 2066 3730 3726 3464 3920 3696 4044 4027 4027 4135 4153 4213 4279 4213 4311 4243 4271 4191 4029 3709 3464 3273 2915 2718 2922 3162 3299 3212 3243 3114 2718 2513 2137 1971 1713
988 1357 913 936 220 2046 406 2494 2214 2862 3636 3597 3435 3858 3783 3952 4068 4190 4341 4359 4363 4351 4304 4316 4274 4156 4196 3872 3732 3433 3112 2633 2628 2809 3221 3120 3122 3176 3050 2508 2488 2085 1874
1161 1385 1338 1268 2281 2246 1988 2875 2217 2348 3089 3601 3745 3984 4023 3890 4093 4250 4448 4497 4487 4446 4425 4358 4341 4339 4179 4142 3935 3708 3433 3165 2803 2656 2797 3012 3009 3108 3161 2837 2540 2455 2224
1463 1188 1486 1656 1681 2692 2540 2944 3880 3984 4151 4223 4064 4173 4513 3956 3938 4406 4510 4536 4527 4507 4445 4402 4376 4387 4323 4098 4021 3934 3730 3299 3203 2949 2673 2775 2921 2934 2972 3004 2738 2500 2385
1962 1574 1265 1618 1906 1987 3187 3042 4783 5096 4868 5087 4912 4472 4704 4525 4143 4588 4486 4512 4599 4527 4504 4405 4385 4308 4211 4499 4168 3944 3794 3748 3556 3226 3069 2711 2661 2769 2820 2815 2801 2785 2600
2249 3052 3147 3420 3637 2642 3000 4366 4350 4436 5079 5233 5322 4947 4843 4661 4528 4171 4448 4330 4357 4512 4555 4458 4334 4167 4380 4427 4109 4087 3960 3778 3537 3448 3223 2919 2763 2527 2570 2686 2671 2724 2726
2659 2816 3385 4009 4061 4454 4187 4045 4478 4801 4646 4830 4986 5113 4685 4587 4739 4590 3995 4478 4403 4237 4382 4386 4083 3908 4200 3668 3331 3590 3647 3529 3534 3466 3229 2988 2871 2660 2325 2223 2399 2501 2489
2396 2882 2941 2690 2405 2288 2362 2870 3146 3849 4822 4644 4244 4059 3859 4121 4327 4563 4501 3552 3318 3483 3273 3084 3175 3197 3049 3015 2974 2947 2903 2778 3033 3387 3206 3035 2901 2695 2443 2208 1984 1806 1975

GFSMW_con_mucape_039.txt.gz
CAPE
448 497 547 432 330 359 253 119 438 490 279 1021 789 1024 464 638 787 361 1124 1297 1388 1592 1502 1442 955 1256 1133 1001 992 422 459 115 0 3 33 44 40 32 37 150 248 149 166
516 417 236 417 436 488 504 332 789 812 493 827 524 768 1063 620 766 335 1352 1479 1566 1631 1556 1461 1101 1370 1255 1268 1166 1023 528 405 0 63 54 9 6 15 25 32 121 156 68
493 427 219 213 453 532 490 599 598 1074 723 807 842 911 989 846 827 444 350 1543 1437 1886 1640 1430 1463 1457 1162 1007 1196 1012 1009 0 0 41 180 27 5 8 18 6 28 35 14
413 456 304 276 315 683 602 507 732 1518 1006 1136 1096 931 777 913 1060 405 237 892 1239 1399 1761 1587 1312 1530 1329 1148 1018 1193 955 59 0 0 37 134 146 0 0 0 4 1 8
462 448 366 374 245 546 766 610 724 1256 1401 1188 1159 1269 1070 1074 632 517 248 798 733 1229 2109 1648 1771 1579 1790 1305 1072 1835 871 758 196 0 0 0 0 16 0 4 1 0 0
565 440 446 378 348 604 826 866 770 979 1382 1359 1449 1117 1342 916 861 341 214 1084 1038 1380 1892 2151 1816 1726 1765 1423 1495 1708 1229 993 1234 135 17 0 0 0 0 11 7 0 0
530 450 526 521 476 622 678 1033 1000 998 1547 1360 1083 1736 1165 1168 670 651 367 837 1746 1531 1938 2196 1844 1913 2020 2024 1411 1865 2015 1388 1301 1179 45 194 0 74 0 18 0 0 0
454 578 612 664 586 574 749 1235 1257 1281 1570 1774 1222 902 1816 1473 921 1406 683 553 1275 1680 1491 2295 1923 1903 1787 1878 1995 1983 2048 1820 1234 1590 711 57 226 106 0 0 0 0 5
678 763 708 710 731 722 1019 1118 1598 1390 1557 1823 1768 1209 1125 2226 1454 633 1529 1272 813 1236 1629 1873 2383 1885 1681 1650 1954 2475 1934 2347 1742 1073 1458 685 84 168 65 9 11 2 0
743 983 847 782 792 800 890 1247 1762 1718 1717 1742 1939 1828 1198 1108 2286 1443 752 1910 811 732 1499 1864 2058 2086 1877 1883 2003 2663 2485 2110 2195 1651 1252 1219 644 93 96 86 22 19 0
773 1125 998 864 850 876 851 1091 1500 1974 1951 1934 1763 1998 1769 1219 1690 2132 1221 1795 1551 1624 1292 2144 2028 2031 2100 2283 2242 2191 2452 2616 2335 2060 1617 1248 935 200 72 228 77 58 5
507 1226 1189 1026 977 949 895 1022 1207 1916 2034 2139 1921 1991 2221 2021 1391 2019 2455 970 2244 1464 2434 2454 2178 2331 2067 2057 2699 2364 2246 2184 2409 2294 1851 1390 1060 610 269 676 137 45 151
411 1209 1393 1290 1154 1040 933 953 1151 1588 2024 2257 2325 2158 2134 2371 2170 1755 1873 2589 1547 2589 1756 2802 2476 2359 2448 2493 2206 2495 2331 2190 2336 2303 2123 1675 1282 877 452 454 629 408 49
526 1185 1347 1473 1379 1154 1031 997 1039 1412 2022 2217 2424 2494 2452 2415 2533 2233 1827 1628 2496 2195 3064 2284 2804 2501 2419 2366 2477 2386 2440 2390 1927 2450 2593 2278 1854 1451 1024 643 381 475 553
517 1162 1256 1363 1597 1479 1271 1215 1147 1296 1602 2322 2556 2604 2639 2480 2442 2458 2508 2315 1780 2535 2405 2744 2707 2806 2530 2499 2376 2487 2474 2457 2457 1996 2504 2630 2426 2067 1682 1000 708 330 356
320 672 1223 1321 1572 1755 1629 1494 1492 1469 1512 2103 2436 2707 2658 2640 2435 2499 2442 2736 2711 2146 2445 2696 2476 2756 2828 2734 2560 2478 2506 2525 2593 2609 2100 2582 2703 2670 2412 2031 1555 806 214
84 529 842 1150 1645 1767 1832 1830 1880 1717 1768 1761 2278 2571 2764 2646 2673 2555 2738 2705 2910 2962 2643 2441 2795 2654 2797 2911 3004 2800 2564 2536 2653 2684 2618 2218 2442 2779 2781 2616 2400 2015 1477
64 193 459 681 905 1247 2106 1981 1969 2197 2022 1992 2012 2261 2649 2833 2741 2824 2714 2940 2966 3080 3194 3131 2843 3037 2944 2912 3017 3104 3038 2715 2597 2868 2836 2737 2592 2490 2729 2817 2742 2545 2309
558 613 521 417 460 207 250 2343 2218 2335 2528 2276 2305 2290 2762 2813 2984 2924 3082 3055 3066 3165 3207 3411 3375 3254 3230 3250 3135 3135 3193 3091 2870 2766 2852 2985 2889 2797 2783 2842 2818 2731 2601
662 768 635 437 432 806 620 2343 2698 2530 2694 2823 2961 2805 2816 2971 2931 3048 3064 3216 3328 3265 3322 3310 3550 3500 3466 3407 3391 3383 3180 3043 2936 2866 2742 2853 2933 2951 2923 2871 2781 2812 2664
1025 1050 795 745 879 623 554 1188 1727 2881 2687 2525 2806 3386 3503 3336 3296 3202 3299 3409 3540 3584 3567 3624 3594 3755 3685 3615 3655 3579 3612 3364 2966 2818 2699 2663 2708 2997 3129 3079 2824 2604 2404
1661 2093 1756 1111 615 417 1274 852 892 1977 2524 2901 3033 2975 3241 3250 3494 3622 3653 3790 3814 3847 3808 3837 3855 3797 3774 3864 3824 3776 3804 3672 3509 3269 3089 2883 2693 2559 2864 3151 3185 3072 2859
1697 2118 2338 2643 2992 1715 1306 1314 2972 3091 3701 2915 3096 3239 3393 3375 3065 3701 3729 4097 4085 4090 4051 3988 4010 3977 3914 3880 3941 3967 3917 3888 3905 3610 3359 3270 3158 2962 2995 2752 2887 3046 3077
1413 1683 2050 2683 3432 3264 3111 3192 3552 3295 2458 3343 4270 3643 3752 4161 3647 3835 3903 3980 4219 4142 4099 4128 4078 3891 3799 3885 3909 3822 3826 3929 3918 3875 3816 3713 3550 3360 3177 2975 2630 2745 2732
952 1495 1557 2029 2576 2814 3114 3044 3173 3289 3810 2723 4592 4291 4243 4265 4139 3693 4243 4055 3922 4054 4123 4065 3932 3997 4074 3884 3792 3768 3896 3838 3830 3810 3783 3797 3787 3655 3458 3243 3142 2957 2615
41 427 1177 1566 1926 2255 2510 2433 2873 3237 3291 3818 4392 4587 4101 4035 4243 4271 3793 3689 4058 3959 3866 3919 3979 3912 3795 3667 3461 3294 3109 3105 2949 2818 2800 2757 2815 2998 3104 3101 2942 2852 2740

GFSMW_con_mucape_042.txt.gz
CAPE
235 370 236 96 276 280 201 105 0 378 333 418 256 119 107 110 339 578 507 488 840 1297 1250 1057 945 1091 1062 848 235 171 49 9 0 34 32 43 34 39 64 95 182 149 98
373 316 409 142 108 201 239 85 0 191 362 219 280 246 55 65 214 493 489 619 873 1157 1094 1026 833 853 945 919 761 690 244 8 0 24 3 4 0 4 72 94 185 60 105
529 445 412 298 206 162 199 112 33 0 95 268 240 533 500 294 302 487 569 760 960 1170 1155 979 829 1042 1214 981 893 834 328 0 0 16 15 1 0 3 14 39 167 59 78
487 485 429 410 293 239 157 106 141 103 54 345 155 288 433 738 520 384 346 882 1000 1173 1336 1072 1021 1368 1261 1086 854 854 662 0 0 0 34 62 2 0 0 0 15 37 72
483 500 471 443 433 351 262 153 388 246 209 461 293 216 268 661 884 586 485 533 977 1216 1184 1243 1303 1039 1403 1024 851 1034 921 0 0 0 0 0 0 0 0 0 0 0 0
461 442 465 370 460 476 399 291 611 458 393 533 471 367 290 395 615 710 622 306 857 870 1159 1303 1296 1245 1226 1378 1168 1078 1261 718 0 0 9 0 0 0 0 0 0 0 0
399 491 363 341 336 449 407 370 409 816 635 569 665 539 519 512 578 691 516 410 444 557 1047 1592 1327 1335 1411 1338 964 1183 1288 652 884 238 32 0 0 0 7 0 0 0 6
379 461 411 342 303 540 507 377 416 585 928 742 652 685 723 682 634 737 642 248 483 664 780 1408 1716 1760 1463 1367 1226 1268 1538 1226 954 835 242 117 107 68 45 0 0 1 10
531 496 563 389 356 439 640 585 437 425 886 946 890 907 837 784 846 885 538 507 383 1072 977 1341 1510 1814 1545 1450 1586 1287 1362 1692 1058 639 1071 317 49 97 175 19 15 8 7
709 604 622 446 446 545 602 727 624 487 616 1070 871 756 1007 1464 983 782 786 956 587 984 1276 1184 1784 1756 1634 1429 1584 1844 1636 1675 1853 1443 686 875 578 108 103 203 27 10 6
737 629 704 529 575 664 705 847 824 719 787 961 1215 1046 719 689 1611 1517 872 652 1251 1206 1083 1328 1489 1776 1754 1652 1411 1446 2185 2182 1828 1961 1724 951 640 382 135 133 107 85 23
685 713 769 621 690 734 754 740 1115 978 1005 1122 1302 1395 1272 933 743 1622 1949 1321 674 966 1523 1327 1470 1760 1832 1789 1619 1408 1759 2339 2200 1982 2095 1976 1553 988 401 146 96 194 66
780 807 739 734 778 806 772 955 1088 1315 1243 1301 1339 1491 1582 1459 1133 823 1601 1904 1543 970 1262 1477 1537 1700 1781 1807 1784 1616 1662 1844 2145 2195 2213 2176 1963 1630 1134 634 91 296 302
699 842 818 836 851 864 787 842 1084 1598 1598 1611 1615 1494 1683 1806 1636 1331 987 1820 2040 1474 1330 1745 1983 1913 1897 1799 1791 2006 1945 1796 1887 1948 2046 1929 2044 2051 1772 1263 670 208 291
686 1038 980 939 910 911 842 853 962 1355 1760 1827 1844 1793 1639 1864 2054 1892 1565 1306 1664 2192 1777 1657 1917 2142 2140 2103 1980 1796 1868 2084 2081 1968 2045 2183 2182 2148 2062 1970 1816 1231 466
618 1163 1100 1069 1019 989 945 949 957 1170 1598 1849 1957 1970 2036 1905 1983 2200 2138 1848 1564 1463 2081 2176 2071 2039 2275 2300 2312 2190 2074 1989 1975 1974 1955 1909 2113 2221 2356 2383 2350 2200 1899
743 1201 1229 1181 1173 1162 1091 1063 1028 1038 1554 1783 1885 2128 2148 2310 2229 2218 2285 2333 2122 1860 1456 1758 2154 2159 2360 2523 2466 2453 2358 2253 2150 2089 2054 2087 1972 2116 2156 2237 2394 2500 2484
741 1150 1351 1382 1413 1363 1249 1175 1064 1090 1203 1649 2031 2121 2426 2394 2463 2353 2293 2270 2378 2445 2265 1818 1843 2211 2165 2345 2681 2738 2644 2478 2401 2367 2313 2252 2274 2179 2166 2284 2171 2298 2468
441 694 1199 1329 1588 1708 1746 1591 1465 1437 1384 1415 1574 2262 2394 2653 2559 2554 2455 2396 2428 2442 2608 2605 2421 2118 2176 2419 2467 2657 2799 2764 2746 2668 2629 2621 2596 2545 2476 2342 2344 2287 2140
732 613 790 1034 1185 1400 1589 1929 1959 1896 1815 1767 1750 1760 2425 2563 2705 2655 2648 2627 2597 2704 2666 2707 2846 2868 2753 2617 2770 2799 2723 2616 2618 2680 2808 2855 2876 2868 2848 2778 2668 2551 2469
1719 1971 1916 1260 1071 1110 796 1675 2035 2102 2116 2085 1963 1925 1951 2425 2598 2737 2728 2751 2828 2729 2793 2877 2884 2978 3134 3168 3166 3093 3113 3083 3002 2951 2864 2800 2824 2873 2884 2977 3003 2771 2659
1576 2192 2797 2599 2092 796 1053 642 1409 2221 2275 2217 2377 2297 2325 2266 2545 2643 2778 2848 2826 2993 3042 2978 3034 3102 3100 3305 3374 3365 3384 3397 3411 3598 3245 3295 3414 3216 3119 3001 2872 2907 2945
1581 1721 2143 2634 2740 2619 2691 2830 2896 2432 2520 2529 2583 2734 2866 2868 2823 2810 2793 2881 2979 3017 3162 3246 3283 3338 3467 3561 3566 3675 3720 3772 3805 3689 3442 3470 3340 3285 3294 3484 3514 2931 2827
1365 1514 1712 1946 2426 2501 2704 2708 2715 2787 3083 1868 3076 2819 2764 2828 3115 3222 3163 3170 3328 3385 3403 3516 3577 3621 3716 3802 3901 3877 3838 3879 3940 3976 3963 3954 3957 3965 3951 3987 3828 3684 3475
877 1177 1146 1404 1698 2018 2293 2430 2433 2615 2976 3127 3153 3165 3630 3003 3059 3027 3257 3506 3652 3703 3799 3891 3908 3926 3909 3869 3853 3747 3772 3806 3797 3825 3905 3769 3559 3465 3427 3479 3503 3440 3437
208 116 311 831 1052 1599 1268 1298 1772 1984 2057 2831 3068 3513 4032 3684 3496 3347 3251 3621 3705 3961 3989 3969 4008 3904 3850 3814 3709 3717 3769 3506 3332 2865 2794 2844 2799 2731 2663 2562 2592 2622 2549

GFSMW_con_mucape_045.txt.gz
CAPE
157 94 164 220 159 27 6 0 0 54 173 107 206 380 289 356 609 596 769 799 1225 1115 736 585 465 734 830 613 341 43 19 54 51 32 25 32 49 46 83 75 149 72 99
182 125 119 153 235 168 58 0 0 0 201 73 332 379 209 86 272 547 656 625 857 1288 1175 799 798 903 804 701 413 197 82 9 7 23 19 21 14 12 44 90 148 133 85
176 148 126 121 135 188 173 53 0 0 137 86 167 130 114 26 82 357 407 471 533 935 986 851 741 831 930 751 589 563 40 0 0 4 0 0 0 3 11 63 80 165 102
209 155 197 120 112 52 190 75 0 46 55 137 121 119 52 6 1 54 391 491 587 795 959 816 562 853 929 730 851 726 482 0 0 0 65 11 0 0 0 0 34 147 70
257 207 189 263 135 67 75 171 156 129 17 94 87 33 7 0 78 93 225 392 643 767 977 1021 814 871 1193 1092 949 569 434 32 0 0 0 11 0 0 0 0 0 22 23
435 341 245 304 306 160 87 68 108 124 72 18 48 0 9 65 338 378 254 300 614 702 926 1081 981 912 945 1151 1023 665 485 334 0 0 0 2 1 0 0 0 0 0 0
565 522 448 345 418 378 252 169 141 114 95 35 51 17 5 20 163 414 477 384 332 664 742 1019 1045 1140 983 1030 1061 1002 1030 849 183 0 0 0 0 0 0 0 0 4 19
500 554 545 468 440 451 398 312 241 202 96 67 104 88 63 28 38 169 526 607 441 360 597 865 1047 999 1102 1154 1150 945 932 1151 676 440 44 32 0 0 6 27 10 11 17
213 292 581 505 447 459 464 444 357 319 244 140 181 192 149 137 106 124 150 403 511 437 323 568 1106 1207 1215 1386 1305 1059 948 1228 1195 662 612 204 74 105 147 65 39 25 32
135 158 342 473 486 475 465 436 420 426 377 246 258 328 299 299 284 254 243 352 602 433 470 525 700 1002 1332 1545 1558 1174 1168 1180 1344 1334 706 685 585 109 73 199 157 47 27
197 152 170 406 452 478 501 430 412 394 361 449 395 422 450 450 459 508 476 454 541 485 672 737 895 1045 1111 1362 1594 1345 1345 1323 1407 1453 1520 1118 626 615 378 136 179 264 157
234 207 175 335 466 531 488 497 394 361 351 508 542 552 601 705 829 645 590 596 677 680 431 837 972 1215 1288 1306 1460 1517 1393 1626 1620 1825 1767 1783 1701 1242 693 283 146 166 225
131 191 293 335 453 482 505 503 521 475 469 398 640 644 619 629 828 1292 1196 856 782 736 864 1067 988 1095 1311 1385 1361 1385 1542 1429 1604 1755 1959 1870 1817 1775 1760 1625 1250 252 69
21 265 411 471 575 547 572 488 614 572 565 605 576 841 920 844 654 613 1031 1389 1409 1332 1133 881 858 1171 1273 1467 1505 1527 1562 1605 1503 1692 1863 1940 1963 1881 1800 1867 1831 1576 914
76 278 449 527 595 601 652 554 595 818 729 747 808 923 1149 1168 1103 877 753 975 1351 1279 1395 1459 1240 1180 1264 1340 1453 1589 1660 1660 1626 1522 1592 1705 1823 1908 1897 1692 1586 1658 1645
251 419 552 603 640 645 736 616 725 1002 1058 994 1024 1065 1129 1350 1398 1335 1223 1096 1110 1470 1213 1055 1089 1348 1509 1670 1686 1724 1662 1768 1744 1654 1631 1674 1877 1907 1925 1942 1910 1781 1759
340 517 542 611 645 694 814 719 840 1042 1378 1365 1352 1374 1353 1386 1572 1662 1627 1484 1318 1197 1562 1535 1227 1283 1396 1744 1965 2003 1949 1985 2006 1867 1734 1750 1757 1832 1879 1905 2048 2051 2052
251 493 630 676 696 731 774 750 787 1006 1489 1634 1686 1707 1756 1650 1596 1785 1958 1899 1711 1576 1458 1389 1647 1679 1680 1718 1907 2142 2129 1999 2063 2054 2030 2036 2042 2067 2083 2082 2083 2068 2002
363 771 911 865 849 854 859 925 921 1045 1221 1549 1766 1873 1924 1969 2003 1906 1928 2046 2125 2051 1894 1779 1631 1454 1693 1908 2091 2192 2267 2200 2194 2181 2224 2280 2298 2308 2350 2419 2483 2492 2468
1168 1153 1248 1203 1177 1170 1136 1098 1052 1081 1192 1454 1685 1798 1978 2113 2152 2257 2189 2143 2197 2234 2305 2325 2262 2122 1969 1760 1931 2009 2066 2020 2098 2203 2346 2430 2469 2507 2577 2675 2735 2803 2733
2044 2000 1502 1525 1563 1552 1513 1463 1447 1445 1465 1430 1387 1727 2023 2192 2302 2271 2306 2313 2317 2351 2405 2400 2413 2472 2487 2468 2485 2479 2474 2438 2492 2607 2712 2799 2864 2916 2972 2987 3112 2883 2832
2077 2097 1981 1742 1293 1426 1728 1918 1945 1945 1850 1791 1789 1854 1846 2133 2284 2476 2462 2489 2529 2541 2536 2547 2565 2609 2667 2789 2844 2883 2953 2929 2994 3063 3159 3238 3217 2932 3233 3130 3189 2978 2996
1910 2056 2158 2287 2335 2298 2288 2441 2692 2456 2368 2131 2154 2180 2138 2123 2178 2470 2557 2573 2590 2623 2660 2658 2674 2687 2789 2907 3015 3107 3148 3219 3335 3464 3516 3452 3520 3538 3435 3347 3407 3417 3402
1555 1885 1995 1865 1889 2056 2100 2171 2389 2669 2705 2468 2614 2546 2514 2489 2436 2412 2419 2495 2651 2691 2713 2789 2912 2961 3029 3153 3277 3368 3470 3550 3647 3701 3778 3796 3852 3875 3926 3974 3975 3875 3651
1015 1224 1476 1624 1560 1532 1646 1716 1736 1843 2235 2725 2789 2878 2698 2833 2749 2815 2829 2849 2883 2861 2838 2924 3004 3131 3266 3385 3497 3640 3784 3834 3843 3785 3781 3853 3881 3960 3593 3122 2868 2725 2621
458 552 450 565 967 1084 1082 1294 1598 1700 1637 1663 2162 2800 3009 3417 3141 2850 2885 3088 3261 3262 3318 3381 3388 3477 3675 3832 3973 3945 3854 3857 3821 3808 3604 3374 3241 3261 3152 2678 2503 2027 1684

GFSMW_con_mucape_048.txt.gz
CAPE
33 38 49 49 130 201 185 15 0 0 20 26 6 76 74 210 428 217 486 455 560 930 717 539 618 745 657 611 530 60 47 93 44 28 34 47 49 58 58 73 79 80 164
45 50 73 76 106 181 108 35 0 0 17 23 32 52 177 244 476 449 457 638 647 1096 903 537 540 764 707 508 282 77 73 38 30 23 8 20 18 20 34 64 94 100 81
64 65 62 89 101 130 130 42 0 0 12 19 23 23 127 203 167 400 476 625 704 1111 1235 1034 730 744 670 580 523 281 42 7 22 11 0 1 1 0 7 19 50 83 108
95 93 63 55 62 124 108 36 11 0 0 5 10 60 197 257 109 128 324 435 498 599 882 966 680 716 766 715 664 566 409 15 0 0 26 0 0 0 10 0 0 23 112
112 117 110 69 45 24 112 127 27 1 0 0 0 13 74 123 53 0 118 259 321 472 876 823 714 569 823 793 773 806 426 200 0 0 18 16 0 0 0 0 0 0 35
132 119 106 100 64 48 0 69 114 150 85 5 2 0 0 0 0 0 0 86 262 409 665 919 854 773 823 957 937 849 323 256 0 0 0 0 0 0 0 0 0 0 0
134 122 114 105 100 79 51 0 54 181 173 16 6 83 0 0 0 0 0 0 97 370 492 724 833 927 856 861 976 1015 713 356 238 0 0 0 0 0 0 0 0 0 1
302 208 158 153 119 124 90 37 20 42 186 150 148 147 21 0 0 0 0 0 0 163 424 570 798 882 910 994 933 983 1036 813 720 585 83 7 0 0 0 0 0 10 13
285 383 366 247 173 146 220 122 64 35 49 147 158 119 91 0 0 0 0 0 25 118 256 513 844 858 963 957 1043 1024 1024 994 1017 913 599 306 98 20 1 0 33 47 31
205 171 398 413 380 307 189 269 258 134 80 37 67 59 93 33 25 27 7 8 90 356 394 434 732 951 991 969 999 1258 1261 1037 1136 1133 1064 720 552 321 90 106 124 62 32
174 159 321 385 403 434 431 323 283 340 243 227 149 177 120 46 48 50 48 39 13 83 384 417 486 671 944 1089 1104 1276 1552 1259 1125 1187 1239 1220 844 529 510 326 99 79 136
207 199 168 192 365 357 395 430 401 356 349 337 317 289 268 166 152 150 119 124 80 34 227 487 539 781 883 1011 1112 1255 1498 1571 1351 1306 1289 1407 1457 1456 1356 1197 467 173 88
149 184 173 129 275 325 320 358 395 404 405 374 394 386 388 339 301 300 273 234 233 183 223 440 614 758 1071 1170 1106 1228 1329 1582 1668 1610 1602 1686 1517 1662 1664 1569 1503 1317 703
21 85 114 101 135 295 256 362 371 380 395 392 432 429 439 414 479 519 523 400 420 425 408 452 561 762 960 1258 1343 1307 1315 1308 1510 1687 1724 1732 1767 1781 1782 1606 1608 1510 1526
0 7 71 108 120 290 266 426 426 396 408 403 506 556 515 491 518 687 973 957 573 510 479 494 556 760 979 1144 1435 1526 1492 1481 1471 1533 1699 1816 1699 1483 1609 1774 1673 1449 1459
0 0 22 118 175 292 349 380 535 513 460 457 487 621 670 636 565 480 508 923 1137 934 846 815 735 713 837 856 1075 1298 1633 1659 1613 1590 1569 1671 1605 1594 1607 1625 1648 1662 1595
0 0 0 107 234 318 383 398 536 645 595 539 511 605 797 932 918 850 679 612 710 1144 1144 993 923 1030 1194 1123 1116 1212 1518 1674 1748 1771 1773 1729 1641 1545 1771 1599 1709 1821 1912
100 0 52 205 276 338 390 396 513 807 783 704 779 864 949 1097 1169 1212 1185 1062 858 830 1227 1332 1126 980 1037 1048 1268 1341 1376 1658 1773 1777 1850 1899 1970 1910 1906 1919 1993 1916 1970
731 90 195 294 346 416 449 503 658 832 1061 1050 1092 1158 1208 1205 1307 1461 1521 1490 1376 1214 1147 1213 1500 1542 1361 1077 1149 1348 1345 1622 1798 1952 1980 1955 2017 1875 1878 1909 2048 2144 2131
992 389 392 481 519 534 562 614 719 954 1334 1390 1449 1530 1555 1522 1471 1489 1630 1781 1839 1735 1615 1578 1481 1403 1591 1523 1544 1567 1472 1543 1742 1969 2063 1876 1930 2014 2090 2125 2216 2330 2503
949 1063 772 736 721 684 672 688 710 930 1128 1380 1598 1707 1785 1809 1814 1788 1788 1859 1983 2098 2157 2135 2046 1948 1882 1902 1922 1958 1942 1939 2017 2028 2052 2193 2144 2381 2619 2790 2904 2860 2802
1084 1245 1298 1245 1132 1098 1090 1035 1000 933 951 1145 1412 1684 1793 1976 2028 2093 2225 2227 2163 2204 2257 2281 2351 2422 2445 2311 2353 2395 2457 2435 2512 2530 2560 2681 2862 3075 3201 3185 2987 2890 2849
1796 1822 1746 1544 1536 1559 1637 1762 1901 1514 1322 1379 1485 1622 1779 1969 2224 2292 2265 2338 2351 2365 2385 2428 2473 2520 2512 2546 2508 2580 2681 2765 2852 2907 2959 3103 3252 3347 3364 3363 3317 3357 3387
1630 1699 1756 1812 1828 1842 2049 2276 2388 2143 2123 1833 1829 1918 1949 2027 2124 2342 2419 2435 2498 2545 2573 2551 2567 2563 2609 2706 2671 2747 2876 3011 3126 3213 3248 3272 3361 3460 3547 3637 3695 3771 3731
1409 1529 1406 1441 1463 1586 1705 1744 1851 2118 2435 2486 2374 2348 2398 2315 2323 2350 2405 2494 2602 2589 2610 2668 2729 2867 2876 2784 2831 2948 3119 3322 3458 3563 3652 3657 3594 3578 3661 3707 3361 2862 2576
838 1056 1278 1209 1079 1051 1043 1444 1354 1192 1260 1544 2091 2496 2680 2479 2620 2522 2518 2564 2595 2600 2655 2702 2755 2778 2904 3021 3187 3445 3677 3812 3856 3877 3900 3793 3718 3658 2897 3136 2689 2459 2376

GFSMW_con_mucape_051.txt.gz
CAPE
0 0 69 197 533 659 603 579 617 658 446 354 331 381 339 508 784 1020 1254 1480 1441 1483 1859 1523 1740 1602 2492 2159 1316 828 610 106 178 160 120 43 48 358 343 493 386 332 427
0 0 65 111 269 582 628 646 590 644 576 332 718 474 797 835 1157 1321 1375 1596 1524 1881 1948 1691 1521 1999 1729 1723 1488 1287 246 95 108 136 95 81 60 84 204 462 539 658 555
0 4 12 118 187 362 492 569 660 652 703 716 631 664 835 827 970 1265 1400 1574 1665 1955 2192 1907 1610 1991 2365 1600 1741 1342 939 62 172 256 78 53 38 68 114 388 605 848 811
16 22 69 86 108 336 330 474 702 736 620 773 772 1210 754 718 863 1204 1391 1629 1722 1829 2252 2335 2001 2006 1879 1970 1846 1561 1048 322 188 229 309 51 159 26 54 206 369 622 770
136 98 182 199 172 181 212 246 703 1058 1070 929 1157 879 1097 797 915 875 1457 1751 1847 1778 1746 2132 2042 1873 1938 2148 1854 2023 1831 563 135 211 615 722 54 25 68 25 155 351 479
280 275 251 225 299 308 128 109 696 971 1121 1039 1153 1580 1663 1264 848 955 893 1082 1325 1529 1713 1831 2046 2030 1872 2120 1975 1991 1906 1154 124 156 566 437 369 170 55 29 201 190 289
502 374 357 323 405 633 423 402 553 805 949 998 1187 1353 1601 1784 1515 1241 827 994 934 1274 1573 1943 2116 1999 2223 2181 2224 2257 2021 1661 1091 530 41 139 223 199 213 187 201 258 382
571 510 422 493 752 680 773 566 621 762 814 928 1226 1395 1541 777 750 1190 667 650 588 860 1497 1915 1973 2096 2188 2154 2288 2166 2146 1996 1706 1641 874 361 208 106 182 214 282 362 525
650 580 511 627 765 809 855 795 888 842 829 527 1108 1297 1382 1357 953 1403 1268 723 1169 522 1140 1654 1832 1971 2100 2222 2355 2164 2392 2359 2324 2102 2149 1495 903 562 269 254 293 404 468
745 699 613 649 837 674 860 832 905 895 873 841 980 983 1201 1331 1347 1374 1397 1386 915 812 728 1534 1738 1935 2022 2243 2448 2074 2382 2531 2260 2063 2271 2236 1678 1248 877 741 520 422 473
750 809 864 849 805 661 812 886 869 995 974 883 932 1083 955 838 818 962 1147 1481 1093 1110 1319 1616 1732 1880 1999 2127 2374 2297 2240 2570 2585 2414 2408 2498 2390 1837 1420 1108 893 757 630
620 731 802 886 844 1028 939 809 897 698 934 976 1033 1031 1227 1144 922 1278 1048 1384 1617 1178 1343 1585 1801 1824 1815 1941 2171 2100 1746 2352 2660 2673 2562 2432 2271 2454 2310 1824 1754 1435 1198
318 522 422 812 1002 1040 1216 999 878 692 667 996 736 981 1161 1067 1327 1413 1281 1465 1369 1387 1139 1281 1846 1880 1825 1884 1982 2051 2156 2239 2399 2734 2775 2673 2568 2655 2367 2571 2259 2016 1773
157 405 398 1006 1320 1350 1399 1333 1133 898 808 801 871 1216 1301 1337 1313 1579 1687 1313 1766 1685 1415 1502 1846 1845 1873 1920 2017 2095 2239 2372 2344 2611 2798 2818 2829 2876 2933 2864 2859 2683 2515
0 166 517 936 1083 1471 1472 1483 1462 1346 1070 1240 1224 1322 1465 1533 1624 1760 1860 1745 1853 1860 1913 1686 1698 1662 1594 1449 1881 2081 2251 2418 2510 2547 2709 2726 2571 2250 2509 2719 3478 3196 2600
233 79 5 670 899 1136 1421 1374 1516 1476 1412 1440 1451 1579 1708 1748 1815 1917 2037 2122 1916 1880 2212 2004 1807 1683 1381 794 949 1642 2185 2537 2620 2625 2668 2748 2023 1875 1718 1671 1655 1951 3444
136 483 313 3 908 823 1364 1328 1523 1584 1593 1607 1712 1926 1965 1944 1981 2063 2225 2349 2318 1986 2177 1857 1859 2136 2258 1034 926 1046 1910 2420 2667 2869 2738 2516 2092 2011 2524 2173 1821 1654 1678
22 292 693 48 242 540 733 1249 1394 1726 1708 1748 1828 2053 2135 2092 2142 2158 2215 2351 2201 2504 2314 2099 2301 2352 2322 1403 931 809 1386 2524 2941 2990 2843 3018 3137 2913 2575 2784 2840 2967 3016
240 530 967 215 418 1039 1321 1483 1695 1793 1788 1837 1917 2009 2154 2224 2304 2311 2302 2160 1958 1984 2247 2243 2354 2493 2550 1462 1208 1091 1705 2048 2845 2948 2897 3081 3161 2612 2253 2544 2965 3361 3366
571 954 624 253 803 1388 1362 1505 1460 1855 1934 1967 2040 2061 2124 2293 2457 2539 2643 2674 2358 2247 1798 1894 2485 2144 2732 1823 1227 1040 1582 2146 1964 2753 3054 2010 1956 2231 2066 2210 2606 3299 2937
645 1305 839 1146 1556 1574 1313 1773 1813 2119 1873 1802 1782 2126 2425 2515 2649 2875 3017 2688 2599 2724 2538 2430 2746 2526 2311 2703 1779 1397 1655 1907 2098 2067 2066 2205 1800 1851 1806 1901 2935 3140 3110
665 875 1305 920 1142 1472 1737 2030 2160 2377 2584 2672 2625 2825 2869 2278 2219 3045 2884 2766 3030 2989 3026 2914 2802 2680 2689 1927 1955 1685 1739 1938 2606 2731 2731 2977 2307 2381 2580 2790 3000 3066 3025
1011 895 1247 1429 1694 1360 1469 1692 1918 2180 2566 2985 3177 3008 2944 2842 3300 3003 3052 2689 3046 2767 2879 2899 2931 2949 3013 3160 2440 2156 2255 2285 2328 2603 2605 2550 2671 2808 2962 3048 3037 3116 3230
1452 1213 1283 1389 1571 1958 2198 2478 2530 2124 2157 2521 2855 2945 2868 2970 3134 2812 2861 2879 2933 2945 2940 3064 3096 3119 3217 3288 3366 2708 2446 2484 2594 2651 2716 2790 2908 2971 3007 3041 3190 3344 3419
1478 1405 1462 1476 1562 1739 1853 1959 2080 2750 2460 2246 2161 2354 2406 2478 2872 3045 2748 2941 3404 2985 3146 3216 3287 3346 3425 3419 3167 3319 3333 2922 2742 2920 3060 3108 3147 3178 3196 3235 3372 3479 3421
975 1181 1345 1502 1595 1671 1697 1650 1644 1731 1968 2285 2575 2470 2253 1721 2201 2884 2287 2547 2617 2621 2734 2841 3024 3363 3068 3103 2961 2783 2878 3038 3282 3434 3466 3514 3612 3596 3609 3480 3452 2662 2622

GFSMW_con_mucape_054.txt.gz
CAPE
96 44 43 70 59 231 366 566 514 603 595 396 490 718 761 903 1126 1129 1484 1853 1729 1847 1544 1265 1354 945 918 1179 1453 1082 1179 221 265 75 84 159 305 450 328 226 107 339 339
103 73 140 116 123 391 492 617 718 773 803 234 485 508 704 809 1022 1345 1773 1988 1880 2106 1952 1734 1495 947 701 1201 1265 1155 436 273 250 103 64 65 24 40 116 194 272 340 325
148 62 156 138 130 371 611 744 976 1000 872 606 298 669 984 1252 1544 1664 1608 1971 2003 2082 2257 2187 1657 1473 1318 798 1054 1555 830 285 396 756 170 25 61 24 153 399 352 617 512
190 112 101 214 114 283 746 888 1183 1233 1002 920 773 1818 1114 886 742 1175 1017 1442 2094 2034 2194 2383 2129 1665 1131 1415 1077 1543 1023 931 177 370 142 634 551 132 332 207 302 438 470
138 147 117 317 253 197 370 902 1421 1868 1656 1598 1410 855 1469 438 566 802 1534 2013 2439 2205 1990 2446 2382 2220 1235 1428 1627 1639 1643 744 348 48 202 455 81 199 197 173 320 354 344
416 202 166 268 386 380 360 655 1604 2081 1803 1418 921 1853 1994 1421 672 1299 1208 1230 1286 1944 2255 2205 2503 2384 1637 1652 1668 1765 1867 1616 930 153 344 156 208 253 233 135 345 282 309
849 578 309 407 444 461 444 539 1531 1954 1752 1302 1121 1331 1664 1969 1649 1427 1150 1545 789 962 1675 2424 2601 2238 2602 2222 2663 2200 2207 2387 1312 1180 153 185 286 408 437 379 250 336 442
1011 916 749 558 687 672 604 625 1390 1898 1823 1483 1984 2288 2142 899 1091 1411 1015 879 701 730 1065 2180 2259 2417 2288 2268 2440 2225 1985 2255 1880 1959 1215 243 217 220 309 453 467 499 685
990 1087 1003 873 743 862 1382 1354 1877 1724 1807 1344 2274 2467 2399 2155 1349 2331 1429 1052 1678 671 887 1388 2090 2052 2212 2399 2406 2047 2478 2289 2424 2077 2070 1852 769 605 443 470 507 494 651
822 930 1158 1073 977 827 907 1002 1103 1717 1777 1378 1584 1587 1631 1946 2137 1705 2217 1819 1186 1396 975 1274 1554 1533 1876 2297 2596 2059 2320 2647 2268 2056 2175 2317 1181 1054 901 793 703 661 679
782 874 1084 1166 1118 974 901 1047 1066 1286 1379 1713 1855 1815 1557 1543 1598 1609 1686 1860 1745 1598 1840 1443 1324 1332 2032 2236 2527 2323 1999 2719 2805 2462 2209 2790 2833 1974 1160 1072 1033 923 853
447 837 953 1023 1172 1198 1051 1037 1057 1110 1217 1806 2303 2039 1999 2136 1537 1806 1743 1891 2036 1852 2000 1879 1676 1481 1745 2244 2561 2438 1748 2229 2552 2765 2759 2655 2249 2980 2818 1786 2006 1671 1780
131 543 792 1012 1113 1283 1286 1111 1092 971 1087 1657 1318 1465 1640 1693 2083 2065 1798 2264 2068 2110 1890 1964 2008 1816 1702 2145 2488 2555 2281 2099 2322 2538 2786 2777 2822 2859 2419 2308 1996 1928 2132
93 295 557 749 1239 1504 2101 2000 1289 1086 961 1190 1204 1793 1733 1943 1642 2490 2600 1989 2491 2303 2203 2187 2128 2028 1744 1668 2087 2251 2403 2313 2313 2545 2630 2950 3150 3269 3407 3374 3289 3204 3025
0 33 247 713 1587 1819 2328 2183 1470 1650 1424 2007 1303 1918 2499 2357 2522 2832 2882 2522 2678 2403 2339 2330 2297 2155 1883 1349 1933 1982 2053 2359 2442 2445 2792 2918 2861 2687 2980 3290 4365 4637 3382
126 72 38 512 945 1337 2046 2346 2486 2094 1913 2480 2211 2497 3033 2958 3031 3195 3335 3357 2964 2859 2836 2331 2397 2309 1819 930 794 1233 1805 2088 2498 2634 2751 2879 2376 2415 2327 2306 2254 2199 3779
242 343 526 361 221 1049 1546 1992 2805 2228 2427 2809 2718 2937 3208 3248 3326 3356 3522 3447 3442 3020 3289 2516 2573 2997 2769 1276 767 715 1493 1767 2534 3272 2738 2525 2030 2449 2938 2349 2085 1955 1826
72 346 609 768 1072 249 743 1511 1902 2900 2961 3160 3001 3131 3359 3374 3521 3561 3626 3740 3143 3331 3155 2852 3299 3341 3097 1769 1311 835 1631 2355 2703 2928 2838 3460 3227 2731 2233 2602 2760 2893 3153
103 263 525 917 1251 1373 461 1208 1656 2416 2828 3176 3210 3310 3397 3423 3277 3350 3426 3186 3262 3093 3081 2910 3235 3278 3548 1893 1608 1374 1755 1845 2887 2899 3182 3438 3570 2839 2385 2800 3272 3245 3174
344 548 1007 1426 1491 1592 379 772 1518 1976 2939 3039 3133 3308 3343 3499 3483 3479 3748 3763 3138 3210 2819 2876 3260 2691 3369 2562 1851 1485 1858 2354 1971 3056 3668 2230 2192 2471 2261 2798 2858 3418 2579
582 1167 1832 1733 1365 1150 419 1883 2113 2437 2639 2292 2351 2985 3432 3705 3670 3983 3942 3829 3220 3314 3397 3102 3539 3832 3151 3324 2221 1821 2278 1917 1931 1815 1613 1806 1494 1847 1723 1697 3066 3041 2576
1004 1662 1681 1485 970 1069 1292 2620 2924 2327 2708 2867 2823 3442 3586 2796 2714 4029 3548 3412 3586 3676 3872 3580 3206 2864 3067 2363 2563 2258 1941 1875 2396 2268 1717 2317 2024 1879 1823 1920 2155 2322 2536
1325 1397 1765 1715 1476 1453 1650 2000 3232 2931 3068 3171 3473 2887 2912 2864 3698 3727 3437 3262 3497 3266 3189 3171 3116 2977 2999 3352 2512 2253 2259 2058 1799 2497 2482 2690 2862 2892 2742 2602 2725 2865 3006
1233 1188 1583 1693 2163 2468 2098 2214 2508 2594 2775 2905 3008 3071 3149 3081 2913 3033 3190 3109 3102 3157 3055 3163 3149 3172 3243 3418 3699 2930 2614 2324 2041 2078 2215 2497 2630 2756 2906 3049 2882 2939 3010
1246 1076 1193 1166 1290 1500 1749 2170 2533 2616 2750 2934 3012 3213 3234 3162 3345 3454 2947 3242 3627 2804 3294 3203 3361 3467 3552 3577 3471 3719 4021 3332 2446 2412 2793 2943 2927 3080 3356 3563 3426 3603 3128
991 1213 1226 1173 1334 1171 1253 1524 1990 2313 2945 2673 2684 2762 2834 3128 3204 3381 2772 2555 2690 2745 2787 2880 3033 3614 3238 3327 3265 3221 3342 3370 3107 2898 3380 3204 3288 3369 3292 3338 3318 3458 3503

GFSMW_con_mucape_057.txt.gz
CAPE
333 180 73 62 22 71 130 443 882 2151 1161 944 865 878 846 1219 1343 1684 1703 1930 2054 1544 1864 2089 1464 1478 1890 587 800 96 500 69 34 36 55 32 15 151 112 84 203 143 226
343 242 125 69 24 148 249 1160 1307 2332 1436 952 1465 1275 1441 683 746 790 1880 1687 1523 1916 1572 1648 1425 1494 1435 1352 927 1025 671 198 306 531 417 174 49 97 134 71 65 235 244
393 292 197 123 45 166 419 1341 1964 2259 1867 1686 1320 1422 1459 1309 794 1577 1387 1838 1758 1748 1947 1609 2222 1558 1929 1145 1376 1361 2657 919 50 328 830 268 286 313 46 134 258 444 648
452 360 286 200 164 168 431 1432 1743 2390 1911 2072 981 2104 1037 751 667 1261 1079 1699 1929 1781 1903 1876 1722 2119 2096 2619 1828 1683 2207 2232 367 35 52 1101 405 722 1102 217 237 366 430
428 387 362 360 272 213 485 590 2097 2555 2285 2079 1832 1232 1671 693 647 607 3079 2954 3361 2064 1683 2257 1818 2052 1626 1786 1819 1790 1900 1024 1422 116 79 376 56 817 1089 582 360 368 274
466 408 346 414 384 255 426 898 2333 2883 2804 2509 2039 2504 1802 1802 501 889 1551 979 1700 1919 2287 2047 2817 2112 1903 1970 1976 1949 1709 2681 1573 1206 513 248 453 492 179 104 540 285 346
538 478 391 345 601 649 724 1310 2464 3022 2938 2492 1847 2007 2567 2652 3089 2544 917 1324 599 763 3142 3271 3022 2492 2556 2241 1934 2361 1972 2101 1500 1801 341 281 293 338 356 306 292 311 439
729 550 467 423 859 954 1247 1290 2312 3048 3094 2627 2508 2022 2646 954 852 1645 932 655 461 601 3613 2623 2217 2365 2424 2352 2895 2150 1989 3036 1948 1880 2350 587 223 221 280 474 596 686 776
835 889 682 517 859 1123 1589 1544 2124 2782 2935 2116 2739 2711 2405 1889 694 1604 2556 1360 1697 817 1105 2124 2258 2118 2057 2666 2926 1816 3020 2518 2431 2641 2433 1714 649 589 422 452 524 610 825
759 883 1063 856 692 747 953 1520 1967 2600 2514 2409 2807 2659 2529 2625 2182 2366 3325 2303 2464 2622 1450 1960 1651 2122 2630 2736 3675 2594 2768 3134 2309 1651 3396 2939 1307 1228 872 743 667 638 601
576 789 1155 1171 1016 904 870 1041 1416 2159 2269 2428 2604 2323 2367 2248 2316 2995 3125 3334 2862 3267 3041 2668 2304 2271 2357 2785 3881 3639 2641 2746 3285 3005 2531 3519 3844 2112 1320 960 844 815 790
370 728 809 1093 1208 1194 1093 1149 1152 1160 1850 2270 2768 2484 2676 2249 2098 2314 2909 3319 3400 3029 3488 3141 2931 2432 2099 2970 3568 2624 2300 2691 2782 2926 3505 2553 2232 3997 3922 2319 3596 1923 2367
171 512 654 831 1274 1333 1587 1166 1201 1159 1227 2085 2004 2481 2485 2495 2250 2850 2700 3127 3476 3721 2432 3266 3532 3039 2417 3145 3457 3639 3268 2975 3032 2988 3319 3228 3529 4145 2836 3631 2216 1623 2341
204 247 579 835 1162 1753 2336 2234 1402 1242 1121 1301 1554 2219 2591 2622 2515 2976 3141 3237 3531 3722 3615 3693 3655 3370 2961 2772 2733 3208 3399 3353 2821 3163 3288 3382 3700 4176 4536 3838 4493 3716 3315
75 229 286 1409 2517 2394 2865 2606 1828 2042 1629 1932 1835 2149 2670 2840 3074 2873 3348 3317 3566 3654 3841 3954 3817 3673 2856 2078 2842 3170 3324 3636 3308 3274 3432 3307 3292 2612 3646 3240 4051 4127 3745
0 1 187 499 896 1539 2831 2983 2661 2455 2083 2424 2123 2277 2927 3115 3084 3043 3317 3600 3703 3842 3976 3885 3911 3801 2191 1436 1222 1968 2736 3338 3583 3691 3682 3738 2452 2243 2174 2393 2490 2491 3927
104 144 190 122 382 933 1810 2494 3013 2566 2773 2865 2842 2791 3099 3214 3232 3276 3531 3730 3837 3964 4176 4061 3980 4029 3906 1605 1175 865 2212 2916 3302 3632 3798 3280 1881 2637 3722 2707 2350 2351 2273
316 388 476 507 541 503 900 1398 2121 3235 3147 3121 3526 3074 3532 3438 3563 3711 3764 3952 3985 4002 4124 4168 4208 4201 3964 2434 1562 1092 2153 2289 2855 3517 3678 3987 3719 3716 3463 3988 3768 3524 3696
657 638 599 584 793 974 779 870 1833 3317 3256 3697 3393 3606 3494 3839 3903 3903 3970 4098 4127 4138 4095 4170 4312 4379 4263 2392 1989 1504 2021 2166 2922 3123 3202 3577 4082 3479 2671 3323 3554 3901 4082
660 931 1036 1060 1186 1366 1367 1309 946 2392 3500 3627 3525 3828 3732 4025 4052 4123 4240 4279 4208 4179 3612 3926 4310 3995 4506 3419 2261 1779 2253 2449 2153 3218 3586 2499 2288 2705 2757 3286 3714 3880 4056
470 747 1614 1727 1897 2086 1774 2103 1525 2155 3165 3509 3738 4120 4036 4173 4293 4450 4439 4451 4387 3724 4296 4167 4267 4393 4051 4334 2785 2225 2811 2145 2237 2125 1926 2239 1928 1893 1698 1822 3486 3530 3638
627 1105 1849 2356 2247 2208 2309 3111 2770 2327 3459 3695 3892 4138 4295 3696 3648 4488 4483 4478 4474 4495 4703 4540 4367 3599 4540 3240 3255 2721 2238 2342 2625 2264 1248 1736 1064 1231 1612 1696 1565 1578 1725
1081 1367 1642 2975 2903 2223 1840 2996 2749 3727 3917 4059 4115 4171 4252 4226 4238 4424 4590 4076 4442 3503 3546 3409 3165 2928 2841 3551 2692 2668 2628 2398 2140 2478 1588 1631 2267 2417 2262 2347 2498 2692 2557
1285 1376 1706 1664 1874 2032 2537 2980 3024 3833 4185 4219 4253 4288 4192 4197 4189 3790 3755 3442 3258 3264 3111 3051 2922 2733 2548 2234 2708 2425 2326 2479 2306 2052 2002 2178 2254 2618 2871 3187 3138 3028 3063
1021 1240 1458 1517 1494 1828 1851 1905 2158 3693 3207 3992 3807 3934 3504 3436 3948 3774 3369 3344 3638 2899 3200 2716 2450 2204 2742 2739 2858 3196 3436 2901 2387 2381 2685 2552 2589 2912 3296 3799 3877 4029 4042
1040 1308 1396 1291 1231 1287 1349 1511 1786 2259 3306 3222 3394 3136 3077 3471 3469 3429 2569 2650 2648 2494 2411 2504 2487 3033 2810 2763 2913 2889 3226 3593 3510 2770 3015 3269 3384 3566 3612 3832 4008 4007 3781

GFSMW_con_mucape_060.txt.gz
CAPE
199 92 44 15 155 262 360 1100 1539 1943 1432 1624 1531 1131 1306 487 1937 1398 1549 3020 2865 2473 3326 2578 2218 1696 173 625 1915 1459 670 858 467 472 918 589 337 312 1005 624 486 402 1075
226 148 65 12 77 274 384 1111 1575 1910 1379 1659 1852 2134 958 576 128 1772 1990 2578 2687 2857 2992 2735 2557 1441 860 1729 1934 393 712 1662 954 1050 704 565 377 670 74 841 601 656 476
381 252 108 69 54 338 439 841 1581 1770 1485 2044 1638 2619 2871 2047 912 2115 2354 2733 2914 2770 2698 2867 2639 2405 2072 2359 2006 1315 2207 1602 641 1124 1171 787 140 656 665 339 844 821 412
544 371 172 183 52 425 565 885 1607 2069 1440 2233 1432 2381 1967 2029 1365 2113 1602 2423 3066 2854 3035 2972 2966 2698 905 2396 2441 2123 1913 563 1385 1286 840 988 789 541 463 1191 1066 864 809
457 447 255 231 93 472 555 885 1368 2145 1430 1529 2104 1830 2151 1593 2085 1427 1544 2669 3473 3287 2645 2893 3187 2765 2785 2833 2453 2104 2307 2433 1388 1624 1065 1261 1369 1749 900 696 1145 1030 1156
527 554 435 318 257 346 458 917 1304 1741 1786 1443 1619 2367 1594 2404 2047 2046 1731 2327 2555 2983 3213 2896 3243 3433 2611 2404 2854 3064 2753 2760 2999 1923 2062 913 964 1149 1210 1087 949 1129 977
595 639 620 495 388 342 573 871 1251 1462 1732 1556 1159 2159 1887 1847 2596 3175 1799 1732 2078 1918 2851 3535 3201 2987 3515 3164 2899 3167 3072 3189 3240 2843 2432 1200 407 300 1631 1093 1725 1043 1323
533 650 668 684 563 524 577 854 1405 1484 1604 2116 1153 1342 2278 1354 1443 2613 1520 2539 1552 1653 2639 3180 2848 3231 3261 3084 2920 3150 3083 2981 3158 3188 3105 2403 1894 1018 1206 1426 1579 1426 1795
327 737 793 676 861 774 674 1023 1457 1683 1894 1611 1897 1042 1767 1812 1033 2262 2547 2026 2391 2276 2731 2970 3421 3150 3328 3116 3164 2597 2764 2640 3181 3070 3469 3102 1999 1466 1142 1480 1513 1812 1357
34 267 921 777 927 876 1010 945 1602 1835 2086 1907 2009 1681 828 1663 1646 1114 2621 1882 2604 2317 2983 3218 3005 3182 3518 3661 3541 2905 3118 3051 2578 2911 3004 3198 2189 2121 2241 1766 1973 1950 1635
48 226 378 922 840 964 1155 1075 1141 2127 2345 2311 1979 1904 1572 1194 1126 1603 940 2342 2002 3990 3306 3733 3274 3062 3062 3650 3645 3077 3174 3116 3141 3463 3570 3235 3060 3103 2994 2757 1960 1818 2187
422 170 13 382 929 928 1060 1378 1246 1545 2167 2327 2144 2053 1996 1443 1339 797 1924 2188 2620 2608 3728 3292 3877 2998 3074 3135 3235 3240 2037 3053 3151 3465 3228 3516 3302 3996 3608 3090 3100 3315 3556
140 116 93 565 1031 940 1071 1227 1359 1300 1941 2312 2133 2191 2127 2049 1669 1244 1024 2160 2296 3151 2567 3370 3047 3292 2801 2820 2963 3249 2963 2864 3336 3277 3414 3237 3513 3689 3664 3726 2929 2418 2672
417 374 485 804 1292 1229 1298 1319 1267 1305 1434 1975 2067 2061 2068 2018 1855 2006 1147 2235 2461 2269 2679 2769 3190 3068 2793 2480 2555 3251 3180 3006 2795 3297 2949 3414 3592 3564 3932 3558 3471 3438 3442
280 167 672 924 1490 1742 1770 1707 1612 1395 1413 1591 1783 2111 2264 2075 2108 1857 1966 1281 2039 2489 2755 2854 3078 3133 2974 2460 2315 2561 3062 3181 3052 2903 3206 3151 3281 2944 3429 3376 3658 3649 3620
74 231 373 909 1048 2040 2178 2054 1867 1791 1665 1669 1763 1937 2275 2242 2317 1987 2223 2267 2157 2438 2815 2966 3054 3209 2930 2211 1651 2007 2335 3209 3096 3020 2966 3480 2308 2108 2064 1998 2428 2583 3312
506 732 756 819 606 719 1316 2489 2407 2075 2047 2094 1962 2022 2384 2457 2291 2524 2126 2735 2436 2731 2795 2941 3109 3215 3222 2212 1592 1520 2127 2382 2856 3081 3004 3043 2476 2407 2986 2201 1750 1876 2089
772 703 346 537 470 13 211 2570 2693 2765 2748 2262 2513 2305 2277 2391 2554 2496 2715 2457 2852 2717 2958 3006 3074 3204 3247 2843 2032 1390 1514 2166 2551 2654 2885 3159 2883 2698 3179 3128 3134 2747 2552
271 615 525 635 1241 1337 1422 1895 2837 2742 2474 3015 2458 2803 2248 2564 2558 2653 2583 2704 2742 2945 2952 3081 3206 3214 3237 2957 2562 1967 1279 1625 1980 2080 2596 3255 3106 2706 2409 2207 2592 2907 3229
32 340 640 764 1192 1393 1379 1390 1603 3295 2706 2424 3063 2681 2724 2625 2773 2722 2769 2829 2910 2938 3050 3044 3185 3230 3415 3137 2827 2446 1767 1631 1847 2207 2449 2029 1797 2052 2733 2790 2899 2806 2755
6 17 91 619 1359 2415 2006 1698 1725 1802 3350 2836 2560 3400 3444 2813 3201 3127 3108 3190 3234 3200 3356 3338 3358 3632 3494 3663 3144 2589 2161 2052 2140 1954 2136 2369 2267 2120 1813 1844 2479 2766 2861
75 317 457 983 2323 3124 2947 2350 2368 2104 2717 3600 3117 3451 3384 3382 3176 3669 3645 3527 3513 3571 3596 3603 3695 3617 3945 3397 3566 3221 2513 2194 2420 2303 2281 2077 1961 2263 2119 1926 1678 1665 2040
261 710 814 1337 2040 2167 1981 3400 3328 3177 2810 4018 3528 3675 3860 3759 3404 3807 3770 3849 3849 3714 3613 3655 3643 3739 3653 3948 3261 3266 3220 2751 2270 2465 2259 1951 1618 1363 1221 1164 1542 1523 1479
137 469 818 982 1508 1672 1559 1769 2391 3439 3692 2828 3991 3842 4015 3851 3597 3789 3814 3898 3873 3851 3743 3421 3789 3597 3593 3637 3827 3218 2989 3008 2780 2542 2248 2230 1876 1997 2289 2755 2668 2492 2584
230 389 646 597 815 1154 1559 1704 2115 2696 3368 3972 4013 3951 3905 3448 3811 3461 3816 3803 3729 3635 3624 3593 3280 3562 3357 3029 2981 2993 2710 2667 2645 2586 2466 2490 2412 2271 2622 3304 3744 3251 3267
118 340 501 563 676 1150 1437 1944 2166 2243 2881 4200 4065 3784 3719 3685 3739 3352 3202 3305 3442 3220 3247 3116 3104 2611 2579 2384 2183 1826 2505 2188 2561 3048 2898 2723 2801 2819 2665 2795 3279 3866 3771

GFSMW_con_mucape_063.txt.gz
CAPE
51 24 30 10 35 0 0 77 220 158 668 802 684 757 541 443 1043 970 1333 1453 1091 1453 785 1106 1175 693 74 280 1137 464 531 82 74 103 187 188 249 211 253 417 600 873 837
61 17 15 1 0 20 0 113 329 300 598 686 713 595 677 246 692 962 577 1714 1263 1462 1186 734 1232 818 94 466 652 77 65 722 35 143 320 116 23 148 130 202 346 222 820
55 30 7 0 0 4 37 161 589 362 563 400 476 1234 590 187 213 989 967 1452 1562 1322 1607 1030 1128 597 1067 956 705 509 1009 734 316 58 156 138 115 409 207 219 193 241 602
71 57 26 0 21 0 39 432 690 437 621 594 319 625 739 408 285 915 1234 1546 1571 1332 1390 1586 1285 1109 817 1079 846 1083 908 630 243 416 45 216 167 112 136 230 326 264 379
213 166 79 1 31 0 0 407 861 541 300 817 389 404 752 997 672 800 1189 1502 1771 1649 1405 1419 1725 1249 721 910 1131 922 1118 1221 1370 986 480 122 37 165 162 173 480 334 285
273 210 219 106 5 22 4 220 957 474 365 394 1100 285 741 717 884 761 1344 1502 1873 1637 2021 1304 1544 1170 1246 1107 1253 1643 1294 1037 1590 1562 1150 290 87 215 233 383 360 202 253
343 291 242 182 132 141 64 133 599 846 358 290 398 1206 531 461 1088 1056 872 1277 1496 1846 2010 1453 1721 1763 1259 1443 1401 1494 1910 1513 1643 1815 1256 964 773 198 623 447 563 385 358
312 370 342 245 206 199 182 253 301 662 620 262 233 462 1341 281 575 1072 1009 1145 1319 1284 1492 1553 1578 1620 1914 1369 1556 1294 1756 1414 1950 1302 1819 1257 743 950 325 128 295 345 499
291 429 402 331 280 164 192 317 369 327 734 565 93 307 991 603 362 557 994 1170 1396 1155 1366 2116 1544 1567 1769 1673 1547 1422 1860 1811 1800 1786 1572 1808 1059 743 804 287 317 360 376
507 415 464 335 326 226 239 228 482 447 687 706 445 73 363 1147 449 345 750 1140 469 1308 1356 2164 1591 1941 1780 1447 1747 1177 1520 1538 1383 1071 1832 1409 1229 879 1642 1395 644 800 588
237 232 335 519 435 301 181 307 636 523 638 589 885 323 73 606 853 512 223 957 731 1381 1988 1918 2309 2135 1877 2073 2011 1426 1736 1502 1290 1374 1700 1735 1514 1113 1498 2423 2037 1396 813
165 235 196 413 520 534 406 273 530 795 766 813 709 965 331 97 647 594 587 200 857 877 1931 2061 2041 2043 2055 2162 2094 1911 1604 1761 1836 1677 1884 2055 1992 1736 1638 2030 1877 1821 1978
315 280 234 335 405 413 561 458 435 994 1022 1108 865 1042 941 253 204 250 470 610 1048 676 1900 2063 1972 1894 1769 1718 2071 2131 1849 1742 1899 1919 2227 2010 1936 2347 2560 2593 2287 2304 2084
360 275 199 14 1 335 552 509 487 620 1268 1374 1430 1152 1079 1010 302 179 36 826 575 1893 1103 2071 1697 2013 1575 1754 1881 1953 2076 2075 1858 2276 2066 2094 2142 1974 2118 2377 2516 2349 2333
530 280 246 117 255 138 509 624 586 558 842 1517 1577 1483 1301 1114 1071 572 400 1 1041 760 2062 1463 2299 1835 2058 1731 1637 1826 2175 2178 2116 1950 2007 2330 2169 2493 2617 2673 2741 2815 2805
398 411 109 94 263 356 534 693 654 774 692 1169 1615 1610 1457 1386 1280 1184 900 695 167 1418 838 1529 1731 2302 2096 2046 1808 1553 2060 2398 2208 2206 2220 2203 2352 2315 2382 2489 2802 2922 2973
135 274 167 205 135 123 334 151 720 835 929 913 1426 1534 1529 1499 1431 1340 1192 1268 1019 781 1702 1348 1511 1751 2095 2192 2160 1846 1429 1590 2310 2335 2218 2255 2217 2308 2364 2247 2106 1941 1786
54 109 194 368 533 280 223 322 373 1101 1036 983 1037 1472 1531 1481 1564 1452 1397 1187 1217 1023 739 1437 1775 1912 1968 2352 2279 2132 1725 1453 1513 2220 2399 2258 2165 2190 2124 2035 2133 2186 2087
67 43 133 79 128 533 523 650 704 1006 1083 1398 1244 1416 1445 1639 1693 1534 1501 1370 1457 1430 1157 1499 1729 2013 2108 2302 2500 2289 1849 1509 1483 1646 1778 2227 2381 2326 2309 2115 2095 2549 2903
70 67 35 51 47 91 486 631 179 342 777 1450 1632 1531 1478 1607 1685 1735 1474 1657 1390 1413 1771 1531 1874 2044 2102 2241 2442 2482 2194 1684 1366 1357 1648 2066 2059 2072 2089 2147 1997 1937 1761
10 1 28 36 120 633 1685 1762 1128 869 1123 1845 2071 1867 1693 1529 1761 1755 1832 1623 1795 1700 1667 1976 1904 2080 2279 2303 2417 2575 2402 1783 1307 1325 1203 1322 1466 1502 1469 1682 1895 2245 2441
1 0 65 100 146 633 1188 1602 1588 1468 1647 1605 2184 2330 2232 1753 1864 1883 1886 1909 1812 1909 1898 1928 2122 2092 2250 2395 2608 2594 2592 2369 1915 1440 1266 1171 1410 1602 1578 1523 1526 1501 1435
0 0 2 53 190 296 777 1002 1590 1964 2381 2346 2496 2319 2475 2330 1957 2205 2048 2078 2066 2061 2074 2113 2148 2268 2332 2585 2696 2758 2838 2626 2419 2057 1759 1622 1635 1655 1738 1843 1931 1891 1746
0 0 0 0 32 132 395 545 1107 1428 2056 2424 2678 2777 2517 2703 2299 2600 2288 2299 2272 2354 2262 2360 2373 2390 2405 2655 2823 3050 2982 3011 2941 2664 2294 1895 1800 1750 1691 1665 1668 1257 1173
2 0 0 0 1 106 301 482 907 1407 1706 2174 2601 2804 2673 2882 2771 2500 2846 2625 2614 2553 2534 2504 2508 2484 2770 2625 2902 3086 3129 3107 2870 2875 2720 2406 2122 1892 1828 1887 1847 2160 2272
3 0 0 0 0 73 301 573 831 1379 1747 2251 2690 2739 2869 2971 2852 2678 2678 2984 3010 2928 2834 2769 2839 2769 2802 2948 2712 3032 3167 2977 2892 2614 2484 2355 2225 2103 2002 1899 1909 2478 2563

GFSMW_con_mucape_066.txt.gz
CAPE
11 70 29 0 2 0 0 210 314 178 174 297 404 94 369 540 545 367 660 878 913 743 723 399 691 240 91 528 166 46 260 112 67 117 168 206 302 467 456 514 757 899 805
63 96 58 19 13 1 0 0 156 90 350 317 254 414 309 717 868 568 996 882 965 992 522 907 869 139 120 565 89 54 301 209 45 82 135 60 27 262 288 296 466 689 866
149 120 30 25 21 0 40 35 123 100 454 251 400 566 444 325 690 714 847 1244 885 1232 851 896 894 367 55 352 235 218 362 118 111 59 147 163 18 203 111 155 215 296 269
146 77 49 68 20 19 3 65 176 109 435 469 359 808 483 210 403 650 624 1011 1224 1108 1235 861 727 440 628 652 580 928 519 252 97 160 57 130 113 68 25 128 167 271 296
125 119 63 65 0 0 0 239 206 160 264 453 183 425 745 406 140 527 774 840 1304 1026 1105 1272 964 706 473 635 624 664 833 961 923 541 578 97 30 106 133 144 167 243 171
224 173 159 72 85 72 0 392 236 177 255 258 196 101 478 642 438 343 788 926 1395 1146 972 1077 1228 766 526 592 835 907 943 762 1090 1079 720 517 75 78 278 240 302 274 402
350 224 224 217 176 135 53 390 310 178 177 284 550 146 332 471 779 580 697 956 1396 1258 1299 1039 1175 889 706 844 871 1094 1345 846 1080 1266 752 597 603 386 341 181 337 338 294
425 324 287 332 301 228 145 294 374 234 120 225 389 703 341 221 499 841 693 921 1222 1267 1275 1297 1068 1241 1003 1101 938 1214 1146 1312 1384 1312 1158 1055 412 634 602 126 165 290 427
465 407 382 388 279 232 157 175 399 234 148 66 56 186 723 636 319 753 870 969 908 1016 1291 1557 1252 1253 1293 922 1156 1165 1035 1425 1209 1494 911 1226 1032 427 384 1358 185 195 226
432 492 469 456 387 291 240 160 137 299 251 119 58 0 204 584 754 342 670 1002 998 1049 1036 1602 1457 1151 1250 1230 962 1106 1137 1434 1209 1264 1255 1049 928 487 578 1396 1415 501 463
349 485 500 449 434 422 393 303 249 144 451 346 153 37 17 227 793 660 267 745 1162 1086 1116 1422 1528 1376 1222 1243 1240 1149 901 1208 1234 989 906 1225 1503 1206 993 1158 1640 1604 1462
397 386 473 468 404 373 369 314 251 222 173 458 356 163 0 60 339 792 540 217 811 804 1165 1350 1578 1479 1304 1318 1220 1366 1191 1164 1411 1087 972 1419 1665 1727 1634 1329 1520 1340 1348
352 388 511 503 447 471 392 325 366 345 290 396 411 405 170 0 84 379 639 547 199 607 1583 1538 1723 1618 1504 1535 1601 1577 1454 1322 1399 1425 1380 1260 1534 1681 1871 1782 2063 2034 2109
350 341 152 217 138 296 445 427 420 534 450 454 491 539 608 259 28 49 318 400 577 132 847 1675 1580 1519 1669 1786 1707 1733 1666 1562 1410 1365 1496 1620 1734 1666 1592 1985 1969 1908 2051
153 101 160 111 125 120 355 433 450 502 674 578 664 512 703 747 450 197 17 150 266 457 301 1066 1662 1615 1460 1427 1393 1455 1558 1611 1527 1503 1550 1725 1867 1945 1734 1896 1978 2054 2120
182 214 142 134 156 89 63 337 383 475 794 832 802 913 650 862 852 671 506 194 9 178 539 920 1130 1476 1610 1452 1410 1379 1449 1520 1503 1422 1490 1682 1617 1799 2083 2073 2223 2265 2277
119 89 130 75 48 87 58 61 100 475 495 1097 1126 1157 1237 1017 943 928 870 763 532 81 280 593 1217 1361 1454 1506 1526 1343 1193 1431 1507 1508 1528 1625 1723 1867 1887 1989 2110 2005 2195
160 121 34 176 38 87 227 188 281 319 684 751 1394 1559 1497 1439 1355 1153 1020 990 896 748 409 549 540 1057 1440 1794 1790 1623 1497 1328 1319 1594 1786 1892 1871 1845 1897 1902 1881 1883 1913
4 174 18 49 92 122 304 421 431 377 597 1024 993 1164 1672 1595 1518 1433 1300 1187 1132 1043 982 580 1036 851 777 1117 1540 1813 1790 1574 1505 1427 1226 1582 1621 1711 1862 1900 1840 1800 1910
0 0 1 1 43 31 397 502 642 241 157 965 1056 1065 1099 1510 1610 1509 1452 1364 1311 1217 1138 1046 857 1190 1384 1430 1458 1686 1561 1474 1549 1510 1412 1347 1497 1642 1803 1866 1828 1848 1781
0 0 0 0 4 28 129 478 433 412 545 475 846 1085 976 1241 1479 1506 1476 1438 1394 1309 1240 1186 1066 879 939 1227 1506 1651 1624 1459 1321 1344 1236 1164 1224 1361 1474 1654 1430 1458 1539
0 0 0 0 7 0 0 10 274 327 416 551 461 581 1495 1602 1735 1504 1542 1465 1407 1400 1308 1350 1429 1210 1276 1543 1610 1738 1876 1684 1550 1371 1138 1010 961 986 1224 1606 1789 1893 1925
0 0 0 0 0 0 0 3 1 106 92 85 218 341 1000 1887 1745 1852 1686 1583 1466 1481 1523 1335 1269 1552 1603 1564 1760 1841 1867 1933 1881 1676 1521 1239 1091 1028 978 1038 1092 1129 1122
0 0 0 0 0 0 0 0 0 34 108 354 146 324 856 1833 2035 1946 1935 1805 1667 1525 1524 1660 1587 1506 1598 1765 1800 1865 2057 2103 2110 2088 1990 1884 1743 1644 1613 1499 1354 1408 1505
0 0 0 2 0 0 1 0 2 27 75 231 557 847 1252 1890 2210 2060 2104 2026 1922 1751 1656 1615 1620 1659 1674 1694 1900 1991 2022 2136 2237 2363 2372 2143 2079 2114 2105 1940 1646 1539 1512
9 1 0 2 0 0 4 2 0 2 18 83 330 1104 1431 2065 2436 2432 2290 2221 2155 2038 1903 1758 1737 1767 1830 1884 1972 2048 2299 2376 2412 2300 2118 2232 2257 2239 2270 2218 2021 1783 1639

GFSMW_con_mucape_069.txt.gz
CAPE
3 9 14 8 40 88 84 116 287 383 397 514 241 373 445 442 386 254 483 894 770 309 44 294 307 78 183 270 245 66 123 178 183 223 308 253 223 469 532 414 408 535 609
1 2 19 9 10 69 60 121 249 168 229 472 241 205 406 393 401 272 559 863 837 676 520 343 768 143 237 126 116 98 177 122 84 107 119 89 39 121 335 419 365 483 622
9 1 6 0 3 1 41 159 206 136 147 294 260 248 421 584 599 489 637 945 860 877 612 799 708 536 121 95 36 61 70 28 37 58 138 132 5 73 95 113 191 177 272
7 27 0 0 0 0 8 91 125 138 136 210 194 299 295 403 705 609 721 1151 1001 1164 1141 757 823 408 74 353 479 563 236 44 23 52 57 109 108 39 0 86 91 138 124
99 57 20 40 48 0 0 0 0 82 112 217 161 326 244 308 329 686 690 660 1123 1045 1161 861 862 486 528 367 506 675 441 630 238 184 462 82 32 21 75 111 157 125 186
125 70 92 53 94 0 0 0 0 0 87 221 185 184 421 398 294 231 522 678 903 1211 1026 1017 1021 819 448 547 523 592 710 812 842 706 562 369 64 48 166 201 223 290 353
206 145 174 117 104 42 9 0 0 0 43 147 150 139 183 453 563 372 258 636 759 1111 1173 896 1145 856 623 509 580 853 929 717 866 941 451 450 459 294 179 142 210 350 254
248 232 186 155 126 77 41 60 30 21 19 96 134 113 51 116 423 543 685 489 773 1056 1224 1021 1014 1169 899 593 783 868 1195 1304 758 991 1099 909 359 499 793 99 111 176 311
155 218 243 182 156 137 123 191 121 68 0 69 84 123 68 3 283 365 657 699 685 992 1220 1147 1073 992 1016 853 882 914 1078 1143 1179 1120 1147 763 934 431 208 1229 248 173 183
316 171 265 247 184 194 209 290 247 201 117 27 61 82 195 201 94 254 485 894 861 820 1024 1190 1215 1238 1127 1172 938 1176 1116 1048 1197 1234 1273 1115 707 561 173 927 1405 801 440
279 248 221 315 291 269 304 313 266 319 256 184 78 62 84 266 507 395 243 433 822 878 905 1000 1268 1355 1388 1200 1249 883 1004 1120 1226 1098 1078 1122 899 1147 893 853 1180 1234 1406
189 198 206 313 262 304 319 351 339 312 317 292 98 70 32 49 194 370 445 409 267 728 1055 1004 1206 1306 1383 1344 1134 1125 1038 1065 948 1199 1149 877 988 1261 1456 1423 1251 1450 1222
304 212 206 239 256 319 257 309 211 277 336 326 259 89 41 5 51 135 317 408 414 185 572 874 996 1228 1240 1228 1266 1109 1096 1189 1216 1137 1446 1364 1123 1265 1576 1579 1617 1617 1923
395 288 240 243 284 331 297 358 266 223 183 242 307 232 135 83 45 30 71 325 422 427 222 820 1058 1242 1254 1242 1267 1188 1225 1302 1393 1380 1299 1300 1373 1459 1420 1364 1529 1864 1874
381 292 233 313 197 283 284 196 162 209 223 191 244 336 290 219 135 72 36 34 199 284 352 328 1119 1409 1375 1399 1319 1302 1368 1396 1535 1562 1508 1437 1419 1530 1665 1665 1652 1395 1651
312 259 349 245 189 79 43 53 253 342 374 420 340 339 343 354 310 251 128 62 19 38 119 200 254 869 1235 1333 1384 1376 1420 1543 1530 1495 1461 1462 1459 1525 1640 1813 2160 2217 2237
79 176 227 167 193 108 128 258 184 186 429 521 433 404 412 452 541 426 352 224 147 120 25 24 139 292 689 1186 1359 1294 1250 1241 1167 1138 1180 1240 1248 1330 1440 1562 1554 1727 1920
20 76 105 84 119 155 237 550 468 326 298 516 608 554 585 544 571 677 552 486 416 351 268 233 103 167 355 676 1195 1382 1375 1281 1173 1165 1165 1189 1193 1298 1503 1608 1664 1698 1723
0 0 82 50 146 86 133 538 994 409 242 461 737 930 845 952 841 798 767 714 672 675 664 604 508 390 257 561 918 1093 1083 1179 1186 1137 1147 1213 1322 1411 1515 1650 1732 1680 1729
0 0 0 120 50 84 116 96 305 434 316 207 547 946 1308 1454 1347 1265 1239 1156 1041 991 968 922 836 761 609 470 478 1160 1000 976 1169 1231 1254 1274 1182 1268 1406 1485 1406 1380 1425
0 0 0 0 5 0 55 94 155 199 261 289 339 580 916 834 864 1317 1451 1441 1380 1240 1201 1155 1064 1024 929 740 609 464 915 869 881 959 913 974 1008 1147 1283 1313 1360 1380 1390
0 0 0 0 0 0 1 0 14 86 159 207 193 177 443 664 864 1393 1362 1384 1398 1359 1271 1250 1188 1128 1094 1019 871 946 820 758 837 943 917 857 955 972 997 1084 1156 1286 1401
0 0 0 0 0 0 0 0 92 0 1 135 70 129 102 250 342 1212 1569 1398 1371 1509 1460 1308 1266 1152 1126 1094 1067 1038 968 1251 1253 1113 1086 1178 1200 1198 1114 966 888 884 949
0 0 0 0 0 0 0 0 0 0 0 0 100 102 107 191 186 825 1522 1525 1482 1478 1470 1375 1311 1235 1173 1307 1244 1172 1158 1200 1184 1235 1364 1492 1545 1582 1583 1531 1448 1354 1363
0 0 4 15 5 0 0 0 0 0 0 0 26 145 112 26 336 517 1367 1662 1703 1630 1579 1539 1456 1504 1437 1405 1429 1469 1422 1427 1508 1585 1620 1646 1684 1782 1835 1846 1861 1869 1849
0 0 2 9 4 2 0 0 0 0 0 0 2 79 96 35 58 612 1018 1851 2058 1826 1619 1685 1722 1767 1737 1679 1650 1571 1651 1577 1555 1550 1600 1512 1523 1546 1587 1641 1676 1789 1976

GFSMW_con_mucape_072.txt.gz
CAPE
48 9 0 17 36 45 30 94 161 211 155 139 383 262 242 250 203 393 156 487 366 330 141 206 320 383 361 143 216 181 330 318 371 420 410 459 362 293 477 566 422 399 515
44 31 5 8 15 36 35 26 113 193 186 197 343 270 321 303 188 283 204 496 642 280 69 177 443 121 225 366 239 97 220 219 165 197 254 194 32 23 75 137 373 384 514
36 51 0 0 0 6 24 5 20 167 240 226 193 240 233 259 278 286 222 611 634 599 573 365 493 148 214 104 126 109 161 145 155 152 203 274 101 67 45 44 84 144 193
34 28 0 0 0 0 3 12 10 105 217 278 195 109 197 259 285 290 220 645 740 785 765 491 541 472 236 173 103 308 134 35 75 108 82 121 161 84 177 67 55 59 189
37 44 24 0 0 0 0 0 3 9 117 188 220 107 144 268 335 442 422 448 912 875 990 720 729 461 236 288 575 582 325 265 74 172 414 137 77 21 179 216 183 136 145
109 37 29 5 3 5 0 0 0 41 84 46 138 141 144 203 209 310 440 512 500 929 909 1015 860 660 461 386 348 503 593 783 743 517 546 534 137 77 169 229 194 188 339
253 125 61 14 9 30 63 18 29 16 18 1 70 102 90 120 155 160 256 493 463 680 1018 917 961 803 724 390 519 554 628 529 849 1008 589 446 500 378 134 139 221 309 310
229 261 162 73 0 19 28 88 6 19 0 0 1 85 78 104 139 175 220 176 423 651 814 987 872 870 819 629 552 582 869 920 759 938 1098 878 535 414 625 739 136 396 185
228 238 279 179 82 67 85 137 71 38 0 0 0 87 126 89 208 386 471 447 446 705 950 915 988 846 945 926 616 754 827 989 1087 1050 1023 929 990 658 238 827 923 281 531
421 274 288 290 218 163 206 180 137 147 112 97 54 39 54 76 40 115 368 438 590 639 912 980 951 1005 947 994 909 824 905 960 978 1031 1060 1009 873 670 439 788 1016 1236 976
435 407 322 287 283 240 221 226 172 190 210 215 174 65 55 45 0 0 110 343 466 733 831 988 1126 1000 910 968 1032 968 834 947 1046 1038 1011 1101 998 946 864 735 1101 1040 1100
119 445 341 241 186 237 249 267 167 110 226 243 255 156 41 59 104 0 0 101 363 432 705 858 1095 1156 1062 1049 1188 1218 1073 842 884 1048 1068 1069 978 1051 1093 1296 1344 1293 1388
207 209 250 326 290 156 198 237 258 174 108 242 238 232 132 4 60 108 81 90 175 222 343 641 948 1152 1193 1111 1131 1252 1204 1071 986 1023 1063 1176 1228 1230 1322 1407 1458 1570 1675
394 257 293 308 251 233 208 259 253 207 218 212 253 265 229 110 0 0 39 0 57 166 242 371 651 978 1151 1168 1191 1175 1161 1154 1090 1130 1214 1335 1258 1379 1472 1343 1549 1597 1748
663 418 300 304 316 320 315 296 198 262 284 295 260 225 229 156 84 0 0 8 17 21 91 206 597 907 1195 1149 1224 1236 1252 1237 1225 1263 1210 1242 1312 1308 1346 1558 1844 1613 1629
267 698 605 386 251 191 194 195 296 335 306 275 275 302 260 247 170 126 36 0 0 36 0 36 323 781 950 1126 1204 1207 1321 1359 1413 1422 1368 1415 1336 1374 1384 1341 1358 1497 1982
15 73 262 493 395 320 170 242 277 192 169 278 307 301 300 313 306 261 165 79 67 37 9 5 28 255 657 732 1134 1251 1337 1383 1386 1448 1500 1305 1230 1102 1414 1166 1160 1206 1352
0 0 0 21 142 186 198 474 505 500 254 225 386 322 290 355 401 374 321 276 247 218 175 109 69 62 140 250 618 921 831 1247 1273 1250 1220 1273 1345 1232 1273 1391 1488 1528 1416
0 0 0 0 40 138 106 124 684 679 304 199 363 517 466 436 462 510 559 448 495 522 440 352 298 255 219 192 154 443 538 794 1095 1156 1216 1213 1211 1025 1015 1336 1545 1677 1699
0 0 0 0 0 6 53 93 88 116 229 296 184 689 744 765 806 659 664 597 601 633 732 751 732 705 654 618 544 425 290 330 497 877 1009 849 972 961 986 1038 1473 1531 1606
0 0 0 0 0 0 0 19 58 48 20 82 197 208 706 1079 1421 1157 1133 929 873 875 1111 1152 1149 1002 978 957 929 801 625 415 357 449 575 1026 798 894 966 987 1250 1246 1381
0 0 0 0 0 0 0 1 2 0 29 48 65 152 189 307 705 1114 1226 996 1290 1150 1043 1069 1167 1220 1199 1142 1090 1066 941 692 578 562 671 713 592 722 757 720 699 738 858
0 0 0 0 0 0 0 0 0 0 0 0 38 65 87 128 165 285 328 767 1168 1391 1341 1295 1170 1179 1318 1319 1201 1117 1067 962 756 644 504 402 508 657 693 680 666 746 754
0 0 0 0 0 0 0 0 0 0 0 0 2 0 0 85 123 78 113 233 1183 1325 1449 1515 1400 1352 1355 1317 1254 1174 1140 1035 979 900 823 748 804 898 901 960 1116 1215 1230
0 0 0 0 0 4 0 0 0 0 0 0 0 0 0 0 0 5 48 123 491 1385 1421 1495 1478 1479 1389 1408 1343 1223 1228 1174 1075 940 935 930 897 940 988 1091 1273 1426 1493
0 0 0 0 0 15 10 0 0 0 0 0 0 0 1 0 4 0 27 10 131 702 1576 1461 1366 1533 1497 1443 1510 1451 1297 1370 1196 1145 1227 1189 1087 1047 1026 1869 1276 1037 1144

GFSMW_con_mucape_075.txt.gz
CAPE
141 194 149 40 24 25 243 555 663 762 721 624 638 960 919 1056 1061 1166 1194 1028 1476 1119 1215 1155 1353 1438 1424 1323 1265 1210 1457 1118 1162 1152 936 1117 1287 1221 1222 1314 1362 1286 1248
79 88 129 89 32 36 158 537 690 838 798 629 906 896 1038 1044 987 1232 1163 1278 1625 1510 1093 924 1325 1228 1198 1528 1554 1238 994 962 856 895 929 658 522 463 501 742 1020 1317 1261
66 42 75 93 110 86 217 448 764 852 845 698 846 816 1082 1159 1092 1075 1164 1219 1563 1591 1565 1185 1570 1331 1266 1191 1353 1121 1496 958 852 884 860 733 541 805 593 870 715 986 994
81 19 15 26 116 174 287 382 678 868 876 932 822 1002 1006 996 1046 1377 1312 1300 1663 1766 1726 1695 1727 1518 1006 1201 895 1176 1218 1032 931 848 639 953 926 638 583 785 606 832 836
111 68 42 13 16 160 275 350 676 912 979 970 1249 1019 1198 1035 1225 1323 1572 1522 1912 1835 1872 1852 1861 1850 1528 1644 1847 1810 1566 1069 698 620 1250 1195 747 735 875 856 965 1014 1038
140 91 95 78 77 86 199 289 559 1001 890 966 1086 1155 1200 1107 1031 1325 1397 1351 1537 2027 2092 2014 2062 1712 1613 1518 1664 2083 1955 2037 1855 1425 1661 1473 925 780 1048 1044 1299 1277 1218
421 122 72 57 120 127 189 234 470 781 690 803 970 1109 1144 1376 1535 1643 1389 1457 1497 1582 2046 2237 2452 2421 1933 1800 1785 1949 2032 2004 1716 2324 1598 1562 1542 1160 1202 911 1008 1086 1301
589 387 122 105 139 159 263 269 410 877 654 729 1103 1302 1188 987 998 1394 1148 1383 1364 1534 1955 2330 2175 2202 1989 1807 1850 1804 1764 1966 1855 2097 2570 1814 1667 1485 1411 1700 1181 818 904
258 557 427 200 193 208 300 359 561 727 608 639 986 1136 1198 1139 1085 1197 1385 1202 1531 1285 1884 2004 2276 2182 2197 2126 2041 1652 2325 2459 2237 2176 2189 2086 1866 1717 1404 1515 1539 1297 1016
498 546 714 342 326 253 286 310 389 662 927 691 786 755 717 863 1119 1268 1434 1405 1517 1746 1635 2067 2193 2310 2321 2252 2245 1879 1942 2190 2085 1897 2322 2322 1764 1806 1585 1337 1449 1532 1677
433 723 654 356 335 368 268 261 316 393 437 454 887 835 771 658 859 973 1252 1623 1808 1980 2034 2121 2128 2261 2334 2412 2477 2355 2104 2237 2338 2202 2305 2313 2471 1711 1643 1555 1699 1904 1731
281 526 648 475 399 400 312 297 340 323 343 564 629 658 810 756 663 808 922 1176 1651 1819 2073 2195 2270 2295 2328 2403 2446 2350 1953 2195 2026 2054 2266 2136 1915 2356 2361 2158 2333 2064 2343
239 278 489 476 481 421 271 212 256 252 346 495 313 202 410 726 793 901 901 988 1151 1563 1573 1919 2180 2326 2351 2409 2450 2519 2428 2393 2251 1982 2112 2141 2305 2488 2083 2454 2295 2180 2460
556 606 319 397 464 448 440 416 298 232 337 377 419 408 261 262 658 1216 1253 1024 1070 1329 1410 1658 1878 2099 2397 2464 2435 2422 2517 2539 2387 2291 2167 2152 2227 2365 2644 2668 2733 2581 2644
301 323 478 457 366 320 421 394 353 353 386 560 529 613 809 477 325 876 1336 1106 1098 1070 1172 1341 1473 1708 1750 1751 2190 2360 2491 2538 2444 2348 2334 2225 2010 1748 1887 2005 2356 2541 2544
0 112 149 269 279 263 270 291 266 309 317 383 713 945 965 1067 1066 1175 1274 1270 1090 1079 1124 1026 1372 1408 1161 689 776 1569 2187 2383 2422 2498 2496 2426 1519 1329 1132 1159 1236 1463 2533
0 0 12 96 123 119 166 197 246 344 475 575 624 730 1092 1067 1230 980 1022 1119 1268 1146 1169 1027 1024 1482 1708 841 571 912 1499 2041 2381 2521 2544 2393 1860 1818 2327 1700 1225 1158 1093
0 0 0 7 40 84 258 416 428 418 498 832 679 862 854 901 1082 1116 1062 1215 912 1086 1043 984 1178 1311 1256 586 538 619 1304 2112 2315 2414 2356 2566 2639 2397 2229 2352 2256 2275 2255
0 0 0 0 1 1 3 94 265 504 409 430 267 264 712 1157 1049 1124 1196 1184 977 845 799 841 984 1226 1383 353 177 244 936 1132 2172 2382 2290 2570 2505 2230 1599 1972 2161 2283 2265
0 0 0 0 0 0 6 8 38 74 141 330 318 268 396 552 1225 1282 1370 1359 1378 1118 960 839 860 600 1087 565 420 317 378 994 861 1582 2053 1307 1505 1595 1374 1424 1893 2236 2098
0 0 0 0 0 0 0 0 0 23 62 67 128 211 202 478 695 1043 1748 1531 1693 1658 1578 1492 1392 1253 1021 982 920 791 679 637 951 1012 1007 940 688 834 929 907 2065 2216 1989
0 0 0 0 0 0 0 0 0 0 0 16 17 54 96 212 267 578 793 1075 1211 1431 1702 1758 1832 1776 1632 1083 1104 1122 990 945 967 1331 1112 1194 598 537 465 529 548 985 1150
0 0 0 0 0 0 0 0 0 18 0 0 0 29 52 45 66 103 123 465 555 1000 1584 1763 1757 1754 1816 1841 1110 1084 1152 1090 1052 1001 1073 866 730 542 456 635 485 508 491
0 0 0 0 0 0 0 0 12 29 0 0 0 0 0 0 0 0 10 30 103 498 774 1577 2015 1953 1819 1945 1933 1413 1235 1200 1156 1075 999 975 896 719 638 558 492 480 838
0 0 0 0 0 0 0 0 3 32 1 0 0 0 0 0 0 0 0 7 27 87 577 1150 1531 1953 2140 2058 1712 1732 1861 1324 1107 1106 1046 968 1017 1182 1223 1120 1339 1331 1062
0 0 0 13 8 25 30 13 17 18 1 0 0 0 0 0 0 0 0 0 0 0 21 147 503 873 1455 1569 1589 1369 1147 1009 1001 1114 1079 1378 1471 1434 1274 1201 1418 1288 1102

GFSMW_con_mucape_078.txt.gz
CAPE
278 344 416 284 0 0 184 528 762 815 956 978 766 720 876 985 1047 1220 1590 1609 1661 1733 1893 1332 1784 1750 1369 1680 1544 1575 1523 640 956 428 369 316 559 575 554 635 671 941 1030
207 339 413 414 10 0 162 563 842 991 1094 801 722 793 951 966 1042 1275 1635 1458 1697 2080 1712 1510 1539 1718 1291 1786 1778 1660 748 404 708 773 664 225 479 346 268 320 436 646 734
349 519 567 476 126 0 142 555 906 994 873 831 1252 1713 1568 1684 1433 1407 1529 1631 1744 1819 1903 1648 1500 1964 1938 1088 1999 1612 1656 481 1082 1518 1198 930 382 635 434 791 366 774 572
558 556 591 559 356 120 97 505 1001 1010 1042 1389 1317 1488 1139 771 866 1144 1127 1570 1835 1724 1729 1858 1995 2150 1325 1508 1681 1344 1677 1877 567 866 621 1424 1448 749 540 588 447 483 483
550 533 554 505 416 313 301 474 996 1427 1004 1444 1407 1447 1508 959 1048 978 1900 1893 2295 1477 1561 1804 2019 2145 1804 2176 1681 1757 1996 1089 831 347 562 1197 859 1451 1146 469 251 341 481
689 555 505 417 381 486 476 577 1044 1431 1669 1655 1768 1713 1434 1361 927 1082 1503 1485 1566 1757 1886 1523 1805 2006 1688 2190 1925 1630 2056 2029 1879 1093 906 576 669 868 1015 785 834 760 973
776 703 649 515 470 492 581 721 1054 1535 1615 1649 1839 1892 1943 1745 1756 1879 619 1276 1301 1458 2401 2203 1703 1682 2115 2161 2025 2443 1855 1734 1104 1748 1114 850 969 1296 1453 1219 965 1003 1029
1206 843 708 700 651 588 628 778 1001 1524 1670 1600 1751 1999 2096 1615 1417 1327 946 1042 1199 1402 1759 2554 1722 1779 1841 2069 2458 1528 1243 1688 1083 1461 1968 1291 1143 1494 1501 1565 1416 920 954
1128 1087 851 744 741 776 792 907 1125 1508 1596 1491 1664 1870 2082 1934 1190 1108 1290 1211 1442 1195 1830 2240 2174 1800 1797 1882 2253 1692 1840 1829 1888 1763 1622 1634 1205 1534 1554 1561 1454 1432 1099
882 1112 1147 846 772 814 898 1047 1184 1395 1631 1458 1477 1623 1732 1879 1767 1488 1431 1470 1158 1755 1469 2358 2363 2088 2264 2386 2516 1789 1881 2074 1842 1652 1793 2199 1270 1543 1610 1476 1446 1491 1445
641 828 837 1047 861 831 894 968 1146 1287 1543 1529 1463 1496 1486 1580 1719 1508 1445 1732 1529 1694 2188 2522 2414 2312 2223 2325 2855 2488 1912 2312 2042 2129 2180 2439 2270 1784 1230 1389 1371 1474 1587
570 532 654 904 1013 950 993 985 980 967 1186 1252 1580 1619 1961 1473 1321 1505 1386 1584 1777 1760 2231 2562 2653 1884 2067 2343 2809 2522 1827 2084 2018 2106 2298 2277 1799 2397 2246 1714 2038 2256 1851
310 289 575 347 464 749 989 919 918 877 867 939 901 1089 1144 1337 1306 1329 1496 1512 1685 1714 1594 2152 2679 2509 1997 2479 2704 2806 2611 2252 2158 2030 2336 2164 2168 2358 1707 2038 1706 1784 2010
297 172 246 241 263 408 517 591 924 817 759 852 1034 972 1118 1191 1215 1325 1497 1560 1689 1751 1607 1741 2129 2439 2242 2221 2629 2851 2927 2509 2219 2556 2584 2461 2028 2217 2657 2690 2752 2670 2512
132 309 497 337 351 352 173 244 324 390 1112 1012 1012 1119 1304 1221 1175 1010 1344 1569 1744 1783 1792 1622 1735 2020 2099 2058 2685 2802 2754 2773 2827 2645 2881 2699 2276 1562 1750 1908 3297 3140 2591
2 83 64 108 138 151 189 284 242 328 556 1085 1131 1348 1323 1428 1536 1371 913 1540 1710 1871 1904 1837 1567 1464 1071 713 1039 1451 2482 2715 2907 2846 2710 2816 1979 1797 1589 1478 1298 1191 2485
0 0 0 8 21 79 87 188 248 243 508 725 1292 1071 1228 1556 1589 1630 1713 1629 1616 1827 2012 1881 1821 2002 1833 485 334 647 1364 1664 2304 2591 2520 2251 1765 2227 2503 1731 1216 1145 1069
0 0 0 0 0 0 82 275 400 408 511 506 579 734 818 1255 1785 1875 1919 1810 1760 1743 1767 1803 2166 2026 2089 999 630 403 1189 1661 2223 2546 2458 2841 2943 2154 1970 2364 2340 2574 2493
0 0 0 0 0 0 0 19 114 84 183 294 342 224 163 212 901 1664 1784 2092 2052 1948 1756 1710 1868 2180 2253 1231 778 566 1089 995 1962 2210 2732 2994 3265 2457 1825 2326 2825 2685 2561
0 0 0 0 0 0 0 0 0 31 88 59 133 227 170 172 198 415 1382 1805 2011 1708 1780 1731 1766 1478 1930 1472 1096 611 917 1007 1029 1922 2599 1611 1824 1912 1750 2445 2882 2986 2624
0 0 0 0 0 0 0 0 0 0 9 15 13 26 147 130 108 165 531 1172 2150 2633 2414 1956 2210 2285 1782 1747 1072 825 974 1031 1136 1147 1217 1270 839 946 943 1166 2911 2400 2065
0 0 0 0 0 0 0 0 0 0 0 0 17 12 11 127 192 166 319 796 670 1117 2030 2298 2789 2252 2724 1685 1406 1099 845 768 1321 1518 1310 1623 1145 945 735 636 523 1003 965
0 0 0 0 0 0 0 0 0 0 1 5 0 0 0 0 6 66 80 93 225 614 1339 1834 1775 2659 2179 2539 1830 1568 1262 929 985 1356 1311 1252 1225 1158 1018 800 575 358 519
1 8 11 8 10 8 7 9 3 1 1 6 9 1 0 0 0 0 10 20 40 71 157 528 1684 1920 2522 2788 2149 1672 1340 1251 1112 983 1033 1004 1021 1073 1140 995 765 464 761
8 0 0 0 0 0 14 24 37 31 6 6 8 2 0 0 0 0 0 0 0 3 8 24 152 451 1248 2359 1169 1249 2448 2533 1619 937 1068 1192 1215 1376 1602 1673 1577 1553 1243
13 9 0 0 0 0 0 6 10 9 29 39 7 0 0 0 0 0 0 0 0 0 0 0 0 0 50 185 391 550 1393 1192 1330 996 1356 1737 1844 1904 1948 2036 2030 1928 1486

GFSMW_con_mucape_081.txt.gz
CAPE
51 109 97 46 12 114 351 691 681 953 853 1018 781 481 532 877 1222 1619 1583 1574 1603 1833 1887 1951 1598 1636 1838 1754 1403 1526 1334 1474 377 1659 543 231 387 541 299 490 529 706 868
113 287 337 141 21 47 224 655 824 1044 1008 962 1256 421 1501 330 1568 1676 1530 1557 1747 1984 1737 1887 2123 1925 1525 1725 1575 2210 2151 108 1282 1040 1249 892 404 242 314 297 287 544 538
161 320 474 376 46 4 111 565 984 1191 1240 1217 836 1245 1646 1447 723 1581 1307 1643 1508 1719 1894 1783 2336 1838 2181 1574 1760 1487 1479 1750 478 1777 1037 1233 1021 908 534 588 393 483 524
168 299 426 466 111 0 146 540 992 1244 1093 1189 1919 2803 1252 612 799 1347 1902 2231 1697 1611 1667 1776 1833 2061 1721 1883 1709 874 2401 2451 1480 634 1224 1317 1579 1857 1090 299 264 357 605
181 350 391 604 201 28 181 624 1118 1756 1986 1859 2433 1722 2138 1419 1380 1446 2436 2106 2311 1627 1350 1914 1938 2022 2105 2417 1675 1703 1796 1795 1303 1049 657 790 372 676 1261 383 227 309 493
567 483 524 671 268 156 100 438 1376 2183 1730 1533 1824 2122 1662 1927 2082 1268 1388 1802 1695 1541 1735 1596 1976 1954 1884 2141 1990 1872 1934 2019 2911 2106 1128 1120 700 1312 1688 771 995 683 904
554 635 525 611 265 277 319 473 1229 1972 1855 1570 1747 1904 1855 1645 1828 1824 992 1350 1193 1626 2632 2123 2181 1830 2008 1957 2167 2289 2017 1970 1405 1772 1727 1687 1028 633 1628 1654 635 1380 992
552 497 723 715 454 230 440 711 1310 1935 1913 1884 2731 2940 2440 1669 1207 1711 2200 1834 1422 1742 2919 2168 1867 1844 1838 1949 2127 1889 1853 2674 1602 1550 2920 2040 1027 774 969 2203 1388 1656 865
1077 845 791 524 591 621 413 816 1462 1830 2068 1878 2682 2835 2868 2540 1779 2257 1900 1184 2643 1511 2082 1670 1821 1837 1855 1927 2274 1984 2596 2144 2167 1899 1958 1939 1412 633 864 859 1115 1623 2125
809 533 635 802 801 783 529 768 1150 1620 2054 2052 1985 2019 2166 2476 2364 1627 1875 1598 1760 1589 1103 1745 2546 2161 1806 2000 2355 2732 2529 2007 1841 1212 3239 2852 1274 1180 871 1022 1063 1163 1294
753 608 406 840 673 1002 1013 966 1140 1462 1860 2039 2136 2204 2189 2041 2262 1964 1718 1872 1688 1796 1742 2147 2618 2254 2650 2240 3207 3078 2483 2330 2047 2319 2243 2285 3447 1858 1117 872 885 1026 1213
396 431 448 541 498 549 675 895 1089 1279 1606 1860 2656 1985 2438 2478 1883 2131 1901 1888 2362 1946 1998 2352 2327 2396 2046 2608 2670 2377 1788 1873 2204 1939 2273 1936 1633 3476 3430 1980 3569 2305 3061
241 197 244 339 410 564 607 608 698 999 1187 1591 1777 2006 1896 1831 2014 2259 1996 2636 2377 2404 1529 2258 2867 2510 1963 2856 2882 2663 2767 2341 2316 2324 2301 2098 2535 3382 2304 2981 1879 1563 2142
164 62 63 58 223 442 555 564 638 690 717 1126 1515 1648 1778 1744 1844 2396 2830 2067 2947 2629 2335 2432 2895 2575 2064 1984 2318 2848 2843 2781 2564 2492 2804 2620 2547 3199 3392 2901 3558 2855 2546
181 164 111 80 39 140 341 433 578 676 801 1396 1406 1882 1773 1640 1765 1918 2267 2403 2868 2848 2890 2917 2651 2752 2091 1864 2635 2661 2846 2905 3282 2849 2900 3232 2556 1603 2285 1855 3142 3723 2870
47 90 154 105 108 141 115 143 283 305 330 584 703 901 1836 1882 2080 1989 1944 1997 2245 3283 3553 3048 2995 2673 1409 680 952 1793 2980 3398 3857 3229 3231 3296 2237 1999 1756 1245 1153 1325 3087
0 0 26 78 59 76 78 204 196 145 204 424 567 729 793 1129 1610 2234 2571 2341 1971 2571 3442 3320 3139 3267 3167 1248 435 776 1627 2505 3342 3593 3625 2948 1503 2338 3261 2114 1466 1211 1035
0 0 0 0 0 7 30 96 135 267 403 592 271 738 916 671 815 1282 1913 2304 2547 2657 2824 3144 3482 3594 3176 1795 1085 544 1761 2092 2556 2849 3509 3805 3356 3270 3066 3409 3154 2897 2942
0 0 0 0 0 0 0 8 48 330 74 33 308 623 602 268 318 575 1059 1603 2422 2272 2185 2262 2947 3007 3496 2088 1487 1163 1419 1303 1971 2422 2671 2706 3388 3098 2181 2869 3341 3585 3352
0 0 0 0 0 0 0 0 0 0 0 0 25 13 92 130 131 129 214 441 1518 2017 2735 2017 2555 2035 2923 2403 1929 1549 1476 1850 1597 2353 2528 1502 1441 1894 2123 2707 3128 3269 3172
0 0 0 0 0 0 0 0 0 0 0 0 1 2 0 0 58 103 102 156 219 678 1729 2186 2603 3022 2549 2720 1719 1543 1937 1719 1672 1753 1683 1889 1176 841 826 1272 2976 2782 2851
0 0 0 0 0 0 0 0 0 0 0 0 0 0 0 0 0 2 59 74 96 147 655 1662 2097 2723 2830 1986 1879 1654 1405 1519 1726 2113 1698 1891 1032 899 794 715 692 810 1087
4 1 2 2 1 4 3 1 2 3 1 0 0 0 0 0 0 0 0 6 104 377 383 488 1308 1552 1710 2900 1564 1503 1668 1362 1204 1869 1620 1326 1185 1123 1023 925 870 814 750
5 0 5 7 7 12 11 8 7 6 7 13 3 0 0 0 0 0 0 0 2 9 17 86 359 578 859 2073 2216 1058 893 985 1024 1112 1012 946 946 1107 1155 1203 1169 1129 1038
0 0 0 0 0 10 8 0 20 21 17 8 4 2 0 0 0 1 0 0 0 0 0 3 3 44 167 254 602 675 642 784 929 767 971 1786 1720 1493 1810 2006 2196 2391 1799
7 8 8 8 1 0 0 0 0 0 0 8 5 0 0 0 0 0 0 0 0 0 0 0 0 2 0 9 78 153 235 388 397 328 280 2070 2194 2191 2270 2414 2526 2661 2146

GFSMW_con_mucape_084.txt.gz
CAPE
41 10 19 19 22 277 840 1412 1444 2328 1945 2054 1759 1158 1594 1424 1432 1886 3068 1709 1646 2931 2724 2569 2822 783 2473 1052 2825 2661 2772 2274 2408 2841 1785 1337 736 868 1250 1347 845 1288 1367
37 55 35 31 27 355 804 1635 1666 1804 2150 1605 2224 2421 1697 1734 1628 1565 2740 2436 2400 2679 2574 1886 2343 1204 1388 2909 2626 641 2669 1852 2356 1931 2314 1042 1269 973 656 1013 843 784 1147
84 185 93 62 115 397 720 1452 1842 1612 1933 2257 2487 3213 2242 2079 2078 1833 2306 2283 2651 2971 1744 2328 2796 2256 2482 1964 2682 3083 1907 1960 2121 2298 1469 1734 1359 2264 1091 917 772 860 1415
125 301 159 160 61 250 523 1374 2161 1682 1758 2576 2117 2999 2436 2189 1606 1792 2434 2720 2559 2713 2411 2935 2410 1651 993 758 2455 2255 1807 2782 2297 2409 1861 1943 1100 2045 1671 1210 586 1153 856
179 184 224 345 24 16 256 1154 2025 1908 1858 2683 2125 2584 2551 895 773 1763 2489 2645 3036 2915 2032 3190 3011 2569 1925 1237 2090 2690 3285 2368 2068 1813 2009 2104 2500 1949 1921 1413 961 1305 1272
261 198 347 294 80 99 225 1007 1867 2261 2558 2154 2401 2643 2077 665 306 1129 1461 1953 2912 2612 3076 2951 3026 2590 1012 670 3316 2830 2838 3020 3728 3254 2737 2253 915 1397 1797 1940 1815 1478 1570
205 344 624 512 274 93 351 1281 2001 2278 2307 1850 2155 2740 2285 2646 1682 1879 749 1756 771 1002 2067 2884 3355 2959 3003 2312 2854 3199 3082 3200 2923 3430 2863 2774 1859 736 2455 2198 2417 1209 1842
603 305 677 618 809 108 386 1017 2112 2400 2244 2083 2446 2742 2962 2264 2110 2573 2954 902 734 1111 2077 2499 2815 3099 2666 2463 2836 3343 2915 3007 2795 2646 3000 2856 2414 2342 2509 1861 2655 1701 2204
945 591 656 594 944 226 570 1005 2047 2455 2597 2409 2724 3206 3107 3001 1650 2401 3142 2348 1880 838 2097 1161 2608 2883 2890 2624 2726 2345 2982 2907 2842 3014 2984 3147 2331 1859 2057 1741 1857 2121 2296
546 405 351 231 989 382 653 1323 2143 2468 2513 2299 2659 2807 2998 3028 3092 3443 3352 3329 2717 1086 662 919 1323 2971 2962 2755 2927 2486 2308 2705 3022 2479 2892 3095 2200 2208 1747 1020 2242 2584 2338
556 288 182 219 391 614 303 943 2135 2412 2591 2556 2542 2512 2635 2834 3110 2956 3291 2995 2890 1683 907 0 884 2626 3131 2811 2951 2352 2162 2200 2434 2693 2629 2765 3302 2676 2471 2278 2379 2006 2382
351 199 76 141 247 110 575 659 462 1597 2150 2350 2714 2713 2933 2561 2725 2857 2902 3271 3134 3149 2991 2355 2580 2872 2698 2540 2676 2751 2150 2319 2662 2685 2178 2398 2380 3340 3182 2723 2600 2839 2847
193 251 128 61 169 200 168 357 380 555 947 2135 2565 2610 2555 2675 2674 2872 2792 3187 3171 3016 2662 2650 3165 3040 3108 3194 2956 2740 2864 2754 2285 2693 2660 2828 3115 3178 2472 3523 3000 2438 2539
125 110 91 149 173 164 161 95 403 386 540 914 844 2490 2612 2584 2394 3188 3210 2957 3297 3139 3026 3019 3246 2852 3025 2993 2873 3121 3021 3377 2587 3001 2990 3222 3148 3150 3197 2980 2994 2863 2898
67 60 18 36 55 64 59 120 131 206 367 464 558 890 1187 2231 2825 2865 2631 3169 3130 3096 3255 3189 2911 3226 2963 2259 2598 2870 2985 2676 2513 2868 2903 3123 3087 2522 2981 2617 2740 2672 2716
68 98 90 95 87 40 0 21 69 72 79 234 377 461 567 937 1618 2326 2454 2651 2998 3259 3275 3035 3130 2817 1993 1316 1265 1670 2215 3059 2986 2534 3019 3229 2577 1956 1736 1537 1203 1124 2826
0 0 0 19 43 25 8 11 12 5 14 117 148 151 352 656 996 962 1925 2310 2393 2374 2893 2991 3129 2970 3019 1946 1331 763 1957 2862 3012 2971 2950 2935 1846 1567 2672 1708 1555 1353 985
0 0 0 0 4 24 29 27 15 77 26 44 143 125 258 318 393 596 941 1072 1124 2252 2247 2422 2818 2888 2949 2497 2064 1609 1208 1488 2057 2218 2712 2897 2334 2468 2651 3045 2912 2108 1828
0 0 0 0 0 0 0 17 48 50 67 74 120 143 256 191 352 369 412 907 854 944 1459 2127 2287 2485 2773 2274 1912 1979 1613 1454 1460 1477 1969 2129 2140 2812 2438 1611 2302 2787 3088
0 0 0 0 0 0 0 0 0 0 0 0 0 0 0 0 56 98 77 144 543 739 691 1074 2012 2009 2159 2236 1946 1751 1839 1935 1871 1788 1709 1055 1090 1666 1306 1298 2430 2005 1742
0 0 0 0 0 0 0 0 0 0 0 0 0 0 5 0 6 8 0 38 69 238 323 711 1554 2011 2011 2349 1873 1709 1602 2173 2066 1913 1786 1792 1472 1110 931 1055 1116 1456 1871
0 0 0 0 0 0 0 0 6 9 12 13 4 0 1 3 0 0 0 0 0 102 296 396 807 1933 1888 1392 919 818 966 1213 1354 1769 1923 1889 1522 1239 1162 1133 869 720 755
0 0 0 0 0 0 0 0 6 11 14 7 5 23 8 0 3 8 0 0 0 9 210 220 256 215 271 409 604 730 769 781 819 801 1031 1121 1429 1223 1102 1085 1003 885 737
0 0 0 0 3 1 3 0 3 17 10 15 16 5 0 0 0 0 0 0 0 0 0 0 0 0 33 235 453 630 926 997 897 702 537 764 837 990 1005 923 894 995 1055
5 3 0 0 0 0 0 0 2 9 0 0 2 1 0 0 0 2 5 1 0 0 0 0 0 0 0 0 49 430 346 480 704 741 491 512 582 1603 1897 1831 1464 1557 1080
0 0 0 0 1 0 0 0 0 0 0 0 0 0 0 0 0 0 0 0 0 0 0 0 0 0 0 0 0 0 4 12 19 46 175 195 475 480 466 1227 1428 1638 1469

GFSMW_con_mucape_087.txt.gz
CAPE
18 17 9 48 290 135 197 203 575 733 500 926 804 570 157 444 1144 1221 1194 1005 1025 1591 1458 1336 438 782 945 790 1569 1326 1466 1608 1316 1158 877 709 145 314 586 611 653 702 1022
16 6 0 39 208 97 186 743 846 671 556 870 714 653 808 770 986 1163 1367 824 984 1363 1431 1273 1121 770 928 1516 1127 648 1293 923 661 953 547 421 354 332 291 650 775 666 916
14 10 1 23 117 173 340 662 649 729 582 608 888 1605 1024 1095 1269 1482 1171 1716 1607 1529 1123 1125 1090 637 766 850 1102 1618 695 972 1004 968 663 868 672 1296 355 204 409 170 730
19 14 6 6 42 187 443 690 531 279 352 1012 585 939 749 762 706 942 1064 1215 1521 1741 1564 1358 1224 1348 768 688 707 1633 1299 536 703 1177 686 910 428 991 702 536 218 459 598
36 10 44 8 89 142 403 918 568 298 220 904 1283 1117 839 457 554 1222 1207 1522 1559 1749 1441 1308 1238 881 851 426 1066 1534 1436 1669 2040 1911 1476 1217 1155 1546 974 712 227 299 531
68 105 73 65 90 121 296 1015 668 613 417 1045 996 1020 906 441 440 965 990 965 1276 1313 1041 1702 1241 1171 925 723 1297 1577 1618 1808 1527 2078 1574 1510 1251 1146 1239 1160 1182 408 587
52 109 137 151 56 105 300 476 1117 733 692 1092 754 1219 1132 777 620 866 470 1031 901 1067 1301 1596 1518 1228 906 418 1012 1662 1588 2058 1374 1471 1718 1540 1636 1915 1530 913 1389 1133 1087
28 73 78 181 145 106 314 499 1126 1119 929 1173 1015 1077 1360 1003 723 851 484 1071 370 403 795 1014 1233 1631 1143 1263 1542 1455 1622 1458 1608 1106 1114 1240 1537 1372 1123 1471 781 823 1312
2 56 112 160 339 123 323 570 917 1164 902 1410 1058 1508 1323 1245 1037 976 1030 579 515 1147 1328 1120 1393 1448 1518 1138 1596 1404 1640 1575 1382 1309 1433 1290 1434 1182 1310 1600 592 1034 853
239 35 73 96 227 70 401 771 1078 1185 1277 1481 1356 1754 1714 1660 1619 1905 1758 1272 820 714 809 821 1043 1428 1604 1495 1379 1188 1255 1370 1449 1761 1321 1477 1634 1388 1703 1668 1768 1658 1259
497 238 145 104 214 131 177 776 1199 1509 1665 1482 1568 1659 2109 1985 1996 1835 2032 1402 925 731 655 436 829 1132 1435 1523 1515 1387 1198 1554 1379 1078 1508 1108 1731 1079 1588 1730 1483 1349 1827
518 291 206 247 171 69 171 242 226 795 1325 1689 1828 1926 2043 2221 2281 2266 1994 1827 1071 930 1021 858 19 757 1122 1739 1516 1374 1526 1291 1186 1180 1671 1272 1450 1580 1832 1718 1422 1747 1588
497 430 377 175 116 20 203 151 155 262 637 1134 1716 1722 2158 2064 2195 2189 2128 1962 1793 1259 1264 1006 1036 1209 1384 1424 1685 1393 1475 1686 1297 1215 1416 1647 1393 1632 1720 1177 1788 1789 1498
182 167 156 76 62 37 85 63 137 72 232 589 840 890 1037 1086 1828 2261 2235 2214 2111 1963 1664 1792 1554 1776 1770 1891 2079 1744 1294 1339 1839 1620 1933 1858 1305 1337 1541 1532 1276 1484 1632
208 178 179 128 91 46 96 78 55 107 48 198 627 240 302 475 1030 1509 2165 1970 2080 2133 2044 1923 1983 2282 1913 1763 1883 2056 1859 1882 1776 1864 1698 2053 2231 2286 2044 1825 1557 1486 1490
128 135 99 70 102 92 88 58 75 42 112 152 89 96 104 335 584 910 1330 1440 1424 1499 1978 2126 2112 1958 1945 2125 1920 1839 1596 2008 1881 1651 1630 1958 2113 2393 2326 1604 1897 1750 1787
113 104 97 66 20 18 2 0 0 21 34 18 32 66 114 288 393 474 738 848 999 1322 1381 1414 1552 1794 2098 1893 1457 1235 1198 1285 1708 2016 1944 1912 1632 1983 2085 1861 1546 1461 1226
2 0 29 87 96 83 71 27 0 0 0 1 28 20 58 118 203 221 465 826 770 807 934 1198 1379 1557 1614 1762 1910 1899 1357 1207 1228 1240 1873 2027 1877 1956 1793 1779 2100 2089 1866
0 0 0 0 17 46 38 34 33 18 20 37 48 40 81 79 80 105 115 308 474 608 773 800 873 1092 1415 1507 1454 1506 1415 1468 1412 1261 1184 1279 1518 1884 2108 2124 2181 2161 2086
0 0 0 0 0 0 0 0 8 15 37 40 9 48 60 17 28 30 65 68 88 220 385 451 651 958 1106 1249 1192 1333 1347 1264 1436 1548 1535 1441 1216 1069 1096 1179 1177 980 1059
0 0 0 0 0 0 0 0 0 0 0 0 0 0 0 0 0 0 0 0 0 17 49 71 126 326 800 629 606 861 1101 1042 1110 1278 1307 1379 1453 1420 1346 1231 1115 969 875
0 0 0 0 0 0 0 0 0 0 0 0 0 0 0 0 0 0 0 0 0 0 0 1 60 271 442 313 190 278 537 555 638 733 941 1006 1109 1241 1215 1319 1243 1123 1074
0 0 0 0 0 0 0 0 0 0 0 0 0 0 0 0 0 0 0 0 0 0 0 0 0 0 31 67 24 12 80 235 363 470 613 643 631 674 850 941 1182 1163 1038
0 0 0 0 0 0 0 0 0 0 0 0 0 0 0 0 0 0 0 0 0 0 0 0 0 0 0 0 0 11 5 67 185 290 468 487 458 550 460 433 721 856 881
0 0 0 0 0 0 0 0 0 0 0 0 0 0 0 0 0 0 0 0 0 0 0 0 0 0 0 0 0 0 0 0 0 81 64 162 199 212 143 306 1199 1473 1536
0 0 0 0 0 0 0 0 0 0 0 0 0 0 0 0 0 0 0 0 0 0 0 0 0 0 0 0 0 0 0 0 0 0 0 0 0 0 0 2 49 337 799

GFSMW_con_mucape_093.txt.gz
CAPE
178 233 245 264 222 191 111 458 252 239 223 273 391 359 362 497 529 636 785 932 977 1175 974 1196 942 642 639 693 1191 893 767 861 731 681 520 539 376 653 616 622 683 800 805
188 232 230 244 170 140 145 299 118 354 164 152 295 322 291 410 618 597 837 919 973 1132 1110 1120 407 633 898 1274 1110 1113 477 613 796 782 495 251 163 285 303 582 714 725 728
171 204 157 199 164 178 131 148 77 269 339 151 227 520 480 535 792 777 943 831 654 1063 1126 1049 583 852 813 782 797 1281 1117 683 989 854 752 701 551 640 310 380 550 770 806
94 156 153 184 216 107 118 19 14 96 310 434 436 497 531 509 458 628 820 861 907 1094 1099 971 905 710 582 555 500 1188 908 1030 965 1025 966 963 1128 1117 588 332 477 683 781
19 105 160 142 172 58 86 81 72 84 194 475 491 544 546 511 504 569 731 673 894 1221 941 1050 966 763 702 394 427 1297 1236 1519 1354 1064 1024 841 1235 1147 1111 788 424 486 487
7 92 145 149 69 91 165 191 152 114 158 316 461 596 612 570 520 627 677 736 618 777 1043 1157 1114 800 697 566 704 1292 1379 1352 1065 1064 1018 980 1166 1250 1367 1026 990 816 681
53 48 94 110 105 172 262 311 232 199 215 350 441 544 587 634 499 507 616 636 693 796 888 1181 1068 904 808 511 996 1099 1248 1175 1395 904 779 705 1064 996 1408 1245 791 1041 1123
78 36 72 51 127 167 356 293 294 258 194 220 414 562 715 543 317 498 647 657 616 667 948 1029 1145 1088 1031 680 364 1026 1174 1197 1250 1123 1161 793 927 793 1188 1425 1334 845 986
54 59 97 164 162 170 517 299 259 207 123 102 335 571 664 637 533 542 552 606 698 684 677 952 1170 1083 1069 1011 917 1164 1191 1451 1316 1018 1070 1180 1136 1270 1365 1085 1199 1313 805
76 66 78 124 136 144 236 636 393 213 181 148 205 518 623 740 594 561 579 531 521 828 607 419 754 993 1154 1347 782 1092 1262 1057 1015 1168 1247 1310 1314 1454 1204 1253 974 968 1101
76 81 72 81 65 104 171 296 607 619 419 354 343 319 542 585 812 714 597 827 938 813 681 936 910 953 953 1132 1356 1052 1051 995 1076 1095 1093 1107 871 1013 1052 1449 1221 1248 1281
72 130 101 45 25 80 123 305 402 424 448 510 617 628 602 670 760 826 868 1021 1284 945 786 864 708 662 735 897 1158 1317 1195 1075 1021 890 998 1200 1042 912 833 1375 1420 1032 1276
210 143 91 74 96 122 148 148 96 149 126 237 376 608 765 845 810 951 1036 1002 1228 1253 1110 801 689 533 632 720 909 1093 1102 1123 1021 1026 1173 1166 949 1068 1230 961 921 1063 1072
171 247 189 134 86 126 167 117 117 128 97 90 124 211 295 352 508 716 879 1062 1153 1203 1165 929 664 767 784 492 419 692 1119 1167 1154 1119 1071 1136 1258 1249 1278 1460 1405 1492 1558
135 182 214 258 198 150 91 130 148 128 91 102 64 95 133 200 302 418 492 663 1074 1132 1214 1111 987 990 962 971 1039 1151 1137 1305 1353 1278 1242 1120 1211 1418 1390 1322 1304 1414 1533
212 280 290 506 712 168 86 82 158 81 60 86 78 86 61 39 75 98 259 407 473 550 876 1082 1215 1208 1318 1532 1562 1425 1369 1376 1382 1297 1419 1401 1303 1399 1404 1293 1218 1292 1387
205 155 308 236 246 120 203 172 94 70 54 44 45 29 42 43 49 55 74 72 135 205 396 573 766 954 1128 1242 1380 1493 1473 1389 1241 1191 1240 1252 1114 1195 1285 1395 1404 1369 1307
349 306 161 225 181 256 179 234 262 204 85 89 72 78 47 24 21 36 28 46 73 78 94 250 339 570 596 856 1033 1116 1016 1199 1090 1022 979 942 980 1050 1142 1183 1212 1226 1278
121 170 184 154 112 149 130 91 66 87 84 73 79 94 36 12 40 4 13 29 17 42 94 98 82 149 278 561 679 791 848 877 950 902 977 1004 1023 1146 1243 1270 1235 1162 1115
117 174 128 71 67 48 54 74 47 23 2 1 2 4 12 33 7 32 33 31 25 26 45 76 116 168 121 220 290 336 357 403 530 619 668 738 843 891 1087 1129 1129 1085 1113
41 43 57 37 18 15 16 11 14 21 26 48 56 60 78 45 42 46 40 50 22 70 58 89 112 97 94 87 128 143 139 135 151 248 355 439 540 541 558 694 737 763 703
0 0 0 0 0 0 0 0 0 0 0 0 0 0 0 0 0 0 0 0 0 0 34 27 38 56 84 116 96 79 74 60 108 165 178 221 219 195 234 216 210 248 277
0 0 0 0 0 0 0 0 0 0 0 0 0 0 0 0 0 0 0 0 0 0 0 0 3 12 0 0 2 14 34 16 75 90 107 136 92 31 60 79 17 1 10
0 0 0 0 0 0 0 0 0 0 0 0 0 0 0 0 0 0 0 0 0 0 0 0 0 0 0 0 0 0 0 0 0 0 0 13 14 27 20 9 1 0 0
0 0 0 0 0 0 0 0 0 0 0 0 0 0 0 0 0 0 0 0 0 0 0 0 0 0 0 0 0 0 0 0 0 0 0 0 0 0 0 0 0 0 0
0 0 0 0 0 0 0 0 0 0 0 0 0 0 0 0 0 0 0 0 0 0 0 0 0 0 0 0 0 0 0 0 0 0 0 0 0 0 0 0 0 0 0

GFSMW_con_mucape_096.txt.gz
CAPE
71 114 200 231 204 224 155 135 331 423 499 538 454 498 312 215 444 499 657 647 753 964 801 862 763 632 575 920 681 822 1001 818 664 679 618 363 407 441 725 756 737 782 778
91 135 215 218 221 207 224 280 335 271 451 488 320 323 241 327 523 444 603 707 872 959 985 839 537 552 972 1004 1082 923 738 704 813 828 531 687 408 624 548 533 641 746 783
132 175 195 204 234 194 184 207 295 159 166 210 310 261 351 407 588 558 717 746 732 817 897 780 455 704 774 663 700 1252 745 1023 911 961 756 789 696 784 350 486 488 616 696
162 182 162 204 244 129 91 253 187 189 104 117 230 294 269 365 363 562 644 698 734 898 1059 995 856 761 590 544 490 1202 1037 1071 1230 994 803 1142 1179 1160 1153 520 404 422 339
152 172 166 218 241 135 104 147 240 146 173 131 189 354 319 360 401 419 547 648 663 903 812 808 867 710 699 175 382 1143 1223 1418 1497 1081 968 959 1181 1222 1098 978 1023 793 540
102 176 188 197 231 176 180 106 140 75 214 285 288 370 386 283 339 456 445 525 528 687 870 959 861 733 657 523 427 1161 1175 1121 1052 1079 1050 1005 1255 1285 1387 991 854 999 928
36 157 165 178 199 174 199 50 17 5 45 281 336 357 351 399 482 415 412 424 577 534 604 911 971 838 689 518 506 909 1001 1165 1197 937 1114 852 1115 1032 1268 1162 763 906 1066
41 119 150 144 171 173 159 165 51 9 8 163 221 281 281 385 402 397 356 435 485 523 522 726 987 934 872 733 502 802 1011 1063 1070 1056 984 803 923 809 998 1271 1227 1301 1000
92 99 112 87 101 107 263 157 138 48 29 146 261 318 401 430 368 285 422 465 543 470 465 741 900 928 964 954 710 890 954 1210 1207 1020 910 1209 970 1121 1199 927 999 1189 1216
58 52 59 8 44 80 233 213 187 169 141 157 165 281 436 490 463 422 423 475 367 466 524 527 446 776 838 887 978 842 1034 1102 918 984 1073 1177 1166 1172 1242 1132 972 826 884
102 57 115 94 88 92 164 441 277 196 203 189 104 150 321 502 526 505 440 532 608 683 553 568 427 544 710 883 1112 1050 886 971 929 972 985 1080 983 870 874 1003 1316 939 1041
164 136 93 114 73 30 155 214 403 328 219 211 178 201 159 318 443 448 450 608 759 726 568 464 634 667 690 684 904 1024 1079 929 889 884 825 722 908 991 781 957 1309 1162 1061
195 166 140 95 82 53 82 134 170 152 140 195 323 418 503 519 598 587 610 655 719 712 666 577 633 564 399 443 593 723 880 926 944 878 902 906 849 1035 965 1088 1064 906 1005
146 155 99 83 109 90 108 90 76 64 57 47 116 219 313 331 321 393 524 567 622 780 850 806 907 834 589 550 590 429 918 923 917 929 944 987 927 924 1076 978 1064 1121 1191
631 263 175 78 87 130 146 158 139 130 80 91 60 49 68 100 85 149 211 313 476 672 883 959 897 859 810 818 787 691 799 1069 1147 1111 1243 1197 1190 1177 1196 1432 1655 1217 1239
465 548 374 253 224 335 181 178 144 125 111 112 78 29 47 78 71 74 67 117 216 309 349 462 680 907 891 955 1060 1151 1211 1229 1309 1562 1469 1296 1393 1360 1198 1212 1203 1239 1590
169 173 354 398 359 280 222 138 110 94 69 25 43 41 37 71 55 50 41 63 16 76 68 112 280 369 500 595 886 1101 1206 1268 1217 1160 1081 1015 1058 1040 1083 1036 1122 1195 1270
209 262 465 357 209 166 173 119 94 118 36 24 12 35 24 40 71 48 23 31 44 37 52 59 50 88 173 395 556 649 740 824 825 690 729 725 778 774 828 933 1038 1079 1089
220 453 285 189 260 328 201 213 293 127 91 29 47 36 40 21 39 20 29 14 2 9 28 48 121 66 68 133 298 376 505 518 656 669 637 546 540 600 814 699 875 954 988
409 377 256 171 134 172 96 89 37 52 27 42 17 149 37 3 0 3 0 0 0 2 4 45 57 63 78 98 122 176 224 233 232 260 254 286 325 333 395 455 446 480 464
227 168 200 72 28 37 47 36 15 4 1 1 0 0 0 0 10 11 21 22 13 8 17 26 42 49 55 72 77 93 97 126 114 89 79 88 132 193 240 222 229 168 188
31 29 22 5 0 0 0 0 0 0 0 1 2 0 0 0 14 10 16 24 21 12 4 16 10 31 31 47 91 99 86 62 70 118 86 89 89 119 124 153 123 81 67
0 0 0 0 0 0 0 0 0 0 0 0 0 0 0 0 0 0 0 0 0 0 0 0 0 0 0 0 1 0 0 1 4 4 0 5 56 58 69 78 91 40 11
0 0 0 0 0 0 0 0 0 0 0 0 0 0 0 0 0 0 0 0 0 0 0 0 0 0 0 0 0 0 0 0 0 0 0 0 0 0 0 7 16 18 30
13 0 0 0 0 0 0 0 0 0 0 0 0 0 0 0 0 0 0 0 0 0 0 0 0 0 0 0 0 0 0 0 0 0 0 0 0 0 0 0 0 0 1
18 0 0 0 0 0 0 0 0 0 0 0 0 0 0 0 0 0 0 0 0 0 0 0 0 0 0 0 0 0 0 0 0 0 0 0 0 0 0 0 0 1 1

GFSMW_con_mucape_102.txt.gz
CAPE
276 460 536 419 440 511 677 773 838 1308 1206 1016 834 982 859 1186 1265 1340 1732 1970 1820 1682 1748 1676 1969 1809 1808 2376 2120 1635 1699 1057 1391 1160 892 939 1116 1193 1281 1262 1243 1362 1273
286 388 564 562 445 603 719 1055 1097 1610 1513 1283 1248 988 832 886 990 1151 1660 1690 1807 1540 1711 2015 1667 1956 1863 2434 2658 2524 1315 1362 2133 1041 1097 857 927 1007 951 1098 1015 1197 1374
214 362 529 635 642 559 764 1023 1295 1418 1677 1432 1759 1764 1625 1419 1454 1431 1214 1606 1709 1571 1602 1914 1863 2132 1777 1667 2129 2086 2669 1305 1997 2515 1910 1023 1180 946 856 1090 951 1216 1466
359 287 421 671 715 740 694 880 1274 1303 1715 1983 1409 1540 1282 1544 1200 1481 1206 1194 1135 1378 1396 1875 1931 2174 1630 1994 1945 2024 2389 2662 1535 1861 2294 2937 3266 1381 1020 897 1089 966 961
257 388 434 534 692 805 879 891 1375 1372 1115 1909 1522 1992 1027 916 1127 1287 1513 1218 1318 1462 1583 1644 2262 2289 1799 1933 1987 2167 2144 2010 1721 1713 1903 2605 2433 2676 1455 1076 1115 837 1093
246 301 432 527 619 829 854 839 1488 1853 1508 1657 1688 1427 1104 1183 1145 1266 1231 969 1338 1065 1096 1223 1558 2072 1960 2205 1634 1836 1719 2750 2219 1736 1624 1615 1792 1966 1748 1439 1608 1542 1820
348 253 493 719 725 849 927 828 1302 1694 1673 1498 1379 1472 1082 1033 1270 1270 811 1408 1303 1147 1253 1463 1517 1523 1802 2018 1669 2390 1779 2027 2205 2285 1650 1375 1442 1773 2117 2050 1810 1650 1802
388 336 455 766 880 860 1010 831 1113 1465 1476 1318 1479 1620 1175 661 545 791 1371 884 1445 1128 1790 1366 1510 1641 1470 1939 2140 1971 1608 1686 1466 1916 2334 1513 1493 1415 1495 1808 1890 1638 1651
292 353 513 800 825 878 1076 999 1020 1321 1323 1109 1383 1278 929 934 1043 1013 1248 1239 1165 1682 1772 1786 1545 1707 1641 1933 2027 1508 2010 2211 2226 1644 1842 1817 1290 1440 1499 1557 1477 1612 1353
158 293 479 740 614 746 1023 889 1102 1303 1092 961 1065 1019 966 952 644 903 761 1164 1784 1843 2003 2047 1893 1519 1548 1465 1792 1484 1661 2143 1652 1521 1789 2040 1288 1519 1346 1399 1319 1347 1309
471 313 401 742 917 985 829 508 1101 1240 1130 935 815 871 928 742 1048 947 793 1097 956 1592 1799 2228 2115 1847 1679 1782 2204 2024 1577 1884 1538 1693 1866 2089 2539 1596 1127 1038 1130 1213 1205
623 688 448 480 834 858 587 545 812 776 1063 927 1074 925 520 819 673 1037 853 1190 1079 1472 1404 1674 2286 1790 1291 1585 2038 1725 1211 1652 1328 1278 1415 1678 1368 2197 2112 1543 1676 1836 1826
781 840 920 680 700 341 181 192 457 1041 804 1176 1000 1348 543 532 788 920 1019 1252 1052 1158 1264 1601 1555 1179 1666 1612 1611 1577 1639 1485 1354 1163 1261 1282 1376 1667 1422 1907 1665 1131 1530
899 961 1028 957 1044 697 377 178 179 421 590 891 1010 707 740 742 792 1035 1352 1257 1665 1013 1035 1248 1691 1414 1231 1506 1725 1595 1619 1525 1291 1506 1300 1401 1419 1607 1832 1621 1901 1806 1947
744 830 812 865 975 1025 678 403 145 61 90 231 258 623 970 1042 1236 1223 1438 1500 1588 1228 1940 1413 1768 1819 1557 1084 1879 1916 1804 1870 1669 1687 1594 1495 1348 1012 1243 1978 2148 1925 1919
781 905 853 870 914 954 887 643 540 324 229 68 38 59 143 373 764 1017 1206 1313 1528 1762 1808 1834 1794 1588 1243 714 654 690 1837 2015 1718 1666 1811 1552 1241 1417 1447 1332 1100 929 2122
666 878 1028 972 1000 1150 990 913 586 373 295 75 40 41 124 154 185 284 618 836 1043 1134 1144 1185 1172 301 253 304 359 488 1544 1950 1535 1674 1840 1591 686 694 782 791 831 1244 1370
519 423 388 335 305 314 482 454 397 409 380 263 136 227 101 52 42 48 104 252 304 510 725 392 144 43 25 192 361 615 1466 1315 815 528 529 410 429 243 182 352 962 1413 1647
793 813 647 410 335 305 322 321 326 281 349 181 101 125 40 36 8 15 46 73 278 322 426 103 5 24 52 58 173 269 313 305 316 194 144 63 22 0 0 0 7 46 202
514 559 609 354 390 511 559 515 379 330 630 269 143 52 62 65 89 65 30 37 165 143 103 19 9 0 22 53 52 36 56 65 64 61 38 13 4 0 0 0 0 0 0
558 549 250 453 335 263 467 495 348 441 361 184 116 47 61 118 50 18 0 0 14 18 6 4 0 0 19 18 51 36 33 48 40 34 18 2 0 0 0 0 0 0 0
412 323 503 362 437 283 466 323 235 269 228 199 113 20 50 95 0 0 0 0 0 32 2 0 0 4 5 3 6 2 2 7 8 7 0 0 1 0 0 0 0 0 0
461 410 310 244 279 224 303 387 347 240 187 91 39 10 6 0 0 0 5 0 0 0 0 0 0 0 0 0 0 0 0 0 0 0 0 0 0 0 0 0 0 0 0
242 77 96 158 83 64 45 32 27 10 15 19 15 9 2 3 0 0 0 0 0 0 0 0 0 0 0 0 0 0 0 0 0 0 0 0 0 0 0 0 0 0 0
111 83 99 102 88 0 0 0 0 0 0 0 0 0 0 0 0 0 0 0 0 0 0 0 0 0 0 0 0 0 0 0 0 0 0 0 0 0 0 0 0 0 0
7 0 0 0 0 0 0 0 0 0 0 0 0 0 0 0 0 0 0 0 0 0 0 0 0 0 0 0 0 0 0 0 0 0 0 0 0 0 0 0 0 0 0

GFSMW_con_mucape_105.txt.gz
CAPE
120 169 144 94 198 352 382 362 553 1048 1138 708 881 1322 1975 2055 2354 1930 1704 1712 1738 1844 2077 2419 1924 2468 2975 2416 2008 2032 1742 912 869 1598 887 910 1142 1376 1294 1168 1138 1218 1266
195 264 335 210 151 341 352 427 978 1154 1554 927 2982 2467 1425 1280 1430 1567 1593 2023 1623 1837 1672 2589 2198 2203 1881 2159 2554 2608 2148 910 839 1619 1261 981 1090 1137 1077 1062 915 1115 1216
119 311 386 331 315 356 505 691 1017 1290 1524 1745 2216 1771 1722 1937 837 1232 1437 1552 1605 1641 1989 2015 2534 1871 2621 2215 2610 1947 2435 1155 1009 2483 2940 1552 2099 1033 914 1004 1046 1247 1492
124 242 342 411 260 453 465 982 1214 1498 1494 1778 2087 1886 1512 910 1825 1646 1758 1459 1481 1481 1618 1811 1961 2309 2950 3148 2391 2178 3518 3284 975 965 1457 2790 2865 3004 1160 717 1085 949 1108
121 82 266 266 246 490 529 733 1442 1846 1691 1826 1588 1646 1758 1120 597 1551 2253 1966 1836 1402 1438 1754 1980 2085 2120 1987 2521 2075 2898 2336 2545 1639 1211 2130 1649 1556 1734 1843 1317 737 872
217 200 210 356 276 461 425 671 1298 2077 1411 1736 1674 1888 1879 2063 1493 1704 1749 1524 1282 1483 1405 1516 1798 1872 2476 1928 1726 2087 2099 2850 3643 2555 2209 1258 1795 2442 2497 1617 1592 1831 1719
124 219 148 329 648 732 790 514 1262 1575 1414 1617 1248 1399 1340 1261 1385 1193 1339 1044 1161 840 1456 1622 1658 1595 1973 2244 1899 2137 2510 1917 2307 3513 2332 832 1081 1237 1543 1601 2061 1242 1529
320 207 316 476 656 611 676 543 1230 1498 1520 1415 1474 1465 1327 970 707 1020 1994 1630 1179 1225 2077 1673 1498 1493 1883 1857 2183 1919 1397 2713 1726 1976 3551 2236 1065 968 1112 1378 1310 1264 2311
64 173 265 605 639 696 766 1054 1252 1433 1372 1293 1536 1537 1296 1160 1412 432 1618 1777 1314 2120 1981 1380 1495 1533 1532 1784 2062 1784 2094 2298 2166 2427 1905 2026 1327 806 1034 1059 1078 1149 971
227 253 276 366 425 675 782 1084 1125 1213 1169 999 1030 1142 1088 1058 1063 1213 1216 502 1054 1233 2076 1596 1716 1811 1824 1914 2029 2296 2317 1920 1846 1050 2054 2057 1325 1920 1088 917 875 874 942
358 249 444 335 644 852 789 970 935 1615 1172 1055 950 833 661 586 781 599 708 974 948 1148 1403 1665 1708 1590 1898 1903 1978 2823 1968 1989 1772 1707 1667 1455 2207 1670 1327 1404 1068 677 705
475 242 289 579 1369 1304 1268 1254 1698 1262 1299 1194 1295 1124 955 689 523 649 647 1079 1234 1390 1430 1794 1654 1367 1691 1785 1978 2284 1278 1416 1507 1465 1545 1533 1086 1933 2859 1715 3361 1789 2270
618 356 295 781 1427 1857 1667 1393 1419 1168 1229 1370 1305 1831 991 827 715 572 664 911 1291 1312 1439 1415 1415 1559 1680 1399 1769 2020 1516 1578 1217 1134 1372 1453 1530 1865 1782 2083 1833 1188 1839
1012 1038 869 696 744 774 824 1031 1093 877 1058 758 1249 1823 1441 900 941 1971 778 910 1405 1375 1219 1663 1884 1652 1554 1629 1432 1588 1760 1738 1437 1475 1862 1849 1520 1705 1946 1878 2437 2359 2177
1093 1068 1230 1447 1530 1249 1062 789 398 387 311 412 884 836 1885 1530 1413 1386 1611 946 1018 1141 1210 1217 2236 1377 1338 788 1282 1519 1721 1963 1789 1421 1479 1585 1176 1010 1056 1347 2475 2492 2138
1211 1318 1295 1278 1465 1460 1288 1141 779 637 387 364 515 951 1104 1189 1479 1413 1396 1416 1283 1257 1308 1337 1527 1463 1302 449 548 803 1815 1717 2067 2073 1564 1237 1619 1480 1304 1250 1105 1208 2321
1085 1240 1078 1134 1204 1330 1303 1165 859 540 619 291 280 272 350 240 386 644 1095 1161 1186 1269 1431 1262 1300 1220 716 392 382 515 1130 1703 1993 1861 1854 2011 802 1054 1211 1060 820 855 884
1067 1115 964 876 924 1278 1472 1339 1184 1007 687 674 365 256 144 161 227 177 235 364 598 927 942 824 321 160 102 154 325 457 1442 1823 1576 1544 1273 1105 536 320 185 76 775 965 1359
469 505 714 793 726 850 691 986 919 770 700 570 528 379 296 166 44 34 60 97 247 433 272 170 109 71 60 85 227 414 1174 582 373 281 253 190 156 87 39 23 65 91 107
488 516 487 400 314 316 444 352 368 343 300 389 181 57 113 3 10 1 14 13 27 58 99 95 96 82 22 10 20 95 328 430 106 67 74 58 42 14 2 0 0 0 0
601 493 653 622 361 431 434 443 319 473 454 380 313 209 114 55 79 20 28 2 35 123 122 96 54 18 2 3 28 23 20 32 45 25 24 21 1 1 0 0 0 0 0
343 273 394 281 509 360 401 554 448 573 447 347 308 193 150 61 138 6 3 9 3 38 15 19 25 5 0 0 1 5 4 12 30 39 11 4 1 1 0 0 0 0 0
282 419 401 392 358 373 253 334 478 436 390 379 200 119 131 23 75 0 0 0 5 46 22 1 0 0 0 0 0 0 0 0 0 0 0 0 0 0 0 0 0 0 0
499 502 420 191 283 431 421 250 323 267 290 286 215 247 58 4 0 0 0 0 0 0 0 0 0 0 0 0 0 0 0 0 0 0 0 0 0 0 0 0 0 0 0
382 289 385 346 272 304 156 73 33 86 63 94 14 8 5 3 5 0 0 0 0 0 0 0 0 0 0 0 0 0 0 0 0 0 0 0 0 0 0 0 0 0 0
181 203 193 164 8 28 27 13 9 9 1 4 0 0 0 0 0 0 0 0 0 0 0 0 0 0 0 0 0 0 0 0 0 0 0 0 0 0 0 0 0 0 0

GFSMW_con_mucape_108.txt.gz
CAPE
69 40 93 53 148 486 603 565 1311 1904 1029 1547 471 2293 649 2040 1783 1644 2742 3113 2853 2312 2915 3277 2746 881 1084 3582 3521 3561 3255 3094 2662 3394 2118 1545 1831 2074 2063 1654 1381 1637 1917
79 83 56 76 44 547 809 1474 1189 1766 2076 1655 1305 1974 1884 1737 1971 2270 2792 2008 2492 2594 2799 2927 2117 1655 2779 3445 3727 3977 3816 2609 2119 2539 2466 2215 1973 1497 1288 1770 1332 1305 1458
62 112 193 44 126 509 904 1313 1703 1973 2321 1861 1590 2525 1230 2656 1690 1593 2388 2105 2253 2588 1313 2860 2051 2710 2965 3122 3808 3929 3532 3149 2256 3106 3717 2774 2465 2008 1453 1269 1618 1162 2076
156 166 155 97 153 533 608 1700 1956 1930 1773 1358 1844 828 2120 1471 1881 2512 2047 2682 2590 2368 2402 2515 2727 2965 961 1488 3767 3210 3635 3393 3311 2679 2237 3343 1029 816 1452 1246 1124 1330 1723
90 138 65 264 222 222 599 1323 2106 2023 2339 1014 2631 2036 2200 529 652 787 1166 2639 2962 2418 2134 2979 2682 3097 2634 2569 3518 3187 3702 3483 3679 2612 3142 2097 3585 1143 1590 141 612 1355 1525
68 127 112 130 475 199 536 1396 2151 2141 2151 1960 1665 1948 952 431 968 434 692 2042 1908 2285 2917 2076 2873 3161 3045 2090 2647 3688 3367 3345 4128 3525 3417 1750 763 735 652 477 286 655 1232
81 100 185 304 254 185 494 1232 1889 1840 2187 2124 1775 2079 2329 1153 417 677 760 478 1089 1082 2963 3486 2776 2711 2693 2814 2827 3270 3208 3309 3139 4219 3224 3023 1267 209 563 764 653 225 957
18 210 150 220 304 437 191 1267 2018 1816 1824 2034 2409 2457 1847 2052 1357 845 662 90 164 406 1904 2817 2810 2937 2882 3080 2853 3093 2763 2972 3094 3646 3243 3195 2145 1334 1945 2365 1516 1205 1330
0 95 158 148 148 826 547 445 1970 2199 2009 1889 2180 2481 2523 1712 2618 1314 582 107 322 470 982 2140 2764 2758 2330 2942 2711 2885 2468 1806 967 2733 3482 3005 2269 1775 1883 856 2152 1985 1725
43 262 174 91 116 481 533 253 1052 1835 1877 1768 1849 1775 1980 2112 2458 953 500 185 75 501 226 838 2536 2645 2199 2202 2931 2159 1748 2141 2372 2362 2520 2966 2462 2104 1838 1333 1623 1698 1363
66 451 393 382 64 81 176 590 1425 1787 1614 1627 1608 1895 1522 1729 1894 1957 1421 671 307 897 305 1524 2394 2266 2147 2091 2576 2507 2614 2030 2749 2702 2220 2282 2767 2688 2182 1962 1726 1452 1881
534 382 432 691 362 322 801 401 1255 1474 1321 1034 1791 1946 1604 1346 1451 1929 1563 2329 2368 2868 2261 2490 2630 2679 2523 2580 2703 2296 1986 1517 1932 2451 2630 2519 1749 2265 3254 2553 2586 2154 2603
1078 642 538 211 108 81 12 489 1019 949 1370 1214 1444 1201 1744 1773 1570 1133 1496 2395 2766 2474 2160 2462 2280 2129 2057 1864 2663 2698 2793 2109 1814 2423 2323 2286 2126 2167 2174 2712 2666 2063 2045
1110 842 656 445 150 0 4 176 1146 1133 940 961 1603 472 2054 1541 1741 1205 1658 2299 2717 2363 2508 2037 1485 2168 2348 2027 2309 2722 1986 2199 1944 1994 1814 867 1767 2186 2293 1864 2342 1890 2237
1197 1051 747 859 1490 452 491 874 821 800 1067 1065 1157 627 758 1283 1801 1541 2254 1695 2024 1594 1713 1910 2025 1726 996 764 848 1732 1967 1862 1973 2706 2136 2294 1231 674 940 1614 2449 2934 2493
1050 1348 1488 1230 1300 1277 934 690 711 741 591 421 467 707 816 773 631 783 1226 1603 1916 1754 1786 1643 1843 1378 698 442 271 509 1738 1780 1934 2025 1959 1357 1483 1176 995 1003 970 911 1693
1477 1644 1278 1284 1611 1532 1637 1248 1381 1251 950 610 648 843 1067 725 455 593 889 796 1067 1363 1497 1709 1565 934 701 345 337 308 378 1373 2316 2479 2575 1498 752 743 980 756 626 932 1073
942 889 1115 1201 1236 1378 1212 1123 1376 1150 964 809 732 431 326 187 102 134 432 525 307 390 588 605 421 303 146 123 97 187 235 1608 1794 1254 1460 726 592 316 217 136 808 784 1219
828 996 771 681 824 760 847 1135 1260 1164 1085 960 561 329 276 74 93 53 72 80 128 150 128 149 100 34 47 54 109 240 1634 868 674 425 257 257 141 130 89 44 8 59 21
1037 1003 710 645 746 771 723 635 577 549 419 498 409 407 355 159 25 0 11 17 57 75 72 60 20 9 26 52 84 87 533 357 108 40 56 85 70 45 6 0 0 0 0
351 727 450 274 323 641 662 644 459 565 410 367 307 260 138 43 1 5 97 11 3 3 13 15 21 39 44 62 44 57 105 119 53 2 24 41 45 31 4 0 0 0 0
264 336 560 350 371 195 400 442 293 448 349 331 368 332 304 73 19 6 31 15 8 10 35 56 82 25 21 20 9 0 14 8 6 2 7 20 20 9 0 0 0 0 2
498 444 217 121 194 323 238 347 518 477 347 522 543 475 251 78 164 19 55 4 1 7 22 108 1 14 13 13 0 0 0 0 0 0 0 0 0 0 0 0 0 0 0
378 298 323 133 241 460 382 280 333 402 381 442 435 488 393 263 177 98 109 0 0 0 9 9 0 1 2 0 0 0 0 0 0 0 0 0 0 0 0 0 0 0 0
529 344 297 254 138 137 305 236 283 108 278 276 281 171 205 258 173 47 30 1 0 0 0 0 0 0 0 0 0 0 0 0 0 0 0 0 0 0 0 0 0 0 0
328 240 141 202 312 259 107 108 83 64 95 183 154 134 91 82 92 32 9 1 0 0 0 0 0 0 0 0 0 0 0 0 0 0 0 0 0 0 0 0 0 0 0

GFSMW_con_mucape_111.txt.gz
CAPE
0 2 23 10 0 51 143 292 171 771 339 448 386 500 643 656 1176 979 1283 1222 1209 1299 1793 1755 1 769 955 1996 2253 2106 2012 2300 1506 1390 1724 1008 876 1027 1009 1117 1226 916 1288
5 4 11 7 0 0 0 377 477 543 74 574 525 858 766 1058 1210 1335 1453 1206 1617 1311 1561 1463 1294 1060 1794 2095 2141 2416 2595 2102 1028 1336 2140 671 495 777 1015 947 1070 1039 951
13 10 10 7 0 48 226 385 565 254 840 792 996 737 350 1136 956 1125 1179 1289 1484 1277 1150 1637 1273 1208 1207 1440 2101 2505 2376 2534 2241 1773 2135 1728 1667 1120 791 641 701 467 732
45 26 12 0 27 133 388 210 452 459 768 680 718 561 450 461 557 698 987 1033 1380 1387 1119 1403 1685 1223 1125 1228 1896 1934 2197 2451 2360 2011 1873 663 549 375 455 678 521 446 669
41 52 23 0 55 197 215 451 517 565 593 534 997 418 487 497 448 533 767 792 1568 1427 1304 1119 1210 1588 1418 1284 1730 2174 1852 2079 2379 2270 2035 929 545 506 82 241 251 194 425
34 37 46 48 44 79 267 543 589 559 644 348 807 633 627 432 236 371 306 489 674 941 1004 1519 1620 1268 1343 1335 1497 1854 1403 2060 1816 2294 1976 1363 353 311 211 11 1 67 272
29 52 39 45 117 87 216 857 687 540 712 569 746 553 576 169 120 104 169 366 349 523 660 873 1212 1292 1159 1263 1586 1473 1221 1806 1549 1748 2086 1876 722 534 249 117 254 149 369
58 36 48 48 101 133 397 693 791 780 692 568 698 550 696 539 389 236 259 298 211 503 491 861 1092 1014 1368 1254 1668 1194 1777 1208 1184 1128 1438 1920 1429 1076 1122 824 517 408 455
77 69 58 111 103 96 618 966 833 608 981 894 1018 716 631 485 384 310 276 199 0 127 583 715 884 1093 1391 1210 1305 1418 1123 1271 881 1116 1236 1666 1437 1071 1439 1305 1196 1074 571
30 35 68 71 188 145 549 1187 1040 672 662 1123 965 835 836 700 574 364 131 36 0 0 172 500 787 1068 911 662 1259 1055 814 1260 1169 1335 961 1203 1043 1022 1280 1224 1518 1076 722
0 7 65 107 232 265 445 950 1172 1231 957 1181 822 999 1076 782 664 400 265 188 0 144 253 343 830 1110 817 1050 1198 1158 796 1103 1058 1215 1142 1000 1255 1302 990 1530 1500 1156 1502
56 44 75 94 151 244 285 666 595 879 1106 986 826 890 836 840 851 611 426 446 231 434 132 171 937 944 954 1136 969 878 1488 947 838 862 947 988 1147 967 987 1097 1384 1088 1264
111 166 323 93 141 169 182 259 507 814 983 800 1004 886 800 883 675 583 647 407 488 817 895 977 883 964 1207 981 1079 1354 969 921 1202 978 1045 841 708 959 616 952 1075 682 898
205 281 326 194 179 149 89 53 385 500 636 937 974 1031 894 829 817 801 355 1077 879 764 715 1097 846 817 809 713 1152 1221 1189 970 1033 1313 1136 758 561 1075 732 913 931 1305 1113
345 335 293 278 245 159 114 48 1 114 368 525 663 605 617 796 755 952 499 1106 1139 930 774 808 834 507 509 458 667 819 1147 883 738 710 775 819 899 760 548 521 585 664 908
598 614 519 267 187 212 212 71 15 1 453 346 378 383 379 389 476 461 489 542 517 483 468 595 559 406 432 336 307 318 750 882 817 864 713 562 633 754 862 802 678 561 789
823 964 1063 867 699 228 141 223 158 312 321 295 232 232 356 343 332 241 308 326 223 200 170 355 353 378 328 261 245 191 262 414 706 777 648 550 400 334 355 266 302 482 582
645 680 781 848 935 945 501 541 372 368 303 289 399 496 464 237 106 131 110 220 219 154 171 138 173 99 104 100 62 76 139 444 423 327 479 389 275 171 173 139 134 172 158
364 496 730 686 567 638 839 655 562 547 395 399 470 372 248 122 85 32 12 93 97 78 114 101 21 19 8 4 17 198 521 322 256 209 187 156 169 95 36 14 1 0 0
235 536 683 694 335 294 416 622 729 624 577 385 356 302 183 105 6 15 10 22 34 29 30 17 23 11 3 11 17 106 385 134 100 61 72 82 53 38 25 6 0 0 0
114 144 389 326 380 581 552 550 458 422 323 425 383 333 196 60 37 20 1 0 1 16 13 10 6 5 0 1 0 25 162 123 67 8 7 12 22 26 28 24 13 1 0
41 76 159 259 368 348 564 478 766 691 586 462 410 403 307 221 154 27 25 0 21 30 25 20 17 17 7 4 1 12 54 84 34 19 16 10 15 16 11 5 2 0 0
97 219 185 381 343 446 384 342 393 194 297 335 214 344 296 241 338 165 44 55 21 19 15 11 32 7 7 2 2 22 12 2 3 9 9 0 0 0 0 0 0 0 0
175 89 104 130 59 113 256 73 207 359 418 404 253 418 347 255 265 130 53 46 56 7 0 8 32 2 0 1 11 5 0 0 0 0 0 0 0 0 0 0 0 0 0
157 50 192 178 135 218 186 303 217 106 318 371 161 328 403 366 198 205 170 193 87 1 1 2 3 0 2 2 0 0 0 0 0 0 0 0 0 0 0 0 0 0 0
59 202 170 139 66 160 119 7 14 96 167 134 95 164 146 251 192 102 99 111 77 13 5 3 0 0 0 0 0 0 0 0 0 0 0 0 0 0 0 0 0 0 0

GFSMW_con_mucape_114.txt.gz
CAPE
14 16 8 0 0 3 5 38 65 33 352 460 749 548 588 1020 982 1213 953 1396 1008 1281 1507 1215 298 930 1742 2037 2185 2287 2462 1397 757 1257 1166 723 676 745 712 896 967 1096 740
22 17 0 0 55 50 44 13 4 241 249 279 533 357 619 528 758 995 1100 1276 1312 1396 1633 1227 1073 995 1325 1581 2088 2005 2190 2062 1966 1282 1431 470 461 570 719 758 821 750 804
4 4 0 0 18 59 66 70 130 41 78 424 633 517 763 768 836 928 940 1068 1279 1145 1215 1343 1155 1193 1030 1319 1633 1831 2067 1810 1617 1478 1523 1344 1178 799 555 689 557 551 577
22 6 0 0 0 0 92 74 144 130 563 615 640 410 469 657 519 517 723 891 1172 977 1123 1372 1205 1177 1257 1136 1859 1682 1749 1887 1715 1181 711 476 533 656 552 543 363 316 411
0 0 0 0 0 9 62 78 95 218 449 400 417 398 323 316 366 435 454 716 952 1200 992 921 1395 1352 1137 1223 1318 1462 1682 1753 1628 973 709 469 424 186 332 288 353 314 204
0 0 0 10 24 132 81 146 94 450 318 305 496 327 314 371 360 282 462 437 460 650 934 1150 1057 1012 1085 1143 1212 1397 1453 1576 1509 1478 876 503 320 232 138 43 1 37 121
11 14 31 54 52 133 305 133 0 317 211 256 426 450 362 285 282 229 359 232 283 456 533 751 869 1134 1055 1159 1463 1300 885 1204 1451 1549 1000 474 471 500 310 269 310 289 296
69 9 29 75 74 102 347 270 155 145 227 176 358 300 395 320 140 168 64 143 278 284 354 570 850 968 1057 814 1299 950 1345 1047 863 819 1245 866 694 679 725 593 364 333 234
46 41 37 85 73 101 317 308 297 197 238 197 314 287 466 358 325 168 171 149 211 179 386 605 646 856 805 1055 1112 1065 1148 1022 921 1075 1232 1195 912 725 931 746 614 528 256
90 103 80 64 87 100 295 512 351 300 279 210 368 319 417 386 337 211 182 268 198 0 382 443 514 633 881 1041 962 1057 817 838 991 1072 783 834 701 950 993 879 962 881 493
111 110 91 119 73 128 323 557 519 340 441 445 618 427 415 445 419 397 131 25 14 0 0 119 480 692 996 709 949 950 675 735 920 931 886 678 932 1043 1323 1069 1070 1071 877
21 62 106 125 125 275 565 668 663 439 308 715 655 601 414 444 421 468 214 172 31 52 159 164 544 606 909 824 765 788 1320 753 614 544 756 764 895 881 705 799 957 768 690
3 5 58 123 143 204 471 700 704 568 514 491 730 516 391 541 416 375 222 233 222 168 278 194 257 398 853 792 759 793 824 988 837 874 836 765 595 646 622 691 782 679 741
139 32 17 69 133 197 231 490 620 544 604 573 710 710 534 609 465 417 437 395 227 310 330 509 554 568 523 492 563 554 1080 748 682 842 865 855 769 665 610 633 829 735 661
188 144 100 86 101 111 185 319 517 396 275 363 455 670 508 441 549 479 365 441 387 375 646 614 723 380 313 314 294 460 678 911 700 512 645 634 593 636 630 470 471 462 403
239 277 262 187 129 117 203 235 312 374 244 219 236 487 364 455 423 311 353 319 296 298 424 393 560 555 333 313 176 258 474 750 675 411 421 521 602 459 618 614 463 487 717
60 234 252 262 223 179 128 117 57 51 53 97 197 283 235 197 166 266 219 300 217 140 219 198 223 279 285 253 219 181 167 594 662 517 442 353 244 235 281 250 307 298 364
82 207 241 235 248 186 149 116 79 52 175 141 166 225 189 163 131 160 214 275 177 175 136 70 100 85 174 157 88 46 22 194 371 402 261 212 244 209 206 203 166 139 123
219 188 261 350 618 203 187 151 113 185 214 156 175 204 180 128 94 63 106 106 146 104 81 78 66 75 49 27 25 326 173 161 197 191 152 119 132 138 80 36 19 3 0
147 271 338 349 291 399 432 220 281 301 206 206 213 210 151 110 105 101 87 68 71 85 80 54 29 24 27 43 25 126 107 113 123 128 128 95 79 62 42 30 21 18 8
151 200 146 261 292 501 319 217 304 267 260 167 289 209 170 113 96 60 45 76 56 63 51 23 8 5 12 8 8 80 97 88 78 64 49 42 50 66 67 55 48 50 25
57 113 152 142 172 231 365 365 330 444 318 162 309 190 161 236 79 58 38 66 70 72 83 41 10 2 5 1 3 2 51 94 94 71 60 29 27 21 15 15 19 16 14
11 81 100 71 90 132 238 303 432 321 399 406 447 366 318 215 262 175 279 122 29 55 78 52 24 14 21 24 8 8 2 37 66 43 18 12 17 17 15 18 3 0 0
0 12 12 35 77 41 111 159 225 267 202 236 317 325 278 143 126 136 188 178 45 37 31 13 30 33 4 14 9 1 3 3 3 0 0 0 0 0 0 0 0 0 0
0 22 1 3 5 11 26 42 104 36 151 219 233 308 148 262 260 156 91 106 116 145 91 43 19 51 30 5 5 5 3 0 0 0 0 0 0 0 0 0 0 0 0
19 11 5 28 10 1 2 26 38 30 86 86 47 142 58 99 101 52 52 55 95 69 91 16 6 0 19 11 13 10 8 0 0 0 0 0 0 0 0 0 0 0 0

GFSMW_con_mucape_117.txt.gz
CAPE
62 75 12 87 110 50 26 81 152 178 213 741 435 427 589 570 585 899 1124 1296 1149 1376 1496 481 495 1296 1486 1888 1967 2048 1826 1715 728 979 730 668 511 560 589 694 810 867 806
9 36 17 64 78 40 26 0 0 45 146 398 471 389 446 611 579 898 917 1158 1101 1459 1362 1116 888 1000 1188 1544 1708 1816 1575 1312 1012 1368 801 435 469 490 621 673 677 742 717
3 1 3 14 0 0 9 0 0 69 172 239 468 324 506 624 699 896 918 973 1160 1200 1291 1073 1014 985 971 1423 1515 1569 1529 1198 873 904 1092 1109 639 412 481 578 652 574 485
17 40 26 2 0 0 0 19 0 83 112 262 468 353 378 509 472 575 745 791 977 888 1154 1086 1052 986 1037 1489 1637 1397 1468 1295 958 734 530 359 452 568 457 423 479 368 327
0 3 38 24 2 7 0 0 0 57 338 415 318 334 398 310 373 441 538 627 892 1083 1142 1078 1076 1161 963 1162 1295 1305 1248 1340 692 629 490 426 311 151 190 191 214 204 240
0 10 45 46 12 17 12 0 16 156 349 400 390 274 251 293 320 339 379 410 571 702 1128 870 1058 1020 928 1041 1148 1051 1333 1122 1335 795 508 367 308 237 65 86 160 176 80
8 8 5 17 33 7 8 35 31 121 250 306 297 288 280 249 293 301 284 384 339 365 546 750 920 925 929 970 1152 1136 782 1066 1177 984 538 363 399 273 299 317 355 293 157
1 11 39 59 76 64 8 88 26 122 189 223 328 280 259 232 233 222 185 336 271 250 356 491 639 806 1008 657 989 891 1156 877 807 766 965 401 383 503 713 574 374 253 184
6 26 56 81 97 95 95 82 28 68 207 125 239 263 306 322 352 237 38 31 86 227 294 397 587 754 807 908 932 1094 974 860 771 896 955 800 631 495 738 602 424 417 274
33 34 55 84 106 109 201 137 84 0 96 143 199 198 228 349 316 324 102 115 106 214 115 374 518 404 684 831 987 943 996 670 771 867 767 765 602 736 735 407 676 642 565
57 38 70 102 113 139 202 223 202 112 116 125 153 203 206 323 287 295 105 159 161 115 0 227 373 413 618 817 841 824 874 510 780 843 657 590 807 825 1006 858 794 838 674
87 99 81 92 85 118 158 255 321 211 205 193 151 247 245 331 309 282 262 176 23 31 0 0 73 462 746 800 619 746 841 837 487 572 619 585 626 666 647 634 757 617 548
48 53 62 83 136 118 169 236 431 293 267 316 313 367 481 366 410 378 371 255 6 22 50 124 90 417 491 744 741 538 481 517 678 563 624 627 704 617 714 477 625 500 633
48 48 44 94 138 203 304 342 472 457 363 362 490 460 571 483 410 425 333 350 159 177 109 201 238 210 380 586 545 476 543 485 539 508 674 824 788 603 480 466 601 673 427
188 139 66 78 173 240 336 540 606 561 495 423 441 495 591 565 387 486 489 334 293 284 167 235 405 528 383 335 290 232 209 192 468 456 532 415 549 506 580 555 479 385 256
143 264 170 153 177 218 246 388 526 522 584 539 472 511 584 653 554 503 484 447 323 237 251 271 494 514 352 252 228 159 150 295 587 484 382 357 351 337 425 538 475 339 437
156 199 173 160 116 148 193 226 422 493 487 488 347 334 521 513 333 293 346 283 218 134 139 131 221 272 303 332 190 186 172 175 298 347 335 302 276 259 295 299 266 305 324
20 23 45 101 124 144 108 126 151 269 380 373 171 203 264 252 212 175 234 202 156 128 156 80 87 84 29 65 86 87 108 84 268 333 308 298 268 203 217 251 259 230 137
57 36 79 172 243 186 137 105 104 103 130 85 125 167 169 195 198 141 133 131 170 163 154 108 41 64 67 58 45 237 71 77 138 132 109 144 142 184 169 155 139 117 74
106 110 136 192 232 202 201 178 85 183 133 120 137 172 166 168 150 126 140 80 90 132 146 126 75 40 51 57 50 86 74 73 15 1 5 60 84 116 140 117 88 82 49
49 80 84 122 138 286 381 256 61 200 21 192 204 184 201 146 112 98 85 80 151 190 173 142 87 67 57 47 29 62 63 55 16 16 13 33 58 80 106 105 88 73 69
16 157 101 109 280 421 454 262 61 33 109 272 206 142 203 78 39 86 85 109 170 159 152 95 32 30 28 32 4 2 20 37 44 52 62 47 27 31 54 85 84 59 36
10 91 60 114 90 138 318 511 435 378 362 210 57 163 208 113 92 92 117 131 139 162 141 133 100 60 27 24 33 24 15 22 61 83 76 73 51 45 46 41 19 29 23
3 4 19 7 41 49 186 251 349 378 359 254 276 241 218 190 183 171 126 136 166 124 107 109 113 48 29 34 17 5 30 4 11 28 38 13 8 1 0 0 0 0 0
5 6 4 6 5 6 13 9 95 61 42 171 88 154 172 177 203 222 134 157 136 91 167 127 26 16 32 43 6 14 4 8 11 2 0 0 0 0 0 0 0 0 0
10 2 1 2 6 5 1 2 28 36 68 111 40 105 192 172 161 107 168 86 77 89 62 83 84 112 12 7 20 26 18 18 24 22 15 0 0 0 0 0 0 0 0

GFSMW_con_mucape_120.txt.gz
CAPE
35 88 97 135 128 151 183 132 260 371 375 414 409 291 514 519 490 611 818 998 1166 1288 755 434 815 1217 1532 1546 1777 1730 1567 1255 725 823 609 580 500 545 559 569 645 689 738
0 16 41 69 36 94 85 111 150 171 241 199 236 263 403 474 444 627 924 1063 877 1173 1030 716 826 957 1284 1323 1454 1489 1324 832 864 1364 541 449 497 486 507 579 603 622 672
21 11 21 25 0 7 0 41 90 119 180 445 375 254 419 511 603 760 832 875 1008 1083 989 742 678 750 1043 1220 1295 1345 1315 880 642 669 1158 908 577 451 375 454 506 508 414
7 48 38 11 0 2 0 0 13 43 8 224 362 276 344 385 491 581 659 717 884 816 1018 860 803 855 834 1292 1465 1283 1263 1090 772 566 461 376 404 454 690 396 371 363 327
0 3 17 28 0 0 0 0 0 0 51 225 327 214 265 327 390 450 517 585 721 850 1013 945 868 901 715 1015 1063 1138 1234 1036 731 533 390 354 283 210 151 122 78 77 146
0 1 24 36 27 0 10 0 0 0 48 146 241 239 248 237 248 294 316 402 579 756 908 864 865 915 767 906 881 845 1009 1044 1078 668 459 411 282 210 120 86 271 230 211
0 0 9 24 26 0 0 0 0 0 80 241 227 262 253 250 327 283 276 299 334 490 582 797 695 796 679 726 894 897 768 808 963 848 386 337 266 159 233 220 192 287 212
2 10 0 1 14 0 0 0 0 12 119 247 311 286 261 263 246 213 305 262 242 268 289 441 624 678 719 795 751 754 814 639 782 609 753 292 208 348 443 382 320 573 118
31 18 0 0 22 0 48 31 0 4 63 211 246 265 271 247 245 233 198 186 144 244 209 220 459 534 635 801 740 756 730 703 586 521 634 707 363 328 389 455 348 594 569
5 26 36 15 25 42 64 50 42 43 40 98 172 237 261 229 217 220 225 187 37 39 178 170 345 450 600 650 687 753 820 731 618 600 709 709 523 431 492 441 467 286 384
63 40 40 46 39 67 87 67 62 52 39 77 104 126 186 214 220 260 247 231 87 59 123 113 150 330 290 611 679 779 733 679 585 590 650 445 454 566 591 679 671 670 606
73 88 76 89 82 94 110 154 111 77 87 56 100 104 145 171 207 235 242 180 120 30 2 0 52 184 281 583 649 636 957 701 559 440 511 612 387 460 724 585 734 468 512
64 100 102 94 114 140 170 206 209 179 113 96 111 117 125 145 167 225 235 201 216 8 0 0 0 44 205 540 564 461 554 577 697 539 537 518 538 809 593 571 575 441 785
39 140 123 122 128 155 143 201 244 299 227 214 202 202 205 207 231 241 282 295 273 180 0 0 112 38 64 329 468 517 525 641 688 605 661 769 730 696 651 471 788 546 521
102 56 65 79 109 148 137 167 221 402 307 271 299 285 256 263 301 298 274 318 253 271 170 87 63 243 231 205 259 298 259 294 261 415 475 412 381 440 425 696 663 433 344
170 182 94 155 158 210 236 373 540 559 437 282 328 321 255 250 323 455 410 305 368 358 262 231 192 355 237 246 174 130 160 149 236 388 385 299 261 235 275 331 299 349 387
290 249 121 118 181 165 248 245 296 383 375 437 393 390 315 329 312 360 479 370 472 459 137 50 108 157 212 200 184 139 118 101 150 291 384 247 189 193 166 185 208 262 298
134 201 192 195 172 185 157 125 157 156 206 248 321 275 241 278 188 211 270 269 265 238 126 71 97 82 77 103 90 4 62 111 108 171 209 216 191 165 140 129 126 108 98
92 155 76 117 191 166 151 143 147 101 90 167 186 158 155 73 116 148 149 136 163 141 144 70 73 64 68 46 31 67 50 35 90 165 214 239 181 141 114 160 177 159 103
125 152 160 125 165 167 125 174 203 124 102 64 26 35 100 121 94 149 150 104 124 109 72 78 75 102 86 4 66 75 39 71 105 69 16 0 0 9 33 62 74 81 73
55 35 49 53 136 246 337 237 157 67 126 30 47 91 150 95 67 99 91 84 84 72 63 89 96 97 59 47 68 80 54 57 55 40 25 29 3 2 24 50 62 49 61
23 97 85 108 164 271 389 385 232 29 6 3 106 142 94 103 107 86 41 52 51 77 102 99 129 100 88 86 78 87 75 56 54 40 16 22 39 36 30 32 53 53 57
28 71 79 114 120 146 204 257 314 219 227 134 187 89 69 77 78 27 27 75 87 113 120 125 116 108 142 131 82 22 16 20 33 29 55 76 70 64 26 14 23 23 21
4 5 8 12 37 13 29 263 262 262 251 215 141 44 160 52 67 55 67 100 72 98 125 86 119 87 61 39 67 45 32 17 10 53 52 66 53 24 8 9 13 0 0
1 2 5 7 6 13 7 8 108 180 124 154 177 178 136 130 80 70 89 88 148 140 185 115 110 133 76 17 24 33 16 7 10 13 44 50 17 0 0 0 0 0 0
5 11 6 5 4 7 2 3 12 73 50 53 82 105 156 177 137 92 108 106 138 165 120 115 64 113 124 84 64 31 1 10 11 5 3 10 18 12 2 1 0 0 0

GFSMW_con_mucape_123.txt.gz
CAPE
152 180 286 342 354 510 660 956 1014 1085 1114 1101 1090 1146 1072 1324 833 863 1544 1928 2154 2418 2183 1200 1853 2554 2772 3211 3154 2723 2708 1903 1631 1423 1301 1212 1181 1330 1457 1441 1425 1468 1335
113 126 226 243 292 522 655 765 775 1052 1112 1083 1180 1082 1323 1318 1379 1461 1930 2141 1886 2319 2146 1620 2080 2276 2429 3067 3103 3039 2213 1687 1778 2245 1270 1290 1229 1135 1078 1327 1401 1381 1111
78 126 195 223 280 397 579 651 680 898 1021 1079 1018 1180 1310 1414 1495 2061 2561 2012 2040 2180 2233 1820 1950 1985 2366 2326 2894 2789 2726 1612 1302 1666 2289 1463 985 1313 993 1075 838 958 972
39 112 166 239 287 287 384 446 530 656 819 1129 992 1275 1049 1139 1565 2365 2220 2017 2082 2018 2123 2030 1975 2284 2105 2784 2667 2373 2498 2333 1526 1209 941 1264 1423 1134 1040 1074 973 873 633
0 16 105 210 265 218 249 282 414 481 654 933 1070 1504 1145 1046 1373 1395 1661 1862 2058 1954 1825 2158 2070 2229 1884 2456 2511 2451 2692 1868 1787 1407 1018 767 479 584 563 420 273 558 295
0 3 51 195 229 176 174 203 312 415 514 810 1248 1344 1338 1186 1177 1378 1271 1470 1590 1656 2100 1956 2327 2345 2031 2177 1997 2293 2452 2364 2248 1479 1318 981 790 797 404 366 721 893 894
0 3 132 178 224 190 208 228 260 334 373 621 1060 1229 1345 1404 1491 1498 1151 1361 1260 1343 1896 2087 2085 2542 2111 2054 2150 2374 2278 2178 1993 2224 1124 847 917 663 349 468 766 946 978
0 10 122 187 242 239 285 249 258 326 360 574 1006 1227 1338 1110 1139 1342 1149 1100 1135 1215 1514 1562 1718 1687 1907 2001 2240 1933 1793 1712 1795 2049 2023 1236 764 724 698 897 994 694 897
39 24 93 184 256 277 331 312 316 377 369 529 940 1191 1201 1213 1030 1220 1141 878 1013 948 1002 1169 1384 1693 1720 1857 1906 1515 1928 1945 1970 1626 1788 1815 1258 684 864 1230 1071 1095 493
35 33 46 149 192 248 310 327 351 355 330 437 771 924 1000 1154 1153 1149 1051 959 870 779 835 887 1079 1381 1657 1798 1986 2131 1911 2060 1794 1377 1925 2238 1571 1406 1212 1185 1318 1146 1356
135 107 44 132 230 199 238 265 372 364 316 378 538 818 875 965 982 984 1054 1156 900 610 514 780 855 1223 1374 1540 1827 2088 1915 1986 1827 1689 1899 1928 1826 1315 1442 1607 1793 1601 1537
171 113 80 138 234 257 261 246 363 404 364 412 507 549 699 804 784 940 942 1072 1038 808 760 380 447 542 997 1273 1564 1611 1311 1705 1649 1583 1768 1817 1270 1799 1888 1741 2161 1906 1793
120 104 99 115 194 239 257 363 446 428 429 455 482 486 535 638 653 811 892 878 851 714 409 129 225 310 297 912 1430 1738 1496 1248 1522 1650 1624 1502 1604 1964 1609 1953 1847 1164 1756
117 97 142 213 263 393 441 559 609 230 648 516 501 554 586 571 618 737 910 887 805 704 399 266 107 255 701 693 1002 1423 1374 1468 1440 1541 1482 1476 1569 1751 1808 1591 1975 1635 2034
247 238 317 287 327 480 520 461 575 380 387 779 472 476 1001 811 829 980 1062 1044 978 771 732 371 219 524 990 658 860 1049 1257 1499 1432 1206 1355 1426 976 412 1012 2031 1923 1879 2061
111 313 282 244 266 434 591 551 332 339 761 339 634 838 1112 1030 1126 1228 1340 1365 1276 1267 1003 720 559 585 472 179 142 67 472 705 982 521 791 1163 235 243 173 224 307 637 1715
284 213 166 204 400 314 328 786 885 897 662 920 831 840 802 779 418 588 1381 1010 1453 1495 1268 1003 900 623 126 203 149 96 13 317 577 950 1243 1093 199 131 311 77 126 180 198
291 238 236 147 135 169 190 217 314 531 363 507 292 265 564 430 273 205 200 160 997 525 1246 819 293 60 59 50 57 93 47 34 235 218 692 755 127 121 69 35 17 25 57
153 259 294 280 211 151 148 142 213 287 203 186 166 138 115 99 102 110 120 118 231 181 146 122 211 123 92 66 64 21 26 0 2 28 82 122 138 133 102 92 69 40 52
187 247 200 172 244 190 125 191 215 224 171 232 108 53 59 101 90 79 51 46 143 122 77 50 46 64 68 99 82 23 42 36 2 66 31 38 55 27 1 5 12 32 32
153 68 294 167 211 315 287 236 296 292 159 196 109 120 209 253 179 82 77 108 128 30 50 49 43 16 62 59 18 37 67 7 38 34 25 26 43 55 17 11 0 10 27
73 210 258 104 116 326 434 356 309 172 121 29 31 63 94 87 76 110 99 81 79 57 54 45 26 52 69 42 2 27 54 33 36 67 53 19 36 10 19 1 11 18 43
33 33 89 69 66 161 277 249 335 217 163 80 148 169 86 167 143 110 28 44 25 30 18 18 16 26 55 84 81 61 71 85 69 63 57 36 45 69 75 53 30 18 16
2 0 0 24 38 16 56 107 192 246 195 267 247 58 36 99 52 64 19 30 37 57 49 42 43 39 43 74 65 47 62 58 62 67 58 73 44 35 53 34 0 9 18
0 1 6 2 5 3 0 0 55 132 210 87 169 214 149 120 88 81 95 75 115 55 81 67 76 78 37 34 94 75 52 40 39 47 61 45 87 60 14 15 0 0 0
0 2 5 8 7 11 3 0 2 10 22 47 74 132 102 103 70 101 79 106 117 74 98 103 87 109 46 18 32 87 70 54 23 14 27 19 20 24 16 6 0 0 0

GFSMW_con_mucape_129.txt.gz
CAPE
285 198 335 409 305 649 921 1253 2162 1580 1479 1328 1299 1506 1321 1699 1244 1025 1784 1799 1568 1902 2354 2030 1790 1948 2773 3829 2468 2428 2520 1620 1725 1238 833 841 787 758 738 813 799 1246 1623
246 172 259 282 395 535 866 1132 1741 1978 1949 2104 2185 1779 1505 972 1228 1555 1468 1643 1536 1837 2041 2411 1945 2599 2514 2904 3058 3227 3485 1550 1689 2378 1211 993 1161 553 595 818 792 1318 1655
161 349 279 229 340 447 720 1099 1343 1755 1849 2213 1674 1657 2455 2342 1195 2005 1445 1496 1611 1754 2151 1966 2497 2534 2931 2502 2296 2851 3747 1890 1480 2553 2056 2036 236 31 1080 1769 1349 1566 1144
157 191 253 345 285 592 550 895 1556 2086 1651 1735 2080 2997 1242 1158 717 851 973 1788 1590 1765 1760 1923 1989 2264 3268 3225 1898 2184 2925 3570 2318 1399 1214 2158 1831 1054 844 998 846 804 590
153 198 189 243 293 486 702 795 1380 2405 1803 1646 2070 1514 2328 1590 1382 1559 2789 2084 2801 1910 1642 1924 1999 2255 2001 2818 2410 2162 2591 2638 2012 2495 1346 1744 917 976 800 360 455 1132 677
124 156 144 301 326 443 595 818 1523 2090 2232 1782 1770 1860 1526 1349 1855 1392 1310 1254 1145 1606 1732 1875 1946 2124 2253 2103 2133 2612 2160 2693 2966 2135 2298 915 885 1148 650 541 836 215 874
152 117 195 261 383 501 569 808 1467 1745 1549 1605 1321 1379 1533 1384 1471 1526 1203 1695 1240 731 3020 2048 2051 1829 2126 1690 2125 2329 2422 2236 2229 2803 1568 924 408 486 413 310 280 164 182
197 124 153 221 400 458 583 784 1380 1849 1530 1267 2039 2173 1629 1450 1278 1633 1578 1658 1038 1325 2842 1871 2200 2742 1815 1710 1854 1611 1730 2171 1790 1966 2586 1636 771 371 339 230 226 142 83
170 150 123 180 373 457 640 855 1177 1735 1649 1201 1241 1654 2089 1500 1552 3000 2175 1423 1482 1165 1706 1558 2468 2418 2690 2805 1720 1648 2520 1572 1840 1694 2279 1705 663 300 393 329 316 277 147
405 247 140 186 309 452 591 858 1057 1488 1576 1109 964 918 1168 1544 1623 1822 1406 1716 2090 1647 1723 1550 1782 1786 1875 1809 2090 2397 2390 1802 1343 1153 2706 1730 650 876 829 397 323 1265 264
518 376 151 200 337 405 598 755 990 1271 1465 1091 759 824 879 1137 1666 1402 1738 1670 1688 1948 1894 1964 2010 1725 1708 1980 2216 2470 2183 1692 2288 1760 1876 2315 2026 971 378 1469 433 301 334
582 412 254 221 370 581 720 763 906 1124 1265 1167 991 829 861 1015 961 1392 1559 1709 1880 1864 2026 2011 1924 1940 1812 1775 2208 1995 1967 1474 1921 1864 1913 1474 1086 2156 2984 1251 2521 903 1981
186 366 578 581 492 644 1180 791 955 973 1133 1295 1081 1002 887 838 893 993 1231 1395 1521 1683 1454 1720 2198 2005 1442 1383 1787 1846 1741 1535 1853 1089 1937 1679 1948 2612 1873 2044 1866 1445 1071
418 465 778 854 593 869 995 1392 1062 1389 1113 1309 1263 1309 1258 1034 907 1212 1435 1153 1533 1606 1591 1551 1747 1790 1501 1145 1182 1205 1375 1637 1560 1935 1797 1688 2170 2370 2152 1919 2862 1992 2364
468 1082 677 715 420 723 1412 1491 1570 1375 1487 1553 1515 1648 1975 1856 1667 1848 1408 1427 1530 1456 1578 1486 1510 1491 1465 992 1513 1291 1321 1680 1763 1486 1621 1603 1575 642 878 2861 2559 2544 2668
249 383 385 608 449 413 646 1465 1549 1449 1746 1696 933 1920 1985 2068 2126 2022 2025 1762 1630 1909 1892 1569 1545 1501 1062 222 323 552 921 1217 1401 1725 1663 1629 899 638 288 167 143 530 2147
167 185 238 116 191 349 462 736 1527 1480 1059 1665 1429 1331 2153 2091 2151 1817 1522 1620 1759 2191 2115 1984 1770 1897 1655 535 340 299 473 933 1090 1263 1431 1382 922 803 1214 276 150 126 123
245 175 114 120 96 147 267 463 513 1434 1748 1432 1411 1520 1471 1156 1423 1974 2148 1999 1769 1620 1661 1715 1215 784 724 571 413 219 164 794 888 1006 1165 1534 1292 959 753 1208 1112 958 200
149 218 199 150 102 104 152 483 796 930 1326 1332 1565 1470 1672 1740 1639 1596 1539 1505 1642 1785 1379 1225 915 646 322 249 294 55 134 301 367 292 191 86 421 574 294 328 723 651 93
108 149 152 159 186 174 132 492 1054 692 834 1013 887 671 851 390 253 315 457 463 497 856 1078 935 636 171 62 80 134 31 51 49 94 29 25 30 66 45 22 140 543 370 273
117 137 149 156 202 303 441 539 427 346 493 809 651 466 546 482 497 401 303 84 95 97 100 112 83 46 45 61 62 34 35 14 60 66 18 4 1 2 7 13 21 48 49
156 109 119 120 226 455 536 320 292 286 222 245 203 171 45 34 61 85 51 45 30 47 53 63 44 26 4 49 35 13 10 14 13 17 50 9 16 4 3 6 3 26 34
72 65 61 93 166 219 335 429 444 339 217 177 155 92 85 68 57 91 112 51 81 40 9 12 39 12 3 34 35 29 16 3 10 8 32 43 32 18 18 25 49 28 23
18 78 56 30 114 154 198 232 266 316 263 240 152 204 166 112 52 52 33 2 0 0 1 0 3 6 5 2 8 30 44 55 30 38 7 14 25 11 18 23 53 37 40
4 1 36 27 45 42 68 120 213 218 242 305 259 146 126 193 168 66 47 35 0 0 35 0 0 0 5 15 9 4 6 41 36 22 0 9 26 27 35 81 64 15 28
4 0 0 0 3 0 2 9 21 57 108 172 258 115 163 170 239 19 4 8 0 0 0 3 4 0 3 20 19 19 0 7 23 25 31 12 9 16 31 32 32 20 22